<?xml version="1.0" encoding="UTF-8" standalone="no" ?>
<gpx xmlns="http://www.topografix.com/GPX/1/1" xmlns:xsi="http://www.w3.org/2001/XMLSchema-instance" xsi:schemaLocation="http://www.topografix.com/GPX/1/1 http://www.topografix.com/GPX/1/1/gpx.xsd" version="1.1" creator="VisuGPX - https://www.visugpx.com">
  <metadata>
    <name>Tour des Baronnies provençales (Drôme) (2021)</name>
  </metadata>
  <trk>
    <name><![CDATA[Tour des Baronnies provençales (Drôme) (2021)]]></name>
    <trkseg>
      <trkpt lat="44.27516" lon="5.27505">
        <ele>367.2</ele>
        <time>2021-05-23T15:03:04.000Z</time>
      </trkpt>
      <trkpt lat="44.27516" lon="5.27455">
        <ele>367.1</ele>
        <time>2021-05-23T15:03:24.000Z</time>
      </trkpt>
      <trkpt lat="44.27523" lon="5.27409">
        <ele>366.8</ele>
        <time>2021-05-23T15:03:44.000Z</time>
      </trkpt>
      <trkpt lat="44.27502" lon="5.27228">
        <ele>367.9</ele>
        <time>2021-05-23T15:04:04.000Z</time>
      </trkpt>
      <trkpt lat="44.27604" lon="5.27203">
        <ele>372.5</ele>
        <time>2021-05-23T15:04:24.000Z</time>
      </trkpt>
      <trkpt lat="44.2774" lon="5.27048">
        <ele>386.5</ele>
        <time>2021-05-23T15:04:44.000Z</time>
      </trkpt>
      <trkpt lat="44.27752" lon="5.26911">
        <ele>394.6</ele>
        <time>2021-05-23T15:05:04.000Z</time>
      </trkpt>
      <trkpt lat="44.27838" lon="5.26705">
        <ele>407.4</ele>
        <time>2021-05-23T15:05:24.000Z</time>
      </trkpt>
      <trkpt lat="44.27863" lon="5.26842">
        <ele>426.1</ele>
        <time>2021-05-23T15:05:44.000Z</time>
      </trkpt>
      <trkpt lat="44.27949" lon="5.26877">
        <ele>433.7</ele>
        <time>2021-05-23T15:06:04.000Z</time>
      </trkpt>
      <trkpt lat="44.27985" lon="5.26859">
        <ele>439.7</ele>
        <time>2021-05-23T15:06:24.000Z</time>
      </trkpt>
      <trkpt lat="44.27973" lon="5.26774">
        <ele>443.3</ele>
        <time>2021-05-23T15:06:44.000Z</time>
      </trkpt>
      <trkpt lat="44.28022" lon="5.26739">
        <ele>452.2</ele>
        <time>2021-05-23T15:07:04.000Z</time>
      </trkpt>
      <trkpt lat="44.28047" lon="5.26671">
        <ele>454</ele>
        <time>2021-05-23T15:07:24.000Z</time>
      </trkpt>
      <trkpt lat="44.28133" lon="5.26774">
        <ele>464.9</ele>
        <time>2021-05-23T15:07:44.000Z</time>
      </trkpt>
      <trkpt lat="44.28194" lon="5.26756">
        <ele>472.5</ele>
        <time>2021-05-23T15:08:04.000Z</time>
      </trkpt>
      <trkpt lat="44.28244" lon="5.26705">
        <ele>487.2</ele>
        <time>2021-05-23T15:08:24.000Z</time>
      </trkpt>
      <trkpt lat="44.28219" lon="5.26568">
        <ele>489.7</ele>
        <time>2021-05-23T15:08:44.000Z</time>
      </trkpt>
      <trkpt lat="44.28305" lon="5.26156">
        <ele>519.4</ele>
        <time>2021-05-23T15:09:04.000Z</time>
      </trkpt>
      <trkpt lat="44.2828" lon="5.26138">
        <ele>516.4</ele>
        <time>2021-05-23T15:09:24.000Z</time>
      </trkpt>
      <trkpt lat="44.28219" lon="5.26121">
        <ele>516.6</ele>
        <time>2021-05-23T15:09:44.000Z</time>
      </trkpt>
      <trkpt lat="44.28145" lon="5.26156">
        <ele>505.6</ele>
        <time>2021-05-23T15:10:04.000Z</time>
      </trkpt>
      <trkpt lat="44.28084" lon="5.26156">
        <ele>499.2</ele>
        <time>2021-05-23T15:10:24.000Z</time>
      </trkpt>
      <trkpt lat="44.28035" lon="5.26224">
        <ele>487.2</ele>
        <time>2021-05-23T15:10:38.371Z</time>
      </trkpt>
      <trkpt lat="44.28048" lon="5.26172">
        <ele>494</ele>
        <time>2021-05-23T15:10:46.508Z</time>
      </trkpt>
      <trkpt lat="44.2806" lon="5.26121">
        <ele>503.5</ele>
        <time>2021-05-23T15:10:54.082Z</time>
      </trkpt>
      <trkpt lat="44.28144" lon="5.26069">
        <ele>522</ele>
        <time>2021-05-23T15:11:11.696Z</time>
      </trkpt>
      <trkpt lat="44.28227" lon="5.26018">
        <ele>544.2</ele>
        <time>2021-05-23T15:11:29.310Z</time>
      </trkpt>
      <trkpt lat="44.2831" lon="5.25966">
        <ele>557</ele>
        <time>2021-05-23T15:11:46.924Z</time>
      </trkpt>
      <trkpt lat="44.28383" lon="5.25921">
        <ele>569.4</ele>
        <time>2021-05-23T15:12:02.410Z</time>
      </trkpt>
      <trkpt lat="44.28438" lon="5.2593">
        <ele>574.9</ele>
        <time>2021-05-23T15:12:13.186Z</time>
      </trkpt>
      <trkpt lat="44.28494" lon="5.25938">
        <ele>580.8</ele>
        <time>2021-05-23T15:12:23.961Z</time>
      </trkpt>
      <trkpt lat="44.28566" lon="5.26015">
        <ele>586.8</ele>
        <time>2021-05-23T15:12:41.574Z</time>
      </trkpt>
      <trkpt lat="44.28638" lon="5.26092">
        <ele>595.7</ele>
        <time>2021-05-23T15:12:58.012Z</time>
      </trkpt>
      <trkpt lat="44.28711" lon="5.26169">
        <ele>609.5</ele>
        <time>2021-05-23T15:13:14.450Z</time>
      </trkpt>
      <trkpt lat="44.28747" lon="5.26207">
        <ele>615.1</ele>
        <time>2021-05-23T15:13:22.639Z</time>
      </trkpt>
      <trkpt lat="44.28711" lon="5.25932">
        <ele>636.8</ele>
        <time>2021-05-23T15:13:58.812Z</time>
      </trkpt>
      <trkpt lat="44.2876" lon="5.25829">
        <ele>630.9</ele>
        <time>2021-05-23T15:14:18.812Z</time>
      </trkpt>
      <trkpt lat="44.28883" lon="5.25692">
        <ele>644</ele>
        <time>2021-05-23T15:14:38.812Z</time>
      </trkpt>
      <trkpt lat="44.29042" lon="5.25641">
        <ele>667.3</ele>
        <time>2021-05-23T15:14:58.812Z</time>
      </trkpt>
      <trkpt lat="44.29104" lon="5.25658">
        <ele>682.5</ele>
        <time>2021-05-23T15:15:18.812Z</time>
      </trkpt>
      <trkpt lat="44.29128" lon="5.25641">
        <ele>685.8</ele>
        <time>2021-05-23T15:15:38.812Z</time>
      </trkpt>
      <trkpt lat="44.29177" lon="5.25675">
        <ele>699</ele>
        <time>2021-05-23T15:15:58.812Z</time>
      </trkpt>
      <trkpt lat="44.29177" lon="5.25538">
        <ele>702.2</ele>
        <time>2021-05-23T15:16:18.812Z</time>
      </trkpt>
      <trkpt lat="44.29214" lon="5.25606">
        <ele>725.2</ele>
        <time>2021-05-23T15:16:38.812Z</time>
      </trkpt>
      <trkpt lat="44.29276" lon="5.25658">
        <ele>742.3</ele>
        <time>2021-05-23T15:16:58.812Z</time>
      </trkpt>
      <trkpt lat="44.2962" lon="5.25349">
        <ele>828.5</ele>
        <time>2021-05-23T15:17:18.812Z</time>
      </trkpt>
      <trkpt lat="44.29657" lon="5.25332">
        <ele>844.5</ele>
        <time>2021-05-23T15:17:38.812Z</time>
      </trkpt>
      <trkpt lat="44.29669" lon="5.25349">
        <ele>849.2</ele>
        <time>2021-05-23T15:17:58.812Z</time>
      </trkpt>
      <trkpt lat="44.29755" lon="5.25297">
        <ele>856.2</ele>
        <time>2021-05-23T15:18:18.812Z</time>
      </trkpt>
      <trkpt lat="44.29755" lon="5.25246">
        <ele>865.1</ele>
        <time>2021-05-23T15:18:38.812Z</time>
      </trkpt>
      <trkpt lat="44.29792" lon="5.25177">
        <ele>863.7</ele>
        <time>2021-05-23T15:18:58.812Z</time>
      </trkpt>
      <trkpt lat="44.29804" lon="5.2516">
        <ele>860</ele>
        <time>2021-05-23T15:19:18.812Z</time>
      </trkpt>
      <trkpt lat="44.29804" lon="5.25177">
        <ele>856.4</ele>
        <time>2021-05-23T15:19:38.812Z</time>
      </trkpt>
      <trkpt lat="44.29866" lon="5.2504">
        <ele>844.7</ele>
        <time>2021-05-23T15:19:58.812Z</time>
      </trkpt>
      <trkpt lat="44.29866" lon="5.24696">
        <ele>862.9</ele>
        <time>2021-05-23T15:20:18.812Z</time>
      </trkpt>
      <trkpt lat="44.29878" lon="5.24662">
        <ele>866.4</ele>
        <time>2021-05-23T15:20:38.812Z</time>
      </trkpt>
      <trkpt lat="44.29915" lon="5.24645">
        <ele>865.2</ele>
        <time>2021-05-23T15:20:58.812Z</time>
      </trkpt>
      <trkpt lat="44.29976" lon="5.24405">
        <ele>855.2</ele>
        <time>2021-05-23T15:21:18.812Z</time>
      </trkpt>
      <trkpt lat="44.30013" lon="5.24353">
        <ele>847.3</ele>
        <time>2021-05-23T15:21:38.812Z</time>
      </trkpt>
      <trkpt lat="44.30074" lon="5.2401">
        <ele>846</ele>
        <time>2021-05-23T15:21:58.812Z</time>
      </trkpt>
      <trkpt lat="44.30394" lon="5.23563">
        <ele>851.7</ele>
        <time>2021-05-23T15:22:18.812Z</time>
      </trkpt>
      <trkpt lat="44.30603" lon="5.23357">
        <ele>868.9</ele>
        <time>2021-05-23T15:22:38.812Z</time>
      </trkpt>
      <trkpt lat="44.30799" lon="5.23014">
        <ele>882.5</ele>
        <time>2021-05-23T15:22:58.812Z</time>
      </trkpt>
      <trkpt lat="44.30885" lon="5.22705">
        <ele>892</ele>
        <time>2021-05-23T15:23:18.812Z</time>
      </trkpt>
      <trkpt lat="44.30947" lon="5.22654">
        <ele>872.7</ele>
        <time>2021-05-23T15:23:38.812Z</time>
      </trkpt>
      <trkpt lat="44.31008" lon="5.22499">
        <ele>858.1</ele>
        <time>2021-05-23T15:23:58.812Z</time>
      </trkpt>
      <trkpt lat="44.31291" lon="5.22259">
        <ele>834.6</ele>
        <time>2021-05-23T15:24:18.812Z</time>
      </trkpt>
      <trkpt lat="44.3145" lon="5.22259">
        <ele>822.5</ele>
        <time>2021-05-23T15:24:38.812Z</time>
      </trkpt>
      <trkpt lat="44.31512" lon="5.22225">
        <ele>813.9</ele>
        <time>2021-05-23T15:24:58.812Z</time>
      </trkpt>
      <trkpt lat="44.31561" lon="5.22276">
        <ele>808.4</ele>
        <time>2021-05-23T15:25:18.812Z</time>
      </trkpt>
      <trkpt lat="44.31548" lon="5.22139">
        <ele>801.7</ele>
        <time>2021-05-23T15:25:38.812Z</time>
      </trkpt>
      <trkpt lat="44.31573" lon="5.22104">
        <ele>796.6</ele>
        <time>2021-05-23T15:25:58.812Z</time>
      </trkpt>
      <trkpt lat="44.31622" lon="5.22104">
        <ele>781.7</ele>
        <time>2021-05-23T15:26:18.812Z</time>
      </trkpt>
      <trkpt lat="44.31634" lon="5.22122">
        <ele>776.4</ele>
        <time>2021-05-23T15:26:38.812Z</time>
      </trkpt>
      <trkpt lat="44.31647" lon="5.22104">
        <ele>772.2</ele>
        <time>2021-05-23T15:26:58.812Z</time>
      </trkpt>
      <trkpt lat="44.31659" lon="5.22156">
        <ele>766</ele>
        <time>2021-05-23T15:27:18.812Z</time>
      </trkpt>
      <trkpt lat="44.31684" lon="5.22122">
        <ele>758.3</ele>
        <time>2021-05-23T15:27:38.812Z</time>
      </trkpt>
      <trkpt lat="44.31733" lon="5.22328">
        <ele>749.8</ele>
        <time>2021-05-23T15:27:58.812Z</time>
      </trkpt>
      <trkpt lat="44.31757" lon="5.22362">
        <ele>746.7</ele>
        <time>2021-05-23T15:28:18.812Z</time>
      </trkpt>
      <trkpt lat="44.3188" lon="5.22276">
        <ele>749.7</ele>
        <time>2021-05-23T15:28:38.812Z</time>
      </trkpt>
      <trkpt lat="44.31929" lon="5.22156">
        <ele>737.1</ele>
        <time>2021-05-23T15:28:58.812Z</time>
      </trkpt>
      <trkpt lat="44.31966" lon="5.22104">
        <ele>730.7</ele>
        <time>2021-05-23T15:29:18.812Z</time>
      </trkpt>
      <trkpt lat="44.32187" lon="5.21916">
        <ele>725.9</ele>
        <time>2021-05-23T15:29:38.812Z</time>
      </trkpt>
      <trkpt lat="44.32298" lon="5.21916">
        <ele>737.3</ele>
        <time>2021-05-23T15:29:58.812Z</time>
      </trkpt>
      <trkpt lat="44.32384" lon="5.2195">
        <ele>735</ele>
        <time>2021-05-23T15:30:18.812Z</time>
      </trkpt>
      <trkpt lat="44.32568" lon="5.22396">
        <ele>715.2</ele>
        <time>2021-05-23T15:30:38.812Z</time>
      </trkpt>
      <trkpt lat="44.32556" lon="5.22448">
        <ele>714.3</ele>
        <time>2021-05-23T15:30:58.812Z</time>
      </trkpt>
      <trkpt lat="44.32494" lon="5.22516">
        <ele>716.5</ele>
        <time>2021-05-23T15:31:18.812Z</time>
      </trkpt>
      <trkpt lat="44.3247" lon="5.22585">
        <ele>707.6</ele>
        <time>2021-05-23T15:31:38.812Z</time>
      </trkpt>
      <trkpt lat="44.32457" lon="5.22722">
        <ele>699.2</ele>
        <time>2021-05-23T15:31:58.812Z</time>
      </trkpt>
      <trkpt lat="44.3242" lon="5.22757">
        <ele>701.5</ele>
        <time>2021-05-23T15:32:18.812Z</time>
      </trkpt>
      <trkpt lat="44.32408" lon="5.22825">
        <ele>691.9</ele>
        <time>2021-05-23T15:32:38.812Z</time>
      </trkpt>
      <trkpt lat="44.32556" lon="5.2286">
        <ele>689.6</ele>
        <time>2021-05-23T15:32:58.812Z</time>
      </trkpt>
      <trkpt lat="44.32666" lon="5.22843">
        <ele>687.9</ele>
        <time>2021-05-23T15:33:18.812Z</time>
      </trkpt>
      <trkpt lat="44.32899" lon="5.22911">
        <ele>701.3</ele>
        <time>2021-05-23T15:33:38.812Z</time>
      </trkpt>
      <trkpt lat="44.32936" lon="5.22946">
        <ele>700.7</ele>
        <time>2021-05-23T15:33:58.812Z</time>
      </trkpt>
      <trkpt lat="44.33206" lon="5.23563">
        <ele>717.8</ele>
        <time>2021-05-23T15:34:18.812Z</time>
      </trkpt>
      <trkpt lat="44.33182" lon="5.23615">
        <ele>719.5</ele>
        <time>2021-05-23T15:34:38.812Z</time>
      </trkpt>
      <trkpt lat="44.33194" lon="5.23632">
        <ele>718.4</ele>
        <time>2021-05-23T15:34:58.812Z</time>
      </trkpt>
      <trkpt lat="44.33133" lon="5.23632">
        <ele>707.1</ele>
        <time>2021-05-23T15:35:18.812Z</time>
      </trkpt>
      <trkpt lat="44.33145" lon="5.23649">
        <ele>705.1</ele>
        <time>2021-05-23T15:35:38.812Z</time>
      </trkpt>
      <trkpt lat="44.33096" lon="5.23684">
        <ele>693.9</ele>
        <time>2021-05-23T15:35:58.812Z</time>
      </trkpt>
      <trkpt lat="44.33084" lon="5.23787">
        <ele>681.2</ele>
        <time>2021-05-23T15:36:18.812Z</time>
      </trkpt>
      <trkpt lat="44.33022" lon="5.23924">
        <ele>664</ele>
        <time>2021-05-23T15:36:38.812Z</time>
      </trkpt>
      <trkpt lat="44.33096" lon="5.23958">
        <ele>661.3</ele>
        <time>2021-05-23T15:36:58.812Z</time>
      </trkpt>
      <trkpt lat="44.33108" lon="5.23941">
        <ele>663.3</ele>
        <time>2021-05-23T15:37:18.812Z</time>
      </trkpt>
      <trkpt lat="44.33108" lon="5.23907">
        <ele>667</ele>
        <time>2021-05-23T15:37:38.812Z</time>
      </trkpt>
      <trkpt lat="44.33133" lon="5.23907">
        <ele>664.3</ele>
        <time>2021-05-23T15:37:58.812Z</time>
      </trkpt>
      <trkpt lat="44.33219" lon="5.2401">
        <ele>651.9</ele>
        <time>2021-05-23T15:38:18.812Z</time>
      </trkpt>
      <trkpt lat="44.33391" lon="5.24061">
        <ele>645.7</ele>
        <time>2021-05-23T15:38:38.812Z</time>
      </trkpt>
      <trkpt lat="44.33489" lon="5.24164">
        <ele>625.8</ele>
        <time>2021-05-23T15:38:58.812Z</time>
      </trkpt>
      <trkpt lat="44.33599" lon="5.24199">
        <ele>618.1</ele>
        <time>2021-05-23T15:39:18.812Z</time>
      </trkpt>
      <trkpt lat="44.33538" lon="5.24233">
        <ele>607.3</ele>
        <time>2021-05-23T15:39:38.812Z</time>
      </trkpt>
      <trkpt lat="44.33403" lon="5.24199">
        <ele>603</ele>
        <time>2021-05-23T15:39:58.812Z</time>
      </trkpt>
      <trkpt lat="44.33366" lon="5.24181">
        <ele>602.6</ele>
        <time>2021-05-23T15:40:18.812Z</time>
      </trkpt>
      <trkpt lat="44.33341" lon="5.24199">
        <ele>602.9</ele>
        <time>2021-05-23T15:40:38.812Z</time>
      </trkpt>
      <trkpt lat="44.3344" lon="5.24336">
        <ele>591.9</ele>
        <time>2021-05-23T15:40:58.812Z</time>
      </trkpt>
      <trkpt lat="44.33452" lon="5.24387">
        <ele>590.8</ele>
        <time>2021-05-23T15:41:18.812Z</time>
      </trkpt>
      <trkpt lat="44.33624" lon="5.24508">
        <ele>576.7</ele>
        <time>2021-05-23T15:41:38.812Z</time>
      </trkpt>
      <trkpt lat="44.33612" lon="5.24525">
        <ele>578.1</ele>
        <time>2021-05-23T15:41:58.812Z</time>
      </trkpt>
      <trkpt lat="44.33403" lon="5.24473">
        <ele>563.7</ele>
        <time>2021-05-23T15:42:18.812Z</time>
      </trkpt>
      <trkpt lat="44.33329" lon="5.2449">
        <ele>557.5</ele>
        <time>2021-05-23T15:42:38.812Z</time>
      </trkpt>
      <trkpt lat="44.3355" lon="5.24611">
        <ele>537.5</ele>
        <time>2021-05-23T15:42:58.812Z</time>
      </trkpt>
      <trkpt lat="44.33599" lon="5.24679">
        <ele>530.4</ele>
        <time>2021-05-23T15:43:18.812Z</time>
      </trkpt>
      <trkpt lat="44.33648" lon="5.24765">
        <ele>525.3</ele>
        <time>2021-05-23T15:43:38.812Z</time>
      </trkpt>
      <trkpt lat="44.33722" lon="5.24817">
        <ele>518.5</ele>
        <time>2021-05-23T15:43:58.812Z</time>
      </trkpt>
      <trkpt lat="44.33906" lon="5.2492">
        <ele>500.4</ele>
        <time>2021-05-23T15:44:18.812Z</time>
      </trkpt>
      <trkpt lat="44.33968" lon="5.2492">
        <ele>495.7</ele>
        <time>2021-05-23T15:44:38.812Z</time>
      </trkpt>
      <trkpt lat="44.34127" lon="5.24988">
        <ele>480.5</ele>
        <time>2021-05-23T15:44:58.812Z</time>
      </trkpt>
      <trkpt lat="44.34176" lon="5.24954">
        <ele>484.9</ele>
        <time>2021-05-23T15:45:18.812Z</time>
      </trkpt>
      <trkpt lat="44.34262" lon="5.2504">
        <ele>489.7</ele>
        <time>2021-05-23T15:45:38.812Z</time>
      </trkpt>
      <trkpt lat="44.34324" lon="5.25211">
        <ele>483.3</ele>
        <time>2021-05-23T15:45:58.812Z</time>
      </trkpt>
      <trkpt lat="44.34373" lon="5.25366">
        <ele>479.8</ele>
        <time>2021-05-23T15:46:18.812Z</time>
      </trkpt>
      <trkpt lat="44.34324" lon="5.25452">
        <ele>479.2</ele>
        <time>2021-05-23T15:46:38.812Z</time>
      </trkpt>
      <trkpt lat="44.34311" lon="5.25658">
        <ele>481.8</ele>
        <time>2021-05-23T15:46:58.812Z</time>
      </trkpt>
      <trkpt lat="44.34238" lon="5.25778">
        <ele>472.9</ele>
        <time>2021-05-23T15:47:18.812Z</time>
      </trkpt>
      <trkpt lat="44.3425" lon="5.25967">
        <ele>476.3</ele>
        <time>2021-05-23T15:47:38.812Z</time>
      </trkpt>
      <trkpt lat="44.34225" lon="5.26087">
        <ele>468.3</ele>
        <time>2021-05-23T15:47:58.812Z</time>
      </trkpt>
      <trkpt lat="44.34201" lon="5.26087">
        <ele>464.5</ele>
        <time>2021-05-23T15:48:18.812Z</time>
      </trkpt>
      <trkpt lat="44.34066" lon="5.26362">
        <ele>454.7</ele>
        <time>2021-05-23T15:48:38.812Z</time>
      </trkpt>
      <trkpt lat="44.34078" lon="5.26482">
        <ele>449.5</ele>
        <time>2021-05-23T15:48:58.812Z</time>
      </trkpt>
      <trkpt lat="44.34139" lon="5.26585">
        <ele>449</ele>
        <time>2021-05-23T15:49:18.812Z</time>
      </trkpt>
      <trkpt lat="44.34139" lon="5.26653">
        <ele>444.8</ele>
        <time>2021-05-23T15:49:38.812Z</time>
      </trkpt>
      <trkpt lat="44.34127" lon="5.26722">
        <ele>442.5</ele>
        <time>2021-05-23T15:49:58.812Z</time>
      </trkpt>
      <trkpt lat="44.34127" lon="5.26945">
        <ele>437</ele>
        <time>2021-05-23T15:50:18.812Z</time>
      </trkpt>
      <trkpt lat="44.3409" lon="5.27031">
        <ele>434.1</ele>
        <time>2021-05-23T15:50:38.812Z</time>
      </trkpt>
      <trkpt lat="44.34103" lon="5.27117">
        <ele>433.5</ele>
        <time>2021-05-23T15:50:58.812Z</time>
      </trkpt>
      <trkpt lat="44.3409" lon="5.27186">
        <ele>426.3</ele>
        <time>2021-05-23T15:51:18.812Z</time>
      </trkpt>
      <trkpt lat="44.34103" lon="5.27271">
        <ele>427.1</ele>
        <time>2021-05-23T15:51:38.812Z</time>
      </trkpt>
      <trkpt lat="44.3425" lon="5.27495">
        <ele>426.5</ele>
        <time>2021-05-23T15:51:58.812Z</time>
      </trkpt>
      <trkpt lat="44.34348" lon="5.27804">
        <ele>417.4</ele>
        <time>2021-05-23T15:52:18.812Z</time>
      </trkpt>
      <trkpt lat="44.34397" lon="5.27838">
        <ele>418.5</ele>
        <time>2021-05-23T15:52:38.812Z</time>
      </trkpt>
      <trkpt lat="44.34471" lon="5.27975">
        <ele>415</ele>
        <time>2021-05-23T15:53:07.345Z</time>
      </trkpt>
      <trkpt lat="44.34452" lon="5.28099">
        <ele>407.3</ele>
        <time>2021-05-23T15:53:28.458Z</time>
      </trkpt>
      <trkpt lat="44.34432" lon="5.28223">
        <ele>404.6</ele>
        <time>2021-05-23T15:53:49.571Z</time>
      </trkpt>
      <trkpt lat="44.34431" lon="5.28232">
        <ele>404.2</ele>
        <time>2021-05-23T15:53:51.024Z</time>
      </trkpt>
      <trkpt lat="44.34456" lon="5.28271">
        <ele>403.1</ele>
        <time>2021-05-23T15:53:59.382Z</time>
      </trkpt>
      <trkpt lat="44.34481" lon="5.28309">
        <ele>404.8</ele>
        <time>2021-05-23T15:54:07.852Z</time>
      </trkpt>
      <trkpt lat="44.3453" lon="5.28295">
        <ele>406.3</ele>
        <time>2021-05-23T15:54:19.009Z</time>
      </trkpt>
      <trkpt lat="44.34578" lon="5.28281">
        <ele>405.8</ele>
        <time>2021-05-23T15:54:29.299Z</time>
      </trkpt>
      <trkpt lat="44.34656" lon="5.28299">
        <ele>404.9</ele>
        <time>2021-05-23T15:54:45.656Z</time>
      </trkpt>
      <trkpt lat="44.34733" lon="5.28316">
        <ele>409.4</ele>
        <time>2021-05-23T15:55:00.244Z</time>
      </trkpt>
      <trkpt lat="44.34779" lon="5.28293">
        <ele>404.6</ele>
        <time>2021-05-23T15:55:09.312Z</time>
      </trkpt>
      <trkpt lat="44.34825" lon="5.28271">
        <ele>413.6</ele>
        <time>2021-05-23T15:55:18.380Z</time>
      </trkpt>
      <trkpt lat="44.34902" lon="5.28204">
        <ele>425.6</ele>
        <time>2021-05-23T15:55:35.271Z</time>
      </trkpt>
      <trkpt lat="44.3498" lon="5.28138">
        <ele>420.6</ele>
        <time>2021-05-23T15:55:52.162Z</time>
      </trkpt>
      <trkpt lat="44.35057" lon="5.28071">
        <ele>417.4</ele>
        <time>2021-05-23T15:56:09.053Z</time>
      </trkpt>
      <trkpt lat="44.35135" lon="5.28005">
        <ele>421.9</ele>
        <time>2021-05-23T15:56:25.944Z</time>
      </trkpt>
      <trkpt lat="44.35199" lon="5.27949">
        <ele>423.1</ele>
        <time>2021-05-23T15:56:40.093Z</time>
      </trkpt>
      <trkpt lat="44.35289" lon="5.2793">
        <ele>450.5</ele>
        <time>2021-05-23T15:56:56.983Z</time>
      </trkpt>
      <trkpt lat="44.35379" lon="5.27911">
        <ele>481.2</ele>
        <time>2021-05-23T15:57:09.886Z</time>
      </trkpt>
      <trkpt lat="44.35469" lon="5.27893">
        <ele>492.7</ele>
        <time>2021-05-23T15:57:22.788Z</time>
      </trkpt>
      <trkpt lat="44.35559" lon="5.27874">
        <ele>498.4</ele>
        <time>2021-05-23T15:57:35.690Z</time>
      </trkpt>
      <trkpt lat="44.35649" lon="5.27855">
        <ele>511.5</ele>
        <time>2021-05-23T15:57:48.592Z</time>
      </trkpt>
      <trkpt lat="44.35739" lon="5.27837">
        <ele>535</ele>
        <time>2021-05-23T15:58:01.494Z</time>
      </trkpt>
      <trkpt lat="44.35828" lon="5.27818">
        <ele>555.4</ele>
        <time>2021-05-23T15:58:14.396Z</time>
      </trkpt>
      <trkpt lat="44.35859" lon="5.27812">
        <ele>553.8</ele>
        <time>2021-05-23T15:58:18.819Z</time>
      </trkpt>
      <trkpt lat="44.35859" lon="5.27939">
        <ele>574.4</ele>
        <time>2021-05-23T15:58:31.721Z</time>
      </trkpt>
      <trkpt lat="44.35859" lon="5.28066">
        <ele>585.1</ele>
        <time>2021-05-23T15:58:46.779Z</time>
      </trkpt>
      <trkpt lat="44.35859" lon="5.28193">
        <ele>589.2</ele>
        <time>2021-05-23T15:59:01.837Z</time>
      </trkpt>
      <trkpt lat="44.35859" lon="5.2832">
        <ele>592.8</ele>
        <time>2021-05-23T15:59:16.895Z</time>
      </trkpt>
      <trkpt lat="44.35859" lon="5.28447">
        <ele>602.5</ele>
        <time>2021-05-23T15:59:31.953Z</time>
      </trkpt>
      <trkpt lat="44.35859" lon="5.28574">
        <ele>606.4</ele>
        <time>2021-05-23T15:59:47.011Z</time>
      </trkpt>
      <trkpt lat="44.35858" lon="5.28701">
        <ele>609.3</ele>
        <time>2021-05-23T16:00:02.069Z</time>
      </trkpt>
      <trkpt lat="44.35858" lon="5.28828">
        <ele>606.1</ele>
        <time>2021-05-23T16:00:17.127Z</time>
      </trkpt>
      <trkpt lat="44.35858" lon="5.28955">
        <ele>603.8</ele>
        <time>2021-05-23T16:00:32.185Z</time>
      </trkpt>
      <trkpt lat="44.35858" lon="5.29082">
        <ele>607.4</ele>
        <time>2021-05-23T16:00:47.243Z</time>
      </trkpt>
      <trkpt lat="44.35858" lon="5.29125">
        <ele>611.4</ele>
        <time>2021-05-23T16:00:52.347Z</time>
      </trkpt>
      <trkpt lat="44.35919" lon="5.29194">
        <ele>616.8</ele>
        <time>2021-05-23T16:01:05.353Z</time>
      </trkpt>
      <trkpt lat="44.36079" lon="5.294">
        <ele>591.8</ele>
        <time>2021-05-23T16:01:25.353Z</time>
      </trkpt>
      <trkpt lat="44.36189" lon="5.29451">
        <ele>575.7</ele>
        <time>2021-05-23T16:01:45.353Z</time>
      </trkpt>
      <trkpt lat="44.36361" lon="5.29469">
        <ele>566.3</ele>
        <time>2021-05-23T16:02:05.353Z</time>
      </trkpt>
      <trkpt lat="44.36423" lon="5.29417">
        <ele>557.5</ele>
        <time>2021-05-23T16:02:25.353Z</time>
      </trkpt>
      <trkpt lat="44.36558" lon="5.29451">
        <ele>553.6</ele>
        <time>2021-05-23T16:02:45.353Z</time>
      </trkpt>
      <trkpt lat="44.36508" lon="5.29348">
        <ele>547</ele>
        <time>2021-05-23T16:03:05.353Z</time>
      </trkpt>
      <trkpt lat="44.36508" lon="5.2928">
        <ele>556.5</ele>
        <time>2021-05-23T16:03:25.353Z</time>
      </trkpt>
      <trkpt lat="44.36459" lon="5.29245">
        <ele>558.2</ele>
        <time>2021-05-23T16:03:45.353Z</time>
      </trkpt>
      <trkpt lat="44.36324" lon="5.29263">
        <ele>551.5</ele>
        <time>2021-05-23T16:04:05.353Z</time>
      </trkpt>
      <trkpt lat="44.36312" lon="5.29211">
        <ele>563.9</ele>
        <time>2021-05-23T16:04:25.353Z</time>
      </trkpt>
      <trkpt lat="44.36337" lon="5.29091">
        <ele>564.8</ele>
        <time>2021-05-23T16:04:45.353Z</time>
      </trkpt>
      <trkpt lat="44.36324" lon="5.28919">
        <ele>556</ele>
        <time>2021-05-23T16:05:05.353Z</time>
      </trkpt>
      <trkpt lat="44.3641" lon="5.28954">
        <ele>563.2</ele>
        <time>2021-05-23T16:05:25.353Z</time>
      </trkpt>
      <trkpt lat="44.36447" lon="5.28919">
        <ele>563.1</ele>
        <time>2021-05-23T16:05:45.353Z</time>
      </trkpt>
      <trkpt lat="44.36459" lon="5.28885">
        <ele>561.3</ele>
        <time>2021-05-23T16:06:05.353Z</time>
      </trkpt>
      <trkpt lat="44.36508" lon="5.28833">
        <ele>562.7</ele>
        <time>2021-05-23T16:06:25.353Z</time>
      </trkpt>
      <trkpt lat="44.36619" lon="5.28799">
        <ele>558.5</ele>
        <time>2021-05-23T16:06:45.353Z</time>
      </trkpt>
      <trkpt lat="44.3657" lon="5.28696">
        <ele>550</ele>
        <time>2021-05-23T16:07:05.353Z</time>
      </trkpt>
      <trkpt lat="44.36594" lon="5.28524">
        <ele>537.7</ele>
        <time>2021-05-23T16:07:25.353Z</time>
      </trkpt>
      <trkpt lat="44.36631" lon="5.28456">
        <ele>534</ele>
        <time>2021-05-23T16:07:45.353Z</time>
      </trkpt>
      <trkpt lat="44.36619" lon="5.28387">
        <ele>535.6</ele>
        <time>2021-05-23T16:08:05.353Z</time>
      </trkpt>
      <trkpt lat="44.36594" lon="5.28387">
        <ele>535</ele>
        <time>2021-05-23T16:08:25.353Z</time>
      </trkpt>
      <trkpt lat="44.36386" lon="5.28181">
        <ele>529.1</ele>
        <time>2021-05-23T16:08:45.353Z</time>
      </trkpt>
      <trkpt lat="44.36398" lon="5.28113">
        <ele>532.7</ele>
        <time>2021-05-23T16:09:05.353Z</time>
      </trkpt>
      <trkpt lat="44.36373" lon="5.28061">
        <ele>532.1</ele>
        <time>2021-05-23T16:09:25.353Z</time>
      </trkpt>
      <trkpt lat="44.36373" lon="5.27992">
        <ele>537.7</ele>
        <time>2021-05-23T16:09:45.353Z</time>
      </trkpt>
      <trkpt lat="44.3641" lon="5.27907">
        <ele>536.6</ele>
        <time>2021-05-23T16:10:05.353Z</time>
      </trkpt>
      <trkpt lat="44.3641" lon="5.27786">
        <ele>534.5</ele>
        <time>2021-05-23T16:10:25.353Z</time>
      </trkpt>
      <trkpt lat="44.36435" lon="5.27718">
        <ele>534.7</ele>
        <time>2021-05-23T16:10:45.353Z</time>
      </trkpt>
      <trkpt lat="44.36472" lon="5.27701">
        <ele>542.7</ele>
        <time>2021-05-23T16:11:05.353Z</time>
      </trkpt>
      <trkpt lat="44.36484" lon="5.27598">
        <ele>538.7</ele>
        <time>2021-05-23T16:11:25.353Z</time>
      </trkpt>
      <trkpt lat="44.36398" lon="5.27409">
        <ele>552.4</ele>
        <time>2021-05-23T16:11:45.353Z</time>
      </trkpt>
      <trkpt lat="44.36361" lon="5.2722">
        <ele>560.9</ele>
        <time>2021-05-23T16:12:05.353Z</time>
      </trkpt>
      <trkpt lat="44.36496" lon="5.27014">
        <ele>546</ele>
        <time>2021-05-23T16:12:25.353Z</time>
      </trkpt>
      <trkpt lat="44.36619" lon="5.26962">
        <ele>543.2</ele>
        <time>2021-05-23T16:12:45.353Z</time>
      </trkpt>
      <trkpt lat="44.36656" lon="5.26962">
        <ele>537.8</ele>
        <time>2021-05-23T16:13:05.353Z</time>
      </trkpt>
      <trkpt lat="44.36717" lon="5.27065">
        <ele>535.6</ele>
        <time>2021-05-23T16:13:25.353Z</time>
      </trkpt>
      <trkpt lat="44.36877" lon="5.27117">
        <ele>525.1</ele>
        <time>2021-05-23T16:13:45.353Z</time>
      </trkpt>
      <trkpt lat="44.36963" lon="5.27065">
        <ele>521.4</ele>
        <time>2021-05-23T16:14:05.353Z</time>
      </trkpt>
      <trkpt lat="44.37024" lon="5.26911">
        <ele>514.3</ele>
        <time>2021-05-23T16:14:25.353Z</time>
      </trkpt>
      <trkpt lat="44.37036" lon="5.271">
        <ele>504.1</ele>
        <time>2021-05-23T16:14:45.353Z</time>
      </trkpt>
      <trkpt lat="44.37097" lon="5.27254">
        <ele>491.3</ele>
        <time>2021-05-23T16:15:05.353Z</time>
      </trkpt>
      <trkpt lat="44.37097" lon="5.27374">
        <ele>489.5</ele>
        <time>2021-05-23T16:15:25.353Z</time>
      </trkpt>
      <trkpt lat="44.37147" lon="5.27477">
        <ele>483.2</ele>
        <time>2021-05-23T16:15:45.353Z</time>
      </trkpt>
      <trkpt lat="44.37183" lon="5.27409">
        <ele>480.8</ele>
        <time>2021-05-23T16:16:05.353Z</time>
      </trkpt>
      <trkpt lat="44.37245" lon="5.27357">
        <ele>492.8</ele>
        <time>2021-05-23T16:16:25.353Z</time>
      </trkpt>
      <trkpt lat="44.37257" lon="5.27289">
        <ele>492.5</ele>
        <time>2021-05-23T16:16:45.353Z</time>
      </trkpt>
      <trkpt lat="44.37367" lon="5.27203">
        <ele>507.7</ele>
        <time>2021-05-23T16:17:05.353Z</time>
      </trkpt>
      <trkpt lat="44.37355" lon="5.27151">
        <ele>504</ele>
        <time>2021-05-23T16:17:25.353Z</time>
      </trkpt>
      <trkpt lat="44.37367" lon="5.27117">
        <ele>503.9</ele>
        <time>2021-05-23T16:17:45.353Z</time>
      </trkpt>
      <trkpt lat="44.37515" lon="5.27031">
        <ele>521.1</ele>
        <time>2021-05-23T16:18:05.353Z</time>
      </trkpt>
      <trkpt lat="44.37551" lon="5.26962">
        <ele>524.9</ele>
        <time>2021-05-23T16:18:25.353Z</time>
      </trkpt>
      <trkpt lat="44.37588" lon="5.26945">
        <ele>528.4</ele>
        <time>2021-05-23T16:18:45.353Z</time>
      </trkpt>
      <trkpt lat="44.37601" lon="5.27014">
        <ele>533.9</ele>
        <time>2021-05-23T16:19:05.353Z</time>
      </trkpt>
      <trkpt lat="44.37515" lon="5.27168">
        <ele>546.5</ele>
        <time>2021-05-23T16:19:25.353Z</time>
      </trkpt>
      <trkpt lat="44.37564" lon="5.27168">
        <ele>554.2</ele>
        <time>2021-05-23T16:19:45.353Z</time>
      </trkpt>
      <trkpt lat="44.37662" lon="5.27271">
        <ele>560.1</ele>
        <time>2021-05-23T16:20:05.353Z</time>
      </trkpt>
      <trkpt lat="44.37723" lon="5.2722">
        <ele>566</ele>
        <time>2021-05-23T16:20:25.353Z</time>
      </trkpt>
      <trkpt lat="44.37772" lon="5.27237">
        <ele>573.5</ele>
        <time>2021-05-23T16:20:45.353Z</time>
      </trkpt>
      <trkpt lat="44.37711" lon="5.27357">
        <ele>581</ele>
        <time>2021-05-23T16:21:05.353Z</time>
      </trkpt>
      <trkpt lat="44.37662" lon="5.27392">
        <ele>583.7</ele>
        <time>2021-05-23T16:21:25.353Z</time>
      </trkpt>
      <trkpt lat="44.37601" lon="5.27563">
        <ele>596.3</ele>
        <time>2021-05-23T16:21:45.353Z</time>
      </trkpt>
      <trkpt lat="44.37588" lon="5.27615">
        <ele>598.9</ele>
        <time>2021-05-23T16:22:05.353Z</time>
      </trkpt>
      <trkpt lat="44.37625" lon="5.27701">
        <ele>608</ele>
        <time>2021-05-23T16:22:25.353Z</time>
      </trkpt>
      <trkpt lat="44.37637" lon="5.27718">
        <ele>611.4</ele>
        <time>2021-05-23T16:22:45.353Z</time>
      </trkpt>
      <trkpt lat="44.37686" lon="5.27632">
        <ele>618.5</ele>
        <time>2021-05-23T16:23:05.353Z</time>
      </trkpt>
      <trkpt lat="44.37883" lon="5.27563">
        <ele>637.5</ele>
        <time>2021-05-23T16:23:25.353Z</time>
      </trkpt>
      <trkpt lat="44.3792" lon="5.27512">
        <ele>642.7</ele>
        <time>2021-05-23T16:23:45.353Z</time>
      </trkpt>
      <trkpt lat="44.3792" lon="5.27598">
        <ele>648.5</ele>
        <time>2021-05-23T16:24:05.353Z</time>
      </trkpt>
      <trkpt lat="44.38091" lon="5.27872">
        <ele>669.6</ele>
        <time>2021-05-23T16:24:25.353Z</time>
      </trkpt>
      <trkpt lat="44.38104" lon="5.27821">
        <ele>666.8</ele>
        <time>2021-05-23T16:24:45.353Z</time>
      </trkpt>
      <trkpt lat="44.38349" lon="5.27649">
        <ele>689.8</ele>
        <time>2021-05-23T16:25:05.353Z</time>
      </trkpt>
      <trkpt lat="44.38423" lon="5.27701">
        <ele>705.3</ele>
        <time>2021-05-23T16:25:25.353Z</time>
      </trkpt>
      <trkpt lat="44.38508" lon="5.27683">
        <ele>710.2</ele>
        <time>2021-05-23T16:25:45.353Z</time>
      </trkpt>
      <trkpt lat="44.38545" lon="5.27632">
        <ele>713.1</ele>
        <time>2021-05-23T16:26:05.353Z</time>
      </trkpt>
      <trkpt lat="44.38533" lon="5.27563">
        <ele>709.8</ele>
        <time>2021-05-23T16:26:25.353Z</time>
      </trkpt>
      <trkpt lat="44.38594" lon="5.27546">
        <ele>719.9</ele>
        <time>2021-05-23T16:26:45.353Z</time>
      </trkpt>
      <trkpt lat="44.38607" lon="5.27529">
        <ele>721.3</ele>
        <time>2021-05-23T16:27:05.353Z</time>
      </trkpt>
      <trkpt lat="44.38778" lon="5.27512">
        <ele>730.5</ele>
        <time>2021-05-23T16:27:25.353Z</time>
      </trkpt>
      <trkpt lat="44.3884" lon="5.27477">
        <ele>732.5</ele>
        <time>2021-05-23T16:27:45.353Z</time>
      </trkpt>
      <trkpt lat="44.38962" lon="5.27495">
        <ele>744.9</ele>
        <time>2021-05-23T16:28:05.353Z</time>
      </trkpt>
      <trkpt lat="44.3911" lon="5.27426">
        <ele>753.6</ele>
        <time>2021-05-23T16:28:25.353Z</time>
      </trkpt>
      <trkpt lat="44.39171" lon="5.27357">
        <ele>757.4</ele>
        <time>2021-05-23T16:28:45.353Z</time>
      </trkpt>
      <trkpt lat="44.39244" lon="5.27392">
        <ele>761.9</ele>
        <time>2021-05-23T16:29:05.353Z</time>
      </trkpt>
      <trkpt lat="44.39232" lon="5.27323">
        <ele>763</ele>
        <time>2021-05-23T16:29:25.353Z</time>
      </trkpt>
      <trkpt lat="44.39257" lon="5.27271">
        <ele>767.6</ele>
        <time>2021-05-23T16:29:45.353Z</time>
      </trkpt>
      <trkpt lat="44.3933" lon="5.27289">
        <ele>764.7</ele>
        <time>2021-05-23T16:30:05.353Z</time>
      </trkpt>
      <trkpt lat="44.39465" lon="5.27186">
        <ele>758</ele>
        <time>2021-05-23T16:30:25.353Z</time>
      </trkpt>
      <trkpt lat="44.39465" lon="5.27014">
        <ele>752.3</ele>
        <time>2021-05-23T16:30:45.353Z</time>
      </trkpt>
      <trkpt lat="44.3949" lon="5.26928">
        <ele>753.2</ele>
        <time>2021-05-23T16:31:05.353Z</time>
      </trkpt>
      <trkpt lat="44.39527" lon="5.26894">
        <ele>762.7</ele>
        <time>2021-05-23T16:31:25.353Z</time>
      </trkpt>
      <trkpt lat="44.39514" lon="5.26791">
        <ele>759</ele>
        <time>2021-05-23T16:31:45.353Z</time>
      </trkpt>
      <trkpt lat="44.3976" lon="5.26894">
        <ele>764.4</ele>
        <time>2021-05-23T16:32:05.353Z</time>
      </trkpt>
      <trkpt lat="44.39907" lon="5.26911">
        <ele>754.3</ele>
        <time>2021-05-23T16:32:25.353Z</time>
      </trkpt>
      <trkpt lat="44.39956" lon="5.2698">
        <ele>751.8</ele>
        <time>2021-05-23T16:32:45.353Z</time>
      </trkpt>
      <trkpt lat="44.39993" lon="5.27117">
        <ele>761.4</ele>
        <time>2021-05-23T16:33:05.353Z</time>
      </trkpt>
      <trkpt lat="44.40042" lon="5.27151">
        <ele>758.9</ele>
        <time>2021-05-23T16:33:25.353Z</time>
      </trkpt>
      <trkpt lat="44.40079" lon="5.27271">
        <ele>761.1</ele>
        <time>2021-05-23T16:33:45.353Z</time>
      </trkpt>
      <trkpt lat="44.40213" lon="5.27306">
        <ele>764.3</ele>
        <time>2021-05-23T16:34:05.353Z</time>
      </trkpt>
      <trkpt lat="44.40287" lon="5.27289">
        <ele>756.6</ele>
        <time>2021-05-23T16:34:25.353Z</time>
      </trkpt>
      <trkpt lat="44.40287" lon="5.27271">
        <ele>751.1</ele>
        <time>2021-05-23T16:34:45.353Z</time>
      </trkpt>
      <trkpt lat="44.40152" lon="5.27203">
        <ele>739.3</ele>
        <time>2021-05-23T16:35:05.353Z</time>
      </trkpt>
      <trkpt lat="44.40091" lon="5.27203">
        <ele>740.1</ele>
        <time>2021-05-23T16:35:25.353Z</time>
      </trkpt>
      <trkpt lat="44.40091" lon="5.26928">
        <ele>716.2</ele>
        <time>2021-05-23T16:35:45.353Z</time>
      </trkpt>
      <trkpt lat="44.40029" lon="5.2698">
        <ele>717.3</ele>
        <time>2021-05-23T16:36:05.353Z</time>
      </trkpt>
      <trkpt lat="44.39956" lon="5.26739">
        <ele>691.3</ele>
        <time>2021-05-23T16:36:25.353Z</time>
      </trkpt>
      <trkpt lat="44.39858" lon="5.26671">
        <ele>682.8</ele>
        <time>2021-05-23T16:36:45.353Z</time>
      </trkpt>
      <trkpt lat="44.39968" lon="5.26636">
        <ele>667.7</ele>
        <time>2021-05-23T16:37:05.353Z</time>
      </trkpt>
      <trkpt lat="44.40042" lon="5.26756">
        <ele>653.3</ele>
        <time>2021-05-23T16:37:25.353Z</time>
      </trkpt>
      <trkpt lat="44.4014" lon="5.26585">
        <ele>632.8</ele>
        <time>2021-05-23T16:37:45.353Z</time>
      </trkpt>
      <trkpt lat="44.40226" lon="5.26516">
        <ele>618.5</ele>
        <time>2021-05-23T16:38:05.353Z</time>
      </trkpt>
      <trkpt lat="44.40299" lon="5.26619">
        <ele>599.4</ele>
        <time>2021-05-23T16:38:25.353Z</time>
      </trkpt>
      <trkpt lat="44.40361" lon="5.26774">
        <ele>581.2</ele>
        <time>2021-05-23T16:38:45.353Z</time>
      </trkpt>
      <trkpt lat="44.40373" lon="5.26671">
        <ele>554.4</ele>
        <time>2021-05-23T16:39:05.353Z</time>
      </trkpt>
      <trkpt lat="44.40324" lon="5.26516">
        <ele>550.3</ele>
        <time>2021-05-23T16:39:25.353Z</time>
      </trkpt>
      <trkpt lat="44.40324" lon="5.26465">
        <ele>547.9</ele>
        <time>2021-05-23T16:39:45.353Z</time>
      </trkpt>
      <trkpt lat="44.40385" lon="5.26585">
        <ele>530.2</ele>
        <time>2021-05-23T16:40:05.353Z</time>
      </trkpt>
      <trkpt lat="44.40446" lon="5.26808">
        <ele>530.3</ele>
        <time>2021-05-23T16:40:25.353Z</time>
      </trkpt>
      <trkpt lat="44.40581" lon="5.26825">
        <ele>523.3</ele>
        <time>2021-05-23T16:40:45.353Z</time>
      </trkpt>
      <trkpt lat="44.4063" lon="5.26894">
        <ele>524.5</ele>
        <time>2021-05-23T16:41:05.353Z</time>
      </trkpt>
      <trkpt lat="44.40802" lon="5.26945">
        <ele>507.6</ele>
        <time>2021-05-23T16:41:25.353Z</time>
      </trkpt>
      <trkpt lat="44.40863" lon="5.26894">
        <ele>493.2</ele>
        <time>2021-05-23T16:41:45.353Z</time>
      </trkpt>
      <trkpt lat="44.40839" lon="5.26842">
        <ele>487.9</ele>
        <time>2021-05-23T16:42:05.353Z</time>
      </trkpt>
      <trkpt lat="44.40753" lon="5.26808">
        <ele>479.1</ele>
        <time>2021-05-23T16:42:25.353Z</time>
      </trkpt>
      <trkpt lat="44.409" lon="5.26791">
        <ele>454.1</ele>
        <time>2021-05-23T16:42:45.353Z</time>
      </trkpt>
      <trkpt lat="44.40937" lon="5.26825">
        <ele>451.9</ele>
        <time>2021-05-23T16:43:05.353Z</time>
      </trkpt>
      <trkpt lat="44.40962" lon="5.26894">
        <ele>450.9</ele>
        <time>2021-05-23T16:43:25.353Z</time>
      </trkpt>
      <trkpt lat="44.40986" lon="5.26756">
        <ele>427.5</ele>
        <time>2021-05-23T16:43:45.353Z</time>
      </trkpt>
      <trkpt lat="44.41084" lon="5.26671">
        <ele>410.3</ele>
        <time>2021-05-23T16:44:05.353Z</time>
      </trkpt>
      <trkpt lat="44.41145" lon="5.26705">
        <ele>403.8</ele>
        <time>2021-05-23T16:44:25.353Z</time>
      </trkpt>
      <trkpt lat="44.41158" lon="5.26636">
        <ele>393.6</ele>
        <time>2021-05-23T16:44:45.353Z</time>
      </trkpt>
      <trkpt lat="44.41182" lon="5.26585">
        <ele>385</ele>
        <time>2021-05-23T16:45:05.353Z</time>
      </trkpt>
      <trkpt lat="44.41231" lon="5.26739">
        <ele>378.7</ele>
        <time>2021-05-23T16:45:25.353Z</time>
      </trkpt>
      <trkpt lat="44.41244" lon="5.26705">
        <ele>375.3</ele>
        <time>2021-05-23T16:45:45.353Z</time>
      </trkpt>
      <trkpt lat="44.4128" lon="5.26705">
        <ele>365.8</ele>
        <time>2021-05-23T16:46:05.353Z</time>
      </trkpt>
      <trkpt lat="44.41329" lon="5.26756">
        <ele>355.8</ele>
        <time>2021-05-23T16:46:25.353Z</time>
      </trkpt>
      <trkpt lat="44.41391" lon="5.26756">
        <ele>355</ele>
        <time>2021-05-23T16:46:45.353Z</time>
      </trkpt>
      <trkpt lat="44.41415" lon="5.26739">
        <ele>355.4</ele>
        <time>2021-05-23T16:47:05.353Z</time>
      </trkpt>
      <trkpt lat="44.41427" lon="5.26619">
        <ele>358.9</ele>
        <time>2021-05-23T16:47:25.353Z</time>
      </trkpt>
      <trkpt lat="44.41464" lon="5.26585">
        <ele>367.7</ele>
        <time>2021-05-23T16:47:45.353Z</time>
      </trkpt>
      <trkpt lat="44.41464" lon="5.26636">
        <ele>369.7</ele>
        <time>2021-05-23T16:48:05.353Z</time>
      </trkpt>
      <trkpt lat="44.41489" lon="5.26653">
        <ele>374.8</ele>
        <time>2021-05-23T16:48:25.353Z</time>
      </trkpt>
      <trkpt lat="44.41501" lon="5.26688">
        <ele>373.4</ele>
        <time>2021-05-23T16:48:45.353Z</time>
      </trkpt>
      <trkpt lat="44.41526" lon="5.26688">
        <ele>381</ele>
        <time>2021-05-23T16:49:05.353Z</time>
      </trkpt>
      <trkpt lat="44.41526" lon="5.26636">
        <ele>386.6</ele>
        <time>2021-05-23T16:49:25.353Z</time>
      </trkpt>
      <trkpt lat="44.41538" lon="5.26636">
        <ele>390.6</ele>
        <time>2021-05-23T16:49:45.353Z</time>
      </trkpt>
      <trkpt lat="44.41575" lon="5.26756">
        <ele>390.6</ele>
        <time>2021-05-23T16:50:05.353Z</time>
      </trkpt>
      <trkpt lat="44.41636" lon="5.26791">
        <ele>403.3</ele>
        <time>2021-05-23T16:50:25.353Z</time>
      </trkpt>
      <trkpt lat="44.41673" lon="5.26877">
        <ele>408.5</ele>
        <time>2021-05-23T16:50:45.353Z</time>
      </trkpt>
      <trkpt lat="44.41697" lon="5.26791">
        <ele>436</ele>
        <time>2021-05-23T16:51:05.353Z</time>
      </trkpt>
      <trkpt lat="44.41722" lon="5.26894">
        <ele>433.6</ele>
        <time>2021-05-23T16:51:25.353Z</time>
      </trkpt>
      <trkpt lat="44.41857" lon="5.2698">
        <ele>446.2</ele>
        <time>2021-05-23T16:51:45.353Z</time>
      </trkpt>
      <trkpt lat="44.41918" lon="5.26928">
        <ele>467.6</ele>
        <time>2021-05-23T16:52:05.353Z</time>
      </trkpt>
      <trkpt lat="44.41992" lon="5.26997">
        <ele>474</ele>
        <time>2021-05-23T16:52:25.353Z</time>
      </trkpt>
      <trkpt lat="44.42016" lon="5.27048">
        <ele>473.7</ele>
        <time>2021-05-23T16:52:45.353Z</time>
      </trkpt>
      <trkpt lat="44.42273" lon="5.27254">
        <ele>508.5</ele>
        <time>2021-05-23T16:53:05.353Z</time>
      </trkpt>
      <trkpt lat="44.42359" lon="5.27271">
        <ele>537.2</ele>
        <time>2021-05-23T16:53:25.353Z</time>
      </trkpt>
      <trkpt lat="44.42335" lon="5.27237">
        <ele>544.6</ele>
        <time>2021-05-23T16:53:45.353Z</time>
      </trkpt>
      <trkpt lat="44.42396" lon="5.27271">
        <ele>554.4</ele>
        <time>2021-05-23T16:54:05.353Z</time>
      </trkpt>
      <trkpt lat="44.42506" lon="5.27254">
        <ele>576.5</ele>
        <time>2021-05-23T16:54:25.353Z</time>
      </trkpt>
      <trkpt lat="44.42531" lon="5.27186">
        <ele>590.2</ele>
        <time>2021-05-23T16:54:45.353Z</time>
      </trkpt>
      <trkpt lat="44.42568" lon="5.27151">
        <ele>607.7</ele>
        <time>2021-05-23T16:55:05.353Z</time>
      </trkpt>
      <trkpt lat="44.42629" lon="5.27289">
        <ele>623.2</ele>
        <time>2021-05-23T16:55:25.353Z</time>
      </trkpt>
      <trkpt lat="44.42654" lon="5.27203">
        <ele>628.8</ele>
        <time>2021-05-23T16:55:45.353Z</time>
      </trkpt>
      <trkpt lat="44.42666" lon="5.27271">
        <ele>625.3</ele>
        <time>2021-05-23T16:56:05.353Z</time>
      </trkpt>
      <trkpt lat="44.42739" lon="5.27357">
        <ele>599</ele>
        <time>2021-05-23T16:56:25.353Z</time>
      </trkpt>
      <trkpt lat="44.42776" lon="5.27323">
        <ele>586.2</ele>
        <time>2021-05-23T16:56:45.353Z</time>
      </trkpt>
      <trkpt lat="44.42788" lon="5.27271">
        <ele>578.3</ele>
        <time>2021-05-23T16:57:05.353Z</time>
      </trkpt>
      <trkpt lat="44.4285" lon="5.27151">
        <ele>552.6</ele>
        <time>2021-05-23T16:57:25.353Z</time>
      </trkpt>
      <trkpt lat="44.42911" lon="5.27117">
        <ele>530.1</ele>
        <time>2021-05-23T16:57:45.353Z</time>
      </trkpt>
      <trkpt lat="44.42935" lon="5.27306">
        <ele>495.9</ele>
        <time>2021-05-23T16:58:05.353Z</time>
      </trkpt>
      <trkpt lat="44.42972" lon="5.27374">
        <ele>485.9</ele>
        <time>2021-05-23T16:58:25.353Z</time>
      </trkpt>
      <trkpt lat="44.43046" lon="5.27409">
        <ele>476</ele>
        <time>2021-05-23T16:58:45.353Z</time>
      </trkpt>
      <trkpt lat="44.43046" lon="5.27443">
        <ele>472.6</ele>
        <time>2021-05-23T16:59:05.353Z</time>
      </trkpt>
      <trkpt lat="44.43095" lon="5.27409">
        <ele>478</ele>
        <time>2021-05-23T16:59:25.353Z</time>
      </trkpt>
      <trkpt lat="44.43095" lon="5.27495">
        <ele>475.5</ele>
        <time>2021-05-23T16:59:45.353Z</time>
      </trkpt>
      <trkpt lat="44.43119" lon="5.27426">
        <ele>483.1</ele>
        <time>2021-05-23T17:00:05.353Z</time>
      </trkpt>
      <trkpt lat="44.43132" lon="5.27477">
        <ele>464.5</ele>
        <time>2021-05-23T17:00:25.353Z</time>
      </trkpt>
      <trkpt lat="44.4323" lon="5.27409">
        <ele>444.1</ele>
        <time>2021-05-23T17:00:45.353Z</time>
      </trkpt>
      <trkpt lat="44.43414" lon="5.27374">
        <ele>470.1</ele>
        <time>2021-05-23T17:01:05.353Z</time>
      </trkpt>
      <trkpt lat="44.43438" lon="5.27392">
        <ele>475.3</ele>
        <time>2021-05-23T17:01:25.353Z</time>
      </trkpt>
      <trkpt lat="44.43401" lon="5.27443">
        <ele>488.5</ele>
        <time>2021-05-23T17:01:45.353Z</time>
      </trkpt>
      <trkpt lat="44.43438" lon="5.27443">
        <ele>491.9</ele>
        <time>2021-05-23T17:02:05.353Z</time>
      </trkpt>
      <trkpt lat="44.43487" lon="5.27546">
        <ele>514.5</ele>
        <time>2021-05-23T17:02:25.353Z</time>
      </trkpt>
      <trkpt lat="44.43524" lon="5.2758">
        <ele>519.6</ele>
        <time>2021-05-23T17:02:45.353Z</time>
      </trkpt>
      <trkpt lat="44.43683" lon="5.27683">
        <ele>522.7</ele>
        <time>2021-05-23T17:03:05.353Z</time>
      </trkpt>
      <trkpt lat="44.43818" lon="5.27683">
        <ele>525.2</ele>
        <time>2021-05-23T17:03:25.353Z</time>
      </trkpt>
      <trkpt lat="44.43855" lon="5.27735">
        <ele>523</ele>
        <time>2021-05-23T17:03:45.353Z</time>
      </trkpt>
      <trkpt lat="44.43818" lon="5.27872">
        <ele>506.8</ele>
        <time>2021-05-23T17:04:05.353Z</time>
      </trkpt>
      <trkpt lat="44.43879" lon="5.27958">
        <ele>498.4</ele>
        <time>2021-05-23T17:04:25.353Z</time>
      </trkpt>
      <trkpt lat="44.43855" lon="5.2813">
        <ele>488.5</ele>
        <time>2021-05-23T17:04:45.353Z</time>
      </trkpt>
      <trkpt lat="44.43904" lon="5.28301">
        <ele>469.2</ele>
        <time>2021-05-23T17:05:05.353Z</time>
      </trkpt>
      <trkpt lat="44.43867" lon="5.28353">
        <ele>467</ele>
        <time>2021-05-23T17:05:25.353Z</time>
      </trkpt>
      <trkpt lat="44.43916" lon="5.2837">
        <ele>459.3</ele>
        <time>2021-05-23T17:05:45.353Z</time>
      </trkpt>
      <trkpt lat="44.43879" lon="5.28439">
        <ele>452.1</ele>
        <time>2021-05-23T17:06:05.353Z</time>
      </trkpt>
      <trkpt lat="44.43769" lon="5.28507">
        <ele>436.3</ele>
        <time>2021-05-23T17:06:25.353Z</time>
      </trkpt>
      <trkpt lat="44.43769" lon="5.28404">
        <ele>438.2</ele>
        <time>2021-05-23T17:06:45.353Z</time>
      </trkpt>
      <trkpt lat="44.43757" lon="5.28387">
        <ele>433.1</ele>
        <time>2021-05-23T17:07:05.353Z</time>
      </trkpt>
      <trkpt lat="44.43745" lon="5.28559">
        <ele>420.8</ele>
        <time>2021-05-23T17:07:25.353Z</time>
      </trkpt>
      <trkpt lat="44.43867" lon="5.28524">
        <ele>421.5</ele>
        <time>2021-05-23T17:07:45.353Z</time>
      </trkpt>
      <trkpt lat="44.43892" lon="5.28524">
        <ele>420.9</ele>
        <time>2021-05-23T17:08:05.353Z</time>
      </trkpt>
      <trkpt lat="44.43904" lon="5.28559">
        <ele>422.8</ele>
        <time>2021-05-23T17:08:25.353Z</time>
      </trkpt>
      <trkpt lat="44.43977" lon="5.28542">
        <ele>429.9</ele>
        <time>2021-05-23T17:08:45.353Z</time>
      </trkpt>
      <trkpt lat="44.43879" lon="5.28662">
        <ele>445.7</ele>
        <time>2021-05-23T17:09:05.353Z</time>
      </trkpt>
      <trkpt lat="44.43965" lon="5.2861">
        <ele>450.4</ele>
        <time>2021-05-23T17:09:25.353Z</time>
      </trkpt>
      <trkpt lat="44.44137" lon="5.28679">
        <ele>473.7</ele>
        <time>2021-05-23T17:09:45.353Z</time>
      </trkpt>
      <trkpt lat="44.44308" lon="5.2861">
        <ele>469.3</ele>
        <time>2021-05-23T17:10:05.353Z</time>
      </trkpt>
      <trkpt lat="44.44382" lon="5.28524">
        <ele>478.7</ele>
        <time>2021-05-23T17:10:25.353Z</time>
      </trkpt>
      <trkpt lat="44.44468" lon="5.28198">
        <ele>462.7</ele>
        <time>2021-05-23T17:10:45.353Z</time>
      </trkpt>
      <trkpt lat="44.4459" lon="5.28078">
        <ele>475.3</ele>
        <time>2021-05-23T17:11:05.353Z</time>
      </trkpt>
      <trkpt lat="44.44566" lon="5.28061">
        <ele>483.5</ele>
        <time>2021-05-23T17:11:25.353Z</time>
      </trkpt>
      <trkpt lat="44.44602" lon="5.27975">
        <ele>501.4</ele>
        <time>2021-05-23T17:11:45.353Z</time>
      </trkpt>
      <trkpt lat="44.44688" lon="5.27924">
        <ele>513.9</ele>
        <time>2021-05-23T17:12:05.353Z</time>
      </trkpt>
      <trkpt lat="44.44737" lon="5.27821">
        <ele>530</ele>
        <time>2021-05-23T17:12:25.353Z</time>
      </trkpt>
      <trkpt lat="44.44762" lon="5.27701">
        <ele>550.9</ele>
        <time>2021-05-23T17:12:45.353Z</time>
      </trkpt>
      <trkpt lat="44.44835" lon="5.27615">
        <ele>563.4</ele>
        <time>2021-05-23T17:13:05.353Z</time>
      </trkpt>
      <trkpt lat="44.44897" lon="5.27392">
        <ele>593.9</ele>
        <time>2021-05-23T17:13:25.353Z</time>
      </trkpt>
      <trkpt lat="44.4497" lon="5.27306">
        <ele>609.2</ele>
        <time>2021-05-23T17:13:45.353Z</time>
      </trkpt>
      <trkpt lat="44.45007" lon="5.27203">
        <ele>617.4</ele>
        <time>2021-05-23T17:14:05.353Z</time>
      </trkpt>
      <trkpt lat="44.45019" lon="5.27083">
        <ele>626.5</ele>
        <time>2021-05-23T17:14:25.353Z</time>
      </trkpt>
      <trkpt lat="44.45019" lon="5.26962">
        <ele>635.2</ele>
        <time>2021-05-23T17:14:45.353Z</time>
      </trkpt>
      <trkpt lat="44.44995" lon="5.26859">
        <ele>649.4</ele>
        <time>2021-05-23T17:15:05.353Z</time>
      </trkpt>
      <trkpt lat="44.45068" lon="5.26774">
        <ele>647.9</ele>
        <time>2021-05-23T17:15:25.353Z</time>
      </trkpt>
      <trkpt lat="44.45117" lon="5.26533">
        <ele>676.9</ele>
        <time>2021-05-23T17:15:45.353Z</time>
      </trkpt>
      <trkpt lat="44.45105" lon="5.2643">
        <ele>702.3</ele>
        <time>2021-05-23T17:16:05.353Z</time>
      </trkpt>
      <trkpt lat="44.45166" lon="5.26413">
        <ele>704.4</ele>
        <time>2021-05-23T17:16:25.353Z</time>
      </trkpt>
      <trkpt lat="44.45227" lon="5.26327">
        <ele>724.7</ele>
        <time>2021-05-23T17:16:45.353Z</time>
      </trkpt>
      <trkpt lat="44.45313" lon="5.26276">
        <ele>731.1</ele>
        <time>2021-05-23T17:17:05.353Z</time>
      </trkpt>
      <trkpt lat="44.45436" lon="5.2607">
        <ele>760.1</ele>
        <time>2021-05-23T17:17:25.353Z</time>
      </trkpt>
      <trkpt lat="44.45485" lon="5.2607">
        <ele>760.2</ele>
        <time>2021-05-23T17:17:45.353Z</time>
      </trkpt>
      <trkpt lat="44.45534" lon="5.2619">
        <ele>774.8</ele>
        <time>2021-05-23T17:18:05.353Z</time>
      </trkpt>
      <trkpt lat="44.45607" lon="5.26241">
        <ele>797.9</ele>
        <time>2021-05-23T17:18:25.353Z</time>
      </trkpt>
      <trkpt lat="44.45607" lon="5.26499">
        <ele>815.2</ele>
        <time>2021-05-23T17:18:45.353Z</time>
      </trkpt>
      <trkpt lat="44.4557" lon="5.26585">
        <ele>816.2</ele>
        <time>2021-05-23T17:19:05.353Z</time>
      </trkpt>
      <trkpt lat="44.45583" lon="5.26653">
        <ele>828.4</ele>
        <time>2021-05-23T17:19:25.353Z</time>
      </trkpt>
      <trkpt lat="44.45901" lon="5.27065">
        <ele>900.6</ele>
        <time>2021-05-23T17:19:45.353Z</time>
      </trkpt>
      <trkpt lat="44.45987" lon="5.2722">
        <ele>933.1</ele>
        <time>2021-05-23T17:20:05.353Z</time>
      </trkpt>
      <trkpt lat="44.45975" lon="5.27392">
        <ele>958.4</ele>
        <time>2021-05-23T17:20:25.353Z</time>
      </trkpt>
      <trkpt lat="44.46012" lon="5.27649">
        <ele>985.9</ele>
        <time>2021-05-23T17:20:45.353Z</time>
      </trkpt>
      <trkpt lat="44.46097" lon="5.27941">
        <ele>1033.4</ele>
        <time>2021-05-23T17:21:05.353Z</time>
      </trkpt>
      <trkpt lat="44.46159" lon="5.27872">
        <ele>1052.3</ele>
        <time>2021-05-23T17:21:25.353Z</time>
      </trkpt>
      <trkpt lat="44.46208" lon="5.27958">
        <ele>1087.5</ele>
        <time>2021-05-23T17:21:45.353Z</time>
      </trkpt>
      <trkpt lat="44.46232" lon="5.27958">
        <ele>1097.1</ele>
        <time>2021-05-23T17:22:05.353Z</time>
      </trkpt>
      <trkpt lat="44.46232" lon="5.2801">
        <ele>1108.6</ele>
        <time>2021-05-23T17:22:25.353Z</time>
      </trkpt>
      <trkpt lat="44.46281" lon="5.27975">
        <ele>1121.5</ele>
        <time>2021-05-23T17:22:45.353Z</time>
      </trkpt>
      <trkpt lat="44.46269" lon="5.28044">
        <ele>1128.8</ele>
        <time>2021-05-23T17:23:05.353Z</time>
      </trkpt>
      <trkpt lat="44.46293" lon="5.2813">
        <ele>1156.9</ele>
        <time>2021-05-23T17:23:25.353Z</time>
      </trkpt>
      <trkpt lat="44.46355" lon="5.28147">
        <ele>1181.1</ele>
        <time>2021-05-23T17:23:45.353Z</time>
      </trkpt>
      <trkpt lat="44.46404" lon="5.28198">
        <ele>1203.2</ele>
        <time>2021-05-23T17:24:05.353Z</time>
      </trkpt>
      <trkpt lat="44.46502" lon="5.28387">
        <ele>1250.5</ele>
        <time>2021-05-23T17:24:25.353Z</time>
      </trkpt>
      <trkpt lat="44.46526" lon="5.28507">
        <ele>1262.6</ele>
        <time>2021-05-23T17:24:45.353Z</time>
      </trkpt>
      <trkpt lat="44.46538" lon="5.28645">
        <ele>1258.6</ele>
        <time>2021-05-23T17:25:05.353Z</time>
      </trkpt>
      <trkpt lat="44.46416" lon="5.29091">
        <ele>1238.3</ele>
        <time>2021-05-23T17:25:25.353Z</time>
      </trkpt>
      <trkpt lat="44.46367" lon="5.29125">
        <ele>1237.6</ele>
        <time>2021-05-23T17:25:45.353Z</time>
      </trkpt>
      <trkpt lat="44.46281" lon="5.2928">
        <ele>1231.6</ele>
        <time>2021-05-23T17:26:05.353Z</time>
      </trkpt>
      <trkpt lat="44.4622" lon="5.29297">
        <ele>1230.8</ele>
        <time>2021-05-23T17:26:25.353Z</time>
      </trkpt>
      <trkpt lat="44.46122" lon="5.29503">
        <ele>1216.8</ele>
        <time>2021-05-23T17:26:45.353Z</time>
      </trkpt>
      <trkpt lat="44.46061" lon="5.29537">
        <ele>1211.5</ele>
        <time>2021-05-23T17:27:05.353Z</time>
      </trkpt>
      <trkpt lat="44.4595" lon="5.29675">
        <ele>1210.6</ele>
        <time>2021-05-23T17:27:25.353Z</time>
      </trkpt>
      <trkpt lat="44.45914" lon="5.2976">
        <ele>1192.7</ele>
        <time>2021-05-23T17:27:45.353Z</time>
      </trkpt>
      <trkpt lat="44.45901" lon="5.29949">
        <ele>1187.5</ele>
        <time>2021-05-23T17:28:05.353Z</time>
      </trkpt>
      <trkpt lat="44.45828" lon="5.30035">
        <ele>1181.9</ele>
        <time>2021-05-23T17:28:25.353Z</time>
      </trkpt>
      <trkpt lat="44.45754" lon="5.30069">
        <ele>1158.3</ele>
        <time>2021-05-23T17:28:45.353Z</time>
      </trkpt>
      <trkpt lat="44.45742" lon="5.3019">
        <ele>1144.4</ele>
        <time>2021-05-23T17:29:05.353Z</time>
      </trkpt>
      <trkpt lat="44.45669" lon="5.30275">
        <ele>1119.5</ele>
        <time>2021-05-23T17:29:25.353Z</time>
      </trkpt>
      <trkpt lat="44.45583" lon="5.3031">
        <ele>1118.7</ele>
        <time>2021-05-23T17:29:45.353Z</time>
      </trkpt>
      <trkpt lat="44.45546" lon="5.3043">
        <ele>1075.7</ele>
        <time>2021-05-23T17:30:05.353Z</time>
      </trkpt>
      <trkpt lat="44.45583" lon="5.30447">
        <ele>1055.2</ele>
        <time>2021-05-23T17:30:25.353Z</time>
      </trkpt>
      <trkpt lat="44.45558" lon="5.30516">
        <ele>1035.8</ele>
        <time>2021-05-23T17:30:45.353Z</time>
      </trkpt>
      <trkpt lat="44.45632" lon="5.30516">
        <ele>1010.4</ele>
        <time>2021-05-23T17:31:05.353Z</time>
      </trkpt>
      <trkpt lat="44.45607" lon="5.30567">
        <ele>995.3</ele>
        <time>2021-05-23T17:31:25.353Z</time>
      </trkpt>
      <trkpt lat="44.45656" lon="5.30842">
        <ele>928.9</ele>
        <time>2021-05-23T17:31:45.353Z</time>
      </trkpt>
      <trkpt lat="44.4562" lon="5.30876">
        <ele>920.4</ele>
        <time>2021-05-23T17:32:05.353Z</time>
      </trkpt>
      <trkpt lat="44.45509" lon="5.31082">
        <ele>873.2</ele>
        <time>2021-05-23T17:32:25.353Z</time>
      </trkpt>
      <trkpt lat="44.45497" lon="5.31288">
        <ele>836.1</ele>
        <time>2021-05-23T17:32:45.353Z</time>
      </trkpt>
      <trkpt lat="44.45558" lon="5.31374">
        <ele>813.3</ele>
        <time>2021-05-23T17:33:05.353Z</time>
      </trkpt>
      <trkpt lat="44.45497" lon="5.31529">
        <ele>780.4</ele>
        <time>2021-05-23T17:33:25.353Z</time>
      </trkpt>
      <trkpt lat="44.45497" lon="5.3158">
        <ele>774.3</ele>
        <time>2021-05-23T17:33:45.353Z</time>
      </trkpt>
      <trkpt lat="44.45534" lon="5.31563">
        <ele>777.1</ele>
        <time>2021-05-23T17:34:05.353Z</time>
      </trkpt>
      <trkpt lat="44.45534" lon="5.31649">
        <ele>765</ele>
        <time>2021-05-23T17:34:25.353Z</time>
      </trkpt>
      <trkpt lat="44.45546" lon="5.31666">
        <ele>763.4</ele>
        <time>2021-05-23T17:34:45.353Z</time>
      </trkpt>
      <trkpt lat="44.4557" lon="5.31666">
        <ele>765.1</ele>
        <time>2021-05-23T17:35:05.353Z</time>
      </trkpt>
      <trkpt lat="44.45644" lon="5.3158">
        <ele>770.1</ele>
        <time>2021-05-23T17:35:25.353Z</time>
      </trkpt>
      <trkpt lat="44.45693" lon="5.31614">
        <ele>770.2</ele>
        <time>2021-05-23T17:35:45.353Z</time>
      </trkpt>
      <trkpt lat="44.45742" lon="5.3158">
        <ele>770.1</ele>
        <time>2021-05-23T17:36:05.353Z</time>
      </trkpt>
      <trkpt lat="44.45803" lon="5.31597">
        <ele>772.4</ele>
        <time>2021-05-23T17:36:25.353Z</time>
      </trkpt>
      <trkpt lat="44.45828" lon="5.31563">
        <ele>774.5</ele>
        <time>2021-05-23T17:36:45.353Z</time>
      </trkpt>
      <trkpt lat="44.45865" lon="5.317">
        <ele>784</ele>
        <time>2021-05-23T17:37:05.353Z</time>
      </trkpt>
      <trkpt lat="44.45926" lon="5.31717">
        <ele>796.3</ele>
        <time>2021-05-23T17:37:25.353Z</time>
      </trkpt>
      <trkpt lat="44.45987" lon="5.31838">
        <ele>814.9</ele>
        <time>2021-05-23T17:37:45.353Z</time>
      </trkpt>
      <trkpt lat="44.45938" lon="5.32284">
        <ele>824.3</ele>
        <time>2021-05-23T17:38:05.353Z</time>
      </trkpt>
      <trkpt lat="44.45877" lon="5.32473">
        <ele>834.6</ele>
        <time>2021-05-23T17:38:25.353Z</time>
      </trkpt>
      <trkpt lat="44.45852" lon="5.32696">
        <ele>866.6</ele>
        <time>2021-05-23T17:38:45.353Z</time>
      </trkpt>
      <trkpt lat="44.45877" lon="5.32953">
        <ele>899.2</ele>
        <time>2021-05-23T17:39:05.353Z</time>
      </trkpt>
      <trkpt lat="44.45865" lon="5.33159">
        <ele>910</ele>
        <time>2021-05-23T17:39:25.353Z</time>
      </trkpt>
      <trkpt lat="44.4573" lon="5.33606">
        <ele>976</ele>
        <time>2021-05-23T17:39:45.353Z</time>
      </trkpt>
      <trkpt lat="44.45705" lon="5.33657">
        <ele>988.9</ele>
        <time>2021-05-23T17:40:05.353Z</time>
      </trkpt>
      <trkpt lat="44.4562" lon="5.33692">
        <ele>1002.2</ele>
        <time>2021-05-23T17:40:25.353Z</time>
      </trkpt>
      <trkpt lat="44.45534" lon="5.33949">
        <ele>980.8</ele>
        <time>2021-05-23T17:40:45.353Z</time>
      </trkpt>
      <trkpt lat="44.45497" lon="5.33897">
        <ele>967.2</ele>
        <time>2021-05-23T17:41:05.353Z</time>
      </trkpt>
      <trkpt lat="44.45436" lon="5.33932">
        <ele>952.8</ele>
        <time>2021-05-23T17:41:25.353Z</time>
      </trkpt>
      <trkpt lat="44.4524" lon="5.34069">
        <ele>915.9</ele>
        <time>2021-05-23T17:41:45.353Z</time>
      </trkpt>
      <trkpt lat="44.45178" lon="5.34069">
        <ele>915.1</ele>
        <time>2021-05-23T17:42:05.353Z</time>
      </trkpt>
      <trkpt lat="44.45142" lon="5.34138">
        <ele>907.5</ele>
        <time>2021-05-23T17:42:25.353Z</time>
      </trkpt>
      <trkpt lat="44.45056" lon="5.34103">
        <ele>909.3</ele>
        <time>2021-05-23T17:42:45.353Z</time>
      </trkpt>
      <trkpt lat="44.44958" lon="5.34121">
        <ele>901.9</ele>
        <time>2021-05-23T17:43:05.353Z</time>
      </trkpt>
      <trkpt lat="44.44872" lon="5.34224">
        <ele>880.6</ele>
        <time>2021-05-23T17:43:25.353Z</time>
      </trkpt>
      <trkpt lat="44.44823" lon="5.34155">
        <ele>885.2</ele>
        <time>2021-05-23T17:43:45.353Z</time>
      </trkpt>
      <trkpt lat="44.44749" lon="5.34138">
        <ele>882.5</ele>
        <time>2021-05-23T17:44:05.353Z</time>
      </trkpt>
      <trkpt lat="44.44725" lon="5.34189">
        <ele>881.1</ele>
        <time>2021-05-23T17:44:25.353Z</time>
      </trkpt>
      <trkpt lat="44.44602" lon="5.34224">
        <ele>889.1</ele>
        <time>2021-05-23T17:44:45.353Z</time>
      </trkpt>
      <trkpt lat="44.44504" lon="5.34344">
        <ele>864.4</ele>
        <time>2021-05-23T17:45:05.353Z</time>
      </trkpt>
      <trkpt lat="44.44394" lon="5.34361">
        <ele>859.1</ele>
        <time>2021-05-23T17:45:25.353Z</time>
      </trkpt>
      <trkpt lat="44.44259" lon="5.34567">
        <ele>810.1</ele>
        <time>2021-05-23T17:45:45.353Z</time>
      </trkpt>
      <trkpt lat="44.44247" lon="5.34653">
        <ele>800.7</ele>
        <time>2021-05-23T17:46:05.353Z</time>
      </trkpt>
      <trkpt lat="44.44247" lon="5.34739">
        <ele>788.1</ele>
        <time>2021-05-23T17:46:25.353Z</time>
      </trkpt>
      <trkpt lat="44.44124" lon="5.34807">
        <ele>765.6</ele>
        <time>2021-05-23T17:46:45.353Z</time>
      </trkpt>
      <trkpt lat="44.44063" lon="5.34945">
        <ele>738.6</ele>
        <time>2021-05-23T17:47:05.353Z</time>
      </trkpt>
      <trkpt lat="44.43928" lon="5.35082">
        <ele>710.2</ele>
        <time>2021-05-23T17:47:25.353Z</time>
      </trkpt>
      <trkpt lat="44.43769" lon="5.35168">
        <ele>686.8</ele>
        <time>2021-05-23T17:47:45.353Z</time>
      </trkpt>
      <trkpt lat="44.43708" lon="5.35185">
        <ele>682</ele>
        <time>2021-05-23T17:48:05.353Z</time>
      </trkpt>
      <trkpt lat="44.43646" lon="5.35288">
        <ele>668.7</ele>
        <time>2021-05-23T17:48:25.353Z</time>
      </trkpt>
      <trkpt lat="44.43573" lon="5.35305">
        <ele>660.2</ele>
        <time>2021-05-23T17:48:45.353Z</time>
      </trkpt>
      <trkpt lat="44.43548" lon="5.35271">
        <ele>661.1</ele>
        <time>2021-05-23T17:49:05.353Z</time>
      </trkpt>
      <trkpt lat="44.43487" lon="5.35271">
        <ele>655.7</ele>
        <time>2021-05-23T17:49:25.353Z</time>
      </trkpt>
      <trkpt lat="44.43475" lon="5.35288">
        <ele>653.2</ele>
        <time>2021-05-23T17:49:45.353Z</time>
      </trkpt>
      <trkpt lat="44.43499" lon="5.35305">
        <ele>648.2</ele>
        <time>2021-05-23T17:50:05.353Z</time>
      </trkpt>
      <trkpt lat="44.4345" lon="5.35339">
        <ele>648.1</ele>
        <time>2021-05-23T17:50:25.353Z</time>
      </trkpt>
      <trkpt lat="44.43389" lon="5.35305">
        <ele>642.1</ele>
        <time>2021-05-23T17:50:45.353Z</time>
      </trkpt>
      <trkpt lat="44.43377" lon="5.35254">
        <ele>645.7</ele>
        <time>2021-05-23T17:51:05.353Z</time>
      </trkpt>
      <trkpt lat="44.43279" lon="5.35168">
        <ele>657</ele>
        <time>2021-05-23T17:51:25.353Z</time>
      </trkpt>
      <trkpt lat="44.4323" lon="5.35168">
        <ele>650.4</ele>
        <time>2021-05-23T17:51:45.353Z</time>
      </trkpt>
      <trkpt lat="44.43181" lon="5.35219">
        <ele>637.1</ele>
        <time>2021-05-23T17:52:05.353Z</time>
      </trkpt>
      <trkpt lat="44.43107" lon="5.35219">
        <ele>633.9</ele>
        <time>2021-05-23T17:52:25.353Z</time>
      </trkpt>
      <trkpt lat="44.43009" lon="5.35151">
        <ele>653.4</ele>
        <time>2021-05-23T17:52:45.353Z</time>
      </trkpt>
      <trkpt lat="44.4285" lon="5.35116">
        <ele>665.8</ele>
        <time>2021-05-23T17:53:05.353Z</time>
      </trkpt>
      <trkpt lat="44.42654" lon="5.35151">
        <ele>686.1</ele>
        <time>2021-05-23T17:53:25.353Z</time>
      </trkpt>
      <trkpt lat="44.42604" lon="5.35202">
        <ele>689.4</ele>
        <time>2021-05-23T17:53:45.353Z</time>
      </trkpt>
      <trkpt lat="44.42494" lon="5.35271">
        <ele>666.3</ele>
        <time>2021-05-23T17:54:05.353Z</time>
      </trkpt>
      <trkpt lat="44.42396" lon="5.35254">
        <ele>646.2</ele>
        <time>2021-05-23T17:54:25.353Z</time>
      </trkpt>
      <trkpt lat="44.42347" lon="5.35202">
        <ele>647.6</ele>
        <time>2021-05-23T17:54:45.353Z</time>
      </trkpt>
      <trkpt lat="44.42102" lon="5.35254">
        <ele>626.5</ele>
        <time>2021-05-23T17:55:05.353Z</time>
      </trkpt>
      <trkpt lat="44.41918" lon="5.35219">
        <ele>618.2</ele>
        <time>2021-05-23T17:55:25.353Z</time>
      </trkpt>
      <trkpt lat="44.41844" lon="5.35322">
        <ele>578.4</ele>
        <time>2021-05-23T17:55:45.353Z</time>
      </trkpt>
      <trkpt lat="44.41734" lon="5.35254">
        <ele>562</ele>
        <time>2021-05-23T17:56:05.353Z</time>
      </trkpt>
      <trkpt lat="44.41685" lon="5.35271">
        <ele>552</ele>
        <time>2021-05-23T17:56:25.353Z</time>
      </trkpt>
      <trkpt lat="44.41685" lon="5.35339">
        <ele>534.3</ele>
        <time>2021-05-23T17:56:45.353Z</time>
      </trkpt>
      <trkpt lat="44.4155" lon="5.35339">
        <ele>509</ele>
        <time>2021-05-23T17:57:05.353Z</time>
      </trkpt>
      <trkpt lat="44.41587" lon="5.35391">
        <ele>497.9</ele>
        <time>2021-05-23T17:57:25.353Z</time>
      </trkpt>
      <trkpt lat="44.4155" lon="5.35442">
        <ele>477.8</ele>
        <time>2021-05-23T17:57:45.353Z</time>
      </trkpt>
      <trkpt lat="44.41562" lon="5.35477">
        <ele>473.3</ele>
        <time>2021-05-23T17:58:05.353Z</time>
      </trkpt>
      <trkpt lat="44.41452" lon="5.3546">
        <ele>459.7</ele>
        <time>2021-05-23T17:58:25.353Z</time>
      </trkpt>
      <trkpt lat="44.41427" lon="5.35648">
        <ele>450</ele>
        <time>2021-05-23T17:58:45.353Z</time>
      </trkpt>
      <trkpt lat="44.41378" lon="5.35648">
        <ele>451.6</ele>
        <time>2021-05-23T17:59:05.353Z</time>
      </trkpt>
      <trkpt lat="44.41354" lon="5.35683">
        <ele>457.1</ele>
        <time>2021-05-23T17:59:25.353Z</time>
      </trkpt>
      <trkpt lat="44.41342" lon="5.35837">
        <ele>458.8</ele>
        <time>2021-05-23T17:59:45.353Z</time>
      </trkpt>
      <trkpt lat="44.41378" lon="5.36043">
        <ele>460.9</ele>
        <time>2021-05-23T18:00:05.353Z</time>
      </trkpt>
      <trkpt lat="44.41452" lon="5.36232">
        <ele>469.6</ele>
        <time>2021-05-23T18:00:25.353Z</time>
      </trkpt>
      <trkpt lat="44.41452" lon="5.36352">
        <ele>473.1</ele>
        <time>2021-05-23T18:00:45.353Z</time>
      </trkpt>
      <trkpt lat="44.4144" lon="5.3649">
        <ele>489.1</ele>
        <time>2021-05-23T18:00:52.504Z</time>
      </trkpt>
      <trkpt lat="44.41454" lon="5.36543">
        <ele>495.7</ele>
        <time>2021-05-23T18:00:55.424Z</time>
      </trkpt>
      <trkpt lat="44.41469" lon="5.36596">
        <ele>507.6</ele>
        <time>2021-05-23T18:00:58.344Z</time>
      </trkpt>
      <trkpt lat="44.41465" lon="5.36648">
        <ele>522.3</ele>
        <time>2021-05-23T18:01:01.002Z</time>
      </trkpt>
      <trkpt lat="44.41462" lon="5.36699">
        <ele>540.2</ele>
        <time>2021-05-23T18:01:03.660Z</time>
      </trkpt>
      <trkpt lat="44.4145" lon="5.36706">
        <ele>543.2</ele>
        <time>2021-05-23T18:01:04.603Z</time>
      </trkpt>
      <trkpt lat="44.41438" lon="5.36712">
        <ele>546.1</ele>
        <time>2021-05-23T18:01:05.801Z</time>
      </trkpt>
      <trkpt lat="44.41397" lon="5.36714">
        <ele>548</ele>
        <time>2021-05-23T18:01:09.590Z</time>
      </trkpt>
      <trkpt lat="44.41355" lon="5.36716">
        <ele>547.6</ele>
        <time>2021-05-23T18:01:13.876Z</time>
      </trkpt>
      <trkpt lat="44.41303" lon="5.36781">
        <ele>566.3</ele>
        <time>2021-05-23T18:01:21.070Z</time>
      </trkpt>
      <trkpt lat="44.41251" lon="5.36845">
        <ele>573.1</ele>
        <time>2021-05-23T18:01:27.555Z</time>
      </trkpt>
      <trkpt lat="44.41191" lon="5.36901">
        <ele>582.4</ele>
        <time>2021-05-23T18:01:34.259Z</time>
      </trkpt>
      <trkpt lat="44.41131" lon="5.36957">
        <ele>581.4</ele>
        <time>2021-05-23T18:01:41.524Z</time>
      </trkpt>
      <trkpt lat="44.41121" lon="5.37008">
        <ele>586.6</ele>
        <time>2021-05-23T18:01:45.398Z</time>
      </trkpt>
      <trkpt lat="44.4111" lon="5.3706">
        <ele>589.9</ele>
        <time>2021-05-23T18:01:49.561Z</time>
      </trkpt>
      <trkpt lat="44.41095" lon="5.37111">
        <ele>589.9</ele>
        <time>2021-05-23T18:01:53.891Z</time>
      </trkpt>
      <trkpt lat="44.41079" lon="5.37163">
        <ele>588.5</ele>
        <time>2021-05-23T18:01:58.525Z</time>
      </trkpt>
      <trkpt lat="44.41084" lon="5.37221">
        <ele>599</ele>
        <time>2021-05-23T18:02:03.367Z</time>
      </trkpt>
      <trkpt lat="44.41088" lon="5.37279">
        <ele>617.4</ele>
        <time>2021-05-23T18:02:08.565Z</time>
      </trkpt>
      <trkpt lat="44.41065" lon="5.37307">
        <ele>615.4</ele>
        <time>2021-05-23T18:02:12.363Z</time>
      </trkpt>
      <trkpt lat="44.41042" lon="5.37334">
        <ele>611.2</ele>
        <time>2021-05-23T18:02:16.359Z</time>
      </trkpt>
      <trkpt lat="44.40998" lon="5.37416">
        <ele>612.6</ele>
        <time>2021-05-23T18:02:25.982Z</time>
      </trkpt>
      <trkpt lat="44.40954" lon="5.37498">
        <ele>644.5</ele>
        <time>2021-05-23T18:02:36.273Z</time>
      </trkpt>
      <trkpt lat="44.40898" lon="5.37515">
        <ele>627.9</ele>
        <time>2021-05-23T18:02:44.212Z</time>
      </trkpt>
      <trkpt lat="44.40843" lon="5.37532">
        <ele>622</ele>
        <time>2021-05-23T18:02:52.639Z</time>
      </trkpt>
      <trkpt lat="44.40802" lon="5.37528">
        <ele>628.7</ele>
        <time>2021-05-23T18:02:58.826Z</time>
      </trkpt>
      <trkpt lat="44.4076" lon="5.37523">
        <ele>630.6</ele>
        <time>2021-05-23T18:03:05.287Z</time>
      </trkpt>
      <trkpt lat="44.40721" lon="5.37551">
        <ele>632.4</ele>
        <time>2021-05-23T18:03:12.140Z</time>
      </trkpt>
      <trkpt lat="44.40682" lon="5.37579">
        <ele>637.3</ele>
        <time>2021-05-23T18:03:19.284Z</time>
      </trkpt>
      <trkpt lat="44.40667" lon="5.37605">
        <ele>636.4</ele>
        <time>2021-05-23T18:03:23.126Z</time>
      </trkpt>
      <trkpt lat="44.40655" lon="5.37656">
        <ele>650.8</ele>
        <time>2021-05-23T18:03:29.362Z</time>
      </trkpt>
      <trkpt lat="44.4063" lon="5.3776">
        <ele>665.2</ele>
        <time>2021-05-23T18:03:42.076Z</time>
      </trkpt>
      <trkpt lat="44.40434" lon="5.37897">
        <ele>702.5</ele>
        <time>2021-05-23T18:04:02.076Z</time>
      </trkpt>
      <trkpt lat="44.40373" lon="5.3788">
        <ele>719.8</ele>
        <time>2021-05-23T18:04:22.076Z</time>
      </trkpt>
      <trkpt lat="44.40397" lon="5.37983">
        <ele>721.3</ele>
        <time>2021-05-23T18:04:42.076Z</time>
      </trkpt>
      <trkpt lat="44.40373" lon="5.37966">
        <ele>732.3</ele>
        <time>2021-05-23T18:05:02.076Z</time>
      </trkpt>
      <trkpt lat="44.40275" lon="5.3812">
        <ele>762.2</ele>
        <time>2021-05-23T18:05:22.076Z</time>
      </trkpt>
      <trkpt lat="44.40373" lon="5.38309">
        <ele>779.8</ele>
        <time>2021-05-23T18:05:42.076Z</time>
      </trkpt>
      <trkpt lat="44.40275" lon="5.38481">
        <ele>777.4</ele>
        <time>2021-05-23T18:06:02.076Z</time>
      </trkpt>
      <trkpt lat="44.40238" lon="5.38618">
        <ele>759.7</ele>
        <time>2021-05-23T18:06:22.076Z</time>
      </trkpt>
      <trkpt lat="44.40189" lon="5.38687">
        <ele>758.3</ele>
        <time>2021-05-23T18:06:42.076Z</time>
      </trkpt>
      <trkpt lat="44.4025" lon="5.38824">
        <ele>760.1</ele>
        <time>2021-05-23T18:07:02.076Z</time>
      </trkpt>
      <trkpt lat="44.40263" lon="5.38962">
        <ele>763.9</ele>
        <time>2021-05-23T18:07:22.076Z</time>
      </trkpt>
      <trkpt lat="44.40324" lon="5.39047">
        <ele>777.6</ele>
        <time>2021-05-23T18:07:42.076Z</time>
      </trkpt>
      <trkpt lat="44.40422" lon="5.39322">
        <ele>782.6</ele>
        <time>2021-05-23T18:08:02.076Z</time>
      </trkpt>
      <trkpt lat="44.40373" lon="5.39339">
        <ele>784.9</ele>
        <time>2021-05-23T18:08:22.076Z</time>
      </trkpt>
      <trkpt lat="44.40361" lon="5.39408">
        <ele>792.8</ele>
        <time>2021-05-23T18:08:42.076Z</time>
      </trkpt>
      <trkpt lat="44.40397" lon="5.39391">
        <ele>797.2</ele>
        <time>2021-05-23T18:09:02.076Z</time>
      </trkpt>
      <trkpt lat="44.40434" lon="5.39408">
        <ele>801.7</ele>
        <time>2021-05-23T18:09:22.076Z</time>
      </trkpt>
      <trkpt lat="44.40483" lon="5.39476">
        <ele>817</ele>
        <time>2021-05-23T18:09:42.076Z</time>
      </trkpt>
      <trkpt lat="44.40532" lon="5.39648">
        <ele>849.4</ele>
        <time>2021-05-23T18:10:02.076Z</time>
      </trkpt>
      <trkpt lat="44.4063" lon="5.39751">
        <ele>872.2</ele>
        <time>2021-05-23T18:10:22.076Z</time>
      </trkpt>
      <trkpt lat="44.40679" lon="5.39734">
        <ele>882.2</ele>
        <time>2021-05-23T18:10:42.076Z</time>
      </trkpt>
      <trkpt lat="44.40814" lon="5.3982">
        <ele>914.1</ele>
        <time>2021-05-23T18:11:02.076Z</time>
      </trkpt>
      <trkpt lat="44.4079" lon="5.39854">
        <ele>922</ele>
        <time>2021-05-23T18:11:22.076Z</time>
      </trkpt>
      <trkpt lat="44.40814" lon="5.40094">
        <ele>938.5</ele>
        <time>2021-05-23T18:11:42.076Z</time>
      </trkpt>
      <trkpt lat="44.40888" lon="5.40421">
        <ele>967.5</ele>
        <time>2021-05-23T18:12:02.076Z</time>
      </trkpt>
      <trkpt lat="44.40962" lon="5.40644">
        <ele>991.1</ele>
        <time>2021-05-23T18:12:22.076Z</time>
      </trkpt>
      <trkpt lat="44.41182" lon="5.4097">
        <ele>1029.6</ele>
        <time>2021-05-23T18:12:42.076Z</time>
      </trkpt>
      <trkpt lat="44.41268" lon="5.41056">
        <ele>1043.4</ele>
        <time>2021-05-23T18:13:02.076Z</time>
      </trkpt>
      <trkpt lat="44.41317" lon="5.41056">
        <ele>1035.2</ele>
        <time>2021-05-23T18:13:22.076Z</time>
      </trkpt>
      <trkpt lat="44.41366" lon="5.41142">
        <ele>1049.1</ele>
        <time>2021-05-23T18:13:42.076Z</time>
      </trkpt>
      <trkpt lat="44.41538" lon="5.41365">
        <ele>1095.7</ele>
        <time>2021-05-23T18:14:02.076Z</time>
      </trkpt>
      <trkpt lat="44.41611" lon="5.41313">
        <ele>1101.6</ele>
        <time>2021-05-23T18:14:22.076Z</time>
      </trkpt>
      <trkpt lat="44.41648" lon="5.4133">
        <ele>1104.3</ele>
        <time>2021-05-23T18:14:42.076Z</time>
      </trkpt>
      <trkpt lat="44.4166" lon="5.41382">
        <ele>1108.4</ele>
        <time>2021-05-23T18:15:02.076Z</time>
      </trkpt>
      <trkpt lat="44.41599" lon="5.41519">
        <ele>1110.4</ele>
        <time>2021-05-23T18:15:22.076Z</time>
      </trkpt>
      <trkpt lat="44.41526" lon="5.41794">
        <ele>1128</ele>
        <time>2021-05-23T18:15:42.076Z</time>
      </trkpt>
      <trkpt lat="44.41501" lon="5.41966">
        <ele>1139.7</ele>
        <time>2021-05-23T18:16:02.076Z</time>
      </trkpt>
      <trkpt lat="44.41464" lon="5.42017">
        <ele>1127.8</ele>
        <time>2021-05-23T18:16:22.076Z</time>
      </trkpt>
      <trkpt lat="44.41452" lon="5.41983">
        <ele>1124</ele>
        <time>2021-05-23T18:16:42.076Z</time>
      </trkpt>
      <trkpt lat="44.41317" lon="5.4188">
        <ele>1100.3</ele>
        <time>2021-05-23T18:17:02.076Z</time>
      </trkpt>
      <trkpt lat="44.41158" lon="5.41811">
        <ele>1070.4</ele>
        <time>2021-05-23T18:17:22.076Z</time>
      </trkpt>
      <trkpt lat="44.41072" lon="5.41845">
        <ele>1050.9</ele>
        <time>2021-05-23T18:17:42.076Z</time>
      </trkpt>
      <trkpt lat="44.40962" lon="5.41966">
        <ele>1013.1</ele>
        <time>2021-05-23T18:18:02.076Z</time>
      </trkpt>
      <trkpt lat="44.41072" lon="5.41966">
        <ele>1018.7</ele>
        <time>2021-05-23T18:18:22.076Z</time>
      </trkpt>
      <trkpt lat="44.41072" lon="5.42051">
        <ele>996.1</ele>
        <time>2021-05-23T18:18:42.076Z</time>
      </trkpt>
      <trkpt lat="44.41035" lon="5.42017">
        <ele>997.4</ele>
        <time>2021-05-23T18:19:02.076Z</time>
      </trkpt>
      <trkpt lat="44.40998" lon="5.42069">
        <ele>981.9</ele>
        <time>2021-05-23T18:19:22.076Z</time>
      </trkpt>
      <trkpt lat="44.40949" lon="5.42069">
        <ele>976.8</ele>
        <time>2021-05-23T18:19:42.076Z</time>
      </trkpt>
      <trkpt lat="44.40937" lon="5.42051">
        <ele>982</ele>
        <time>2021-05-23T18:20:02.076Z</time>
      </trkpt>
      <trkpt lat="44.40814" lon="5.4212">
        <ele>957.6</ele>
        <time>2021-05-23T18:20:22.076Z</time>
      </trkpt>
      <trkpt lat="44.4063" lon="5.4224">
        <ele>918.7</ele>
        <time>2021-05-23T18:20:42.076Z</time>
      </trkpt>
      <trkpt lat="44.40483" lon="5.42395">
        <ele>879.4</ele>
        <time>2021-05-23T18:21:02.076Z</time>
      </trkpt>
      <trkpt lat="44.40312" lon="5.42446">
        <ele>849</ele>
        <time>2021-05-23T18:21:22.076Z</time>
      </trkpt>
      <trkpt lat="44.40091" lon="5.42635">
        <ele>801.2</ele>
        <time>2021-05-23T18:21:42.076Z</time>
      </trkpt>
      <trkpt lat="44.40029" lon="5.42635">
        <ele>795.4</ele>
        <time>2021-05-23T18:22:02.076Z</time>
      </trkpt>
      <trkpt lat="44.39956" lon="5.42669">
        <ele>800.4</ele>
        <time>2021-05-23T18:22:22.076Z</time>
      </trkpt>
      <trkpt lat="44.39931" lon="5.42738">
        <ele>777.7</ele>
        <time>2021-05-23T18:22:42.076Z</time>
      </trkpt>
      <trkpt lat="44.3976" lon="5.4279">
        <ele>757.7</ele>
        <time>2021-05-23T18:23:02.076Z</time>
      </trkpt>
      <trkpt lat="44.39649" lon="5.42721">
        <ele>742</ele>
        <time>2021-05-23T18:23:22.076Z</time>
      </trkpt>
      <trkpt lat="44.39625" lon="5.42669">
        <ele>746.2</ele>
        <time>2021-05-23T18:23:42.076Z</time>
      </trkpt>
      <trkpt lat="44.39551" lon="5.42687">
        <ele>731.6</ele>
        <time>2021-05-23T18:24:02.076Z</time>
      </trkpt>
      <trkpt lat="44.39551" lon="5.42721">
        <ele>725.4</ele>
        <time>2021-05-23T18:24:22.076Z</time>
      </trkpt>
      <trkpt lat="44.39588" lon="5.42738">
        <ele>728.3</ele>
        <time>2021-05-23T18:24:42.076Z</time>
      </trkpt>
      <trkpt lat="44.39576" lon="5.42772">
        <ele>720.3</ele>
        <time>2021-05-23T18:25:02.076Z</time>
      </trkpt>
      <trkpt lat="44.39625" lon="5.42927">
        <ele>709.5</ele>
        <time>2021-05-23T18:25:22.076Z</time>
      </trkpt>
      <trkpt lat="44.396" lon="5.42927">
        <ele>704.2</ele>
        <time>2021-05-23T18:25:42.076Z</time>
      </trkpt>
      <trkpt lat="44.39576" lon="5.42893">
        <ele>702.8</ele>
        <time>2021-05-23T18:26:02.076Z</time>
      </trkpt>
      <trkpt lat="44.39502" lon="5.42841">
        <ele>695.1</ele>
        <time>2021-05-23T18:26:22.076Z</time>
      </trkpt>
      <trkpt lat="44.39514" lon="5.42944">
        <ele>687.2</ele>
        <time>2021-05-23T18:26:42.076Z</time>
      </trkpt>
      <trkpt lat="44.39539" lon="5.42996">
        <ele>684.7</ele>
        <time>2021-05-23T18:27:02.076Z</time>
      </trkpt>
      <trkpt lat="44.39514" lon="5.43013">
        <ele>680.3</ele>
        <time>2021-05-23T18:27:22.076Z</time>
      </trkpt>
      <trkpt lat="44.39453" lon="5.42996">
        <ele>673.5</ele>
        <time>2021-05-23T18:27:42.076Z</time>
      </trkpt>
      <trkpt lat="44.39453" lon="5.43047">
        <ele>667.7</ele>
        <time>2021-05-23T18:28:02.076Z</time>
      </trkpt>
      <trkpt lat="44.39416" lon="5.4303">
        <ele>663.8</ele>
        <time>2021-05-23T18:28:22.076Z</time>
      </trkpt>
      <trkpt lat="44.39404" lon="5.43064">
        <ele>659.3</ele>
        <time>2021-05-23T18:28:42.076Z</time>
      </trkpt>
      <trkpt lat="44.3933" lon="5.43116">
        <ele>650</ele>
        <time>2021-05-23T18:29:02.076Z</time>
      </trkpt>
      <trkpt lat="44.39269" lon="5.43099">
        <ele>638.7</ele>
        <time>2021-05-23T18:29:22.076Z</time>
      </trkpt>
      <trkpt lat="44.39257" lon="5.43116">
        <ele>635</ele>
        <time>2021-05-23T18:29:42.076Z</time>
      </trkpt>
      <trkpt lat="44.3922" lon="5.43047">
        <ele>635.4</ele>
        <time>2021-05-23T18:30:02.076Z</time>
      </trkpt>
      <trkpt lat="44.39171" lon="5.4303">
        <ele>632.3</ele>
        <time>2021-05-23T18:30:22.076Z</time>
      </trkpt>
      <trkpt lat="44.39073" lon="5.4303">
        <ele>624.4</ele>
        <time>2021-05-23T18:30:42.076Z</time>
      </trkpt>
      <trkpt lat="44.38938" lon="5.42944">
        <ele>629</ele>
        <time>2021-05-23T18:31:02.076Z</time>
      </trkpt>
      <trkpt lat="44.38766" lon="5.42978">
        <ele>613.5</ele>
        <time>2021-05-23T18:31:22.076Z</time>
      </trkpt>
      <trkpt lat="44.3884" lon="5.43013">
        <ele>605</ele>
        <time>2021-05-23T18:31:42.076Z</time>
      </trkpt>
      <trkpt lat="44.38717" lon="5.43047">
        <ele>596.7</ele>
        <time>2021-05-23T18:32:02.076Z</time>
      </trkpt>
      <trkpt lat="44.38533" lon="5.4327">
        <ele>565.6</ele>
        <time>2021-05-23T18:32:22.076Z</time>
      </trkpt>
      <trkpt lat="44.3841" lon="5.43167">
        <ele>556.3</ele>
        <time>2021-05-23T18:32:42.076Z</time>
      </trkpt>
      <trkpt lat="44.38361" lon="5.4315">
        <ele>551.7</ele>
        <time>2021-05-23T18:33:02.076Z</time>
      </trkpt>
      <trkpt lat="44.38374" lon="5.43253">
        <ele>550.2</ele>
        <time>2021-05-23T18:33:22.076Z</time>
      </trkpt>
      <trkpt lat="44.38349" lon="5.43253">
        <ele>549</ele>
        <time>2021-05-23T18:33:42.076Z</time>
      </trkpt>
      <trkpt lat="44.38239" lon="5.4339">
        <ele>570.9</ele>
        <time>2021-05-23T18:34:02.076Z</time>
      </trkpt>
      <trkpt lat="44.3814" lon="5.43631">
        <ele>570.3</ele>
        <time>2021-05-23T18:34:22.076Z</time>
      </trkpt>
      <trkpt lat="44.38104" lon="5.43682">
        <ele>566.3</ele>
        <time>2021-05-23T18:34:42.076Z</time>
      </trkpt>
      <trkpt lat="44.37883" lon="5.43717">
        <ele>543.2</ele>
        <time>2021-05-23T18:35:02.076Z</time>
      </trkpt>
      <trkpt lat="44.37871" lon="5.4382">
        <ele>543.3</ele>
        <time>2021-05-23T18:35:22.076Z</time>
      </trkpt>
      <trkpt lat="44.37993" lon="5.44609">
        <ele>554.5</ele>
        <time>2021-05-23T18:35:42.076Z</time>
      </trkpt>
      <trkpt lat="44.38165" lon="5.44541">
        <ele>560.5</ele>
        <time>2021-05-23T18:36:02.076Z</time>
      </trkpt>
      <trkpt lat="44.38251" lon="5.44626">
        <ele>561.1</ele>
        <time>2021-05-23T18:36:22.076Z</time>
      </trkpt>
      <trkpt lat="44.38324" lon="5.44592">
        <ele>569.9</ele>
        <time>2021-05-23T18:36:42.076Z</time>
      </trkpt>
      <trkpt lat="44.38374" lon="5.44541">
        <ele>576.7</ele>
        <time>2021-05-23T18:37:02.076Z</time>
      </trkpt>
      <trkpt lat="44.38435" lon="5.44661">
        <ele>573.3</ele>
        <time>2021-05-23T18:37:22.076Z</time>
      </trkpt>
      <trkpt lat="44.38619" lon="5.44764">
        <ele>577.1</ele>
        <time>2021-05-23T18:37:42.076Z</time>
      </trkpt>
      <trkpt lat="44.38717" lon="5.44746">
        <ele>581</ele>
        <time>2021-05-23T18:38:02.076Z</time>
      </trkpt>
      <trkpt lat="44.38803" lon="5.44798">
        <ele>582.7</ele>
        <time>2021-05-23T18:38:22.076Z</time>
      </trkpt>
      <trkpt lat="44.38876" lon="5.44781">
        <ele>585.4</ele>
        <time>2021-05-23T18:38:42.076Z</time>
      </trkpt>
      <trkpt lat="44.39048" lon="5.44798">
        <ele>592.6</ele>
        <time>2021-05-23T18:39:02.076Z</time>
      </trkpt>
      <trkpt lat="44.3911" lon="5.44746">
        <ele>595.8</ele>
        <time>2021-05-23T18:39:22.076Z</time>
      </trkpt>
      <trkpt lat="44.39232" lon="5.44832">
        <ele>599.9</ele>
        <time>2021-05-23T18:39:42.076Z</time>
      </trkpt>
      <trkpt lat="44.39281" lon="5.44815">
        <ele>604.2</ele>
        <time>2021-05-23T18:40:02.076Z</time>
      </trkpt>
      <trkpt lat="44.3949" lon="5.44918">
        <ele>600.1</ele>
        <time>2021-05-23T18:40:22.076Z</time>
      </trkpt>
      <trkpt lat="44.3949" lon="5.44987">
        <ele>609.3</ele>
        <time>2021-05-23T18:40:42.076Z</time>
      </trkpt>
      <trkpt lat="44.39428" lon="5.45021">
        <ele>610.3</ele>
        <time>2021-05-23T18:41:02.076Z</time>
      </trkpt>
      <trkpt lat="44.39563" lon="5.45021">
        <ele>637.3</ele>
        <time>2021-05-23T18:41:22.076Z</time>
      </trkpt>
      <trkpt lat="44.39674" lon="5.4509">
        <ele>661.7</ele>
        <time>2021-05-23T18:41:42.076Z</time>
      </trkpt>
      <trkpt lat="44.39711" lon="5.45158">
        <ele>673.5</ele>
        <time>2021-05-23T18:42:02.076Z</time>
      </trkpt>
      <trkpt lat="44.39735" lon="5.45399">
        <ele>692</ele>
        <time>2021-05-23T18:42:22.076Z</time>
      </trkpt>
      <trkpt lat="44.39723" lon="5.45485">
        <ele>693.7</ele>
        <time>2021-05-23T18:42:42.076Z</time>
      </trkpt>
      <trkpt lat="44.39735" lon="5.45536">
        <ele>692.8</ele>
        <time>2021-05-23T18:43:02.076Z</time>
      </trkpt>
      <trkpt lat="44.39833" lon="5.4557">
        <ele>696.3</ele>
        <time>2021-05-23T18:43:22.076Z</time>
      </trkpt>
      <trkpt lat="44.39919" lon="5.45553">
        <ele>700.2</ele>
        <time>2021-05-23T18:43:42.076Z</time>
      </trkpt>
      <trkpt lat="44.39772" lon="5.45656">
        <ele>693.2</ele>
        <time>2021-05-23T18:44:02.076Z</time>
      </trkpt>
      <trkpt lat="44.39735" lon="5.45931">
        <ele>708</ele>
        <time>2021-05-23T18:44:22.076Z</time>
      </trkpt>
      <trkpt lat="44.39662" lon="5.45931">
        <ele>702.2</ele>
        <time>2021-05-23T18:44:42.076Z</time>
      </trkpt>
      <trkpt lat="44.39563" lon="5.46">
        <ele>703.1</ele>
        <time>2021-05-23T18:45:02.076Z</time>
      </trkpt>
      <trkpt lat="44.39551" lon="5.4624">
        <ele>707.9</ele>
        <time>2021-05-23T18:45:22.076Z</time>
      </trkpt>
      <trkpt lat="44.39527" lon="5.46343">
        <ele>706.1</ele>
        <time>2021-05-23T18:45:42.076Z</time>
      </trkpt>
      <trkpt lat="44.39576" lon="5.46515">
        <ele>697.8</ele>
        <time>2021-05-23T18:46:02.076Z</time>
      </trkpt>
      <trkpt lat="44.39539" lon="5.466">
        <ele>703</ele>
        <time>2021-05-23T18:46:22.076Z</time>
      </trkpt>
      <trkpt lat="44.39551" lon="5.46686">
        <ele>708.1</ele>
        <time>2021-05-23T18:46:42.076Z</time>
      </trkpt>
      <trkpt lat="44.39527" lon="5.46738">
        <ele>709.5</ele>
        <time>2021-05-23T18:47:02.076Z</time>
      </trkpt>
      <trkpt lat="44.39416" lon="5.46824">
        <ele>707.8</ele>
        <time>2021-05-23T18:47:22.076Z</time>
      </trkpt>
      <trkpt lat="44.39367" lon="5.46995">
        <ele>712</ele>
        <time>2021-05-23T18:47:42.076Z</time>
      </trkpt>
      <trkpt lat="44.39257" lon="5.47081">
        <ele>706.5</ele>
        <time>2021-05-23T18:48:02.076Z</time>
      </trkpt>
      <trkpt lat="44.39257" lon="5.47115">
        <ele>705.3</ele>
        <time>2021-05-23T18:48:03.615Z</time>
      </trkpt>
      <trkpt lat="44.39284" lon="5.47177">
        <ele>702.1</ele>
        <time>2021-05-23T18:48:06.894Z</time>
      </trkpt>
      <trkpt lat="44.3931" lon="5.47239">
        <ele>698.8</ele>
        <time>2021-05-23T18:48:10.173Z</time>
      </trkpt>
      <trkpt lat="44.39305" lon="5.47269">
        <ele>695.5</ele>
        <time>2021-05-23T18:48:11.564Z</time>
      </trkpt>
      <trkpt lat="44.39301" lon="5.47299">
        <ele>693.4</ele>
        <time>2021-05-23T18:48:12.955Z</time>
      </trkpt>
      <trkpt lat="44.3931" lon="5.47383">
        <ele>690.2</ele>
        <time>2021-05-23T18:48:16.789Z</time>
      </trkpt>
      <trkpt lat="44.39319" lon="5.47467">
        <ele>691.3</ele>
        <time>2021-05-23T18:48:21.884Z</time>
      </trkpt>
      <trkpt lat="44.39316" lon="5.47503">
        <ele>693.7</ele>
        <time>2021-05-23T18:48:24.094Z</time>
      </trkpt>
      <trkpt lat="44.39313" lon="5.4754">
        <ele>695.9</ele>
        <time>2021-05-23T18:48:26.106Z</time>
      </trkpt>
      <trkpt lat="44.39289" lon="5.47557">
        <ele>697.7</ele>
        <time>2021-05-23T18:48:28.209Z</time>
      </trkpt>
      <trkpt lat="44.39264" lon="5.47574">
        <ele>703.1</ele>
        <time>2021-05-23T18:48:30.312Z</time>
      </trkpt>
      <trkpt lat="44.39256" lon="5.47649">
        <ele>712.2</ele>
        <time>2021-05-23T18:48:34.469Z</time>
      </trkpt>
      <trkpt lat="44.39249" lon="5.47724">
        <ele>722.2</ele>
        <time>2021-05-23T18:48:41.249Z</time>
      </trkpt>
      <trkpt lat="44.3923" lon="5.47707">
        <ele>721.9</ele>
        <time>2021-05-23T18:48:44.087Z</time>
      </trkpt>
      <trkpt lat="44.39211" lon="5.47689">
        <ele>722.8</ele>
        <time>2021-05-23T18:48:47.306Z</time>
      </trkpt>
      <trkpt lat="44.39206" lon="5.47746">
        <ele>725.1</ele>
        <time>2021-05-23T18:48:53.114Z</time>
      </trkpt>
      <trkpt lat="44.39206" lon="5.47754">
        <ele>725.1</ele>
        <time>2021-05-23T18:48:53.821Z</time>
      </trkpt>
      <trkpt lat="44.39249" lon="5.47797">
        <ele>731.8</ele>
        <time>2021-05-23T18:49:00.284Z</time>
      </trkpt>
      <trkpt lat="44.39292" lon="5.4784">
        <ele>743.3</ele>
        <time>2021-05-23T18:49:06.747Z</time>
      </trkpt>
      <trkpt lat="44.39328" lon="5.47817">
        <ele>751</ele>
        <time>2021-05-23T18:49:11.706Z</time>
      </trkpt>
      <trkpt lat="44.39365" lon="5.47793">
        <ele>759</ele>
        <time>2021-05-23T18:49:16.791Z</time>
      </trkpt>
      <trkpt lat="44.39439" lon="5.47819">
        <ele>783.6</ele>
        <time>2021-05-23T18:49:26.321Z</time>
      </trkpt>
      <trkpt lat="44.39512" lon="5.47844">
        <ele>800.5</ele>
        <time>2021-05-23T18:49:35.239Z</time>
      </trkpt>
      <trkpt lat="44.39548" lon="5.47885">
        <ele>809.3</ele>
        <time>2021-05-23T18:49:40.616Z</time>
      </trkpt>
      <trkpt lat="44.39583" lon="5.47926">
        <ele>816.9</ele>
        <time>2021-05-23T18:49:45.864Z</time>
      </trkpt>
      <trkpt lat="44.39614" lon="5.47982">
        <ele>826.4</ele>
        <time>2021-05-23T18:49:51.634Z</time>
      </trkpt>
      <trkpt lat="44.39644" lon="5.48038">
        <ele>833.7</ele>
        <time>2021-05-23T18:49:57.787Z</time>
      </trkpt>
      <trkpt lat="44.39681" lon="5.48113">
        <ele>851.6</ele>
        <time>2021-05-23T18:50:05.747Z</time>
      </trkpt>
      <trkpt lat="44.39718" lon="5.48188">
        <ele>864.2</ele>
        <time>2021-05-23T18:50:14.248Z</time>
      </trkpt>
      <trkpt lat="44.39753" lon="5.48188">
        <ele>872.1</ele>
        <time>2021-05-23T18:50:18.855Z</time>
      </trkpt>
      <trkpt lat="44.39788" lon="5.48188">
        <ele>879.9</ele>
        <time>2021-05-23T18:50:23.755Z</time>
      </trkpt>
      <trkpt lat="44.39836" lon="5.48296">
        <ele>908.3</ele>
        <time>2021-05-23T18:50:36.369Z</time>
      </trkpt>
      <trkpt lat="44.39883" lon="5.48405">
        <ele>937.5</ele>
        <time>2021-05-23T18:50:49.459Z</time>
      </trkpt>
      <trkpt lat="44.39926" lon="5.48505">
        <ele>947.4</ele>
        <time>2021-05-23T18:51:01.576Z</time>
      </trkpt>
      <trkpt lat="44.40015" lon="5.48477">
        <ele>972</ele>
        <time>2021-05-23T18:51:14.666Z</time>
      </trkpt>
      <trkpt lat="44.40103" lon="5.48449">
        <ele>1001.1</ele>
        <time>2021-05-23T18:51:28.379Z</time>
      </trkpt>
      <trkpt lat="44.40141" lon="5.48437">
        <ele>1009.6</ele>
        <time>2021-05-23T18:51:34.216Z</time>
      </trkpt>
      <trkpt lat="44.40156" lon="5.48402">
        <ele>1016.6</ele>
        <time>2021-05-23T18:51:38.586Z</time>
      </trkpt>
      <trkpt lat="44.40172" lon="5.48368">
        <ele>1021</ele>
        <time>2021-05-23T18:51:41.985Z</time>
      </trkpt>
      <trkpt lat="44.40221" lon="5.4834">
        <ele>1030.5</ele>
        <time>2021-05-23T18:51:48.207Z</time>
      </trkpt>
      <trkpt lat="44.4027" lon="5.48312">
        <ele>1034.4</ele>
        <time>2021-05-23T18:51:54.429Z</time>
      </trkpt>
      <trkpt lat="44.4036" lon="5.48329">
        <ele>1046.5</ele>
        <time>2021-05-23T18:52:05.095Z</time>
      </trkpt>
      <trkpt lat="44.4045" lon="5.48347">
        <ele>1057.3</ele>
        <time>2021-05-23T18:52:18.840Z</time>
      </trkpt>
      <trkpt lat="44.4054" lon="5.48364">
        <ele>1070.7</ele>
        <time>2021-05-23T18:52:32.585Z</time>
      </trkpt>
      <trkpt lat="44.40561" lon="5.48368">
        <ele>1072.5</ele>
        <time>2021-05-23T18:52:35.871Z</time>
      </trkpt>
      <trkpt lat="44.40648" lon="5.48404">
        <ele>1075.7</ele>
        <time>2021-05-23T18:52:49.615Z</time>
      </trkpt>
      <trkpt lat="44.40735" lon="5.48441">
        <ele>1086.8</ele>
        <time>2021-05-23T18:53:03.704Z</time>
      </trkpt>
      <trkpt lat="44.40745" lon="5.48445">
        <ele>1087</ele>
        <time>2021-05-23T18:53:05.339Z</time>
      </trkpt>
      <trkpt lat="44.40805" lon="5.4848">
        <ele>1087.4</ele>
        <time>2021-05-23T18:53:15.370Z</time>
      </trkpt>
      <trkpt lat="44.40865" lon="5.48514">
        <ele>1085.9</ele>
        <time>2021-05-23T18:53:20.362Z</time>
      </trkpt>
      <trkpt lat="44.40924" lon="5.48608">
        <ele>1086.2</ele>
        <time>2021-05-23T18:53:27.325Z</time>
      </trkpt>
      <trkpt lat="44.40984" lon="5.48703">
        <ele>1084.8</ele>
        <time>2021-05-23T18:53:34.288Z</time>
      </trkpt>
      <trkpt lat="44.41059" lon="5.48694">
        <ele>1077.5</ele>
        <time>2021-05-23T18:53:40.110Z</time>
      </trkpt>
      <trkpt lat="44.41134" lon="5.48686">
        <ele>1079.2</ele>
        <time>2021-05-23T18:53:50.051Z</time>
      </trkpt>
      <trkpt lat="44.41225" lon="5.48699">
        <ele>1087.1</ele>
        <time>2021-05-23T18:54:02.023Z</time>
      </trkpt>
      <trkpt lat="44.41315" lon="5.48712">
        <ele>1092.1</ele>
        <time>2021-05-23T18:54:09.838Z</time>
      </trkpt>
      <trkpt lat="44.41337" lon="5.48716">
        <ele>1091.1</ele>
        <time>2021-05-23T18:54:11.729Z</time>
      </trkpt>
      <trkpt lat="44.41419" lon="5.48722">
        <ele>1088.2</ele>
        <time>2021-05-23T18:54:18.814Z</time>
      </trkpt>
      <trkpt lat="44.41501" lon="5.48729">
        <ele>1085.5</ele>
        <time>2021-05-23T18:54:32.515Z</time>
      </trkpt>
      <trkpt lat="44.41534" lon="5.48735">
        <ele>1081.7</ele>
        <time>2021-05-23T18:54:38.129Z</time>
      </trkpt>
      <trkpt lat="44.41587" lon="5.48746">
        <ele>1080.2</ele>
        <time>2021-05-23T18:54:46.979Z</time>
      </trkpt>
      <trkpt lat="44.41685" lon="5.48901">
        <ele>1073.3</ele>
        <time>2021-05-23T18:55:06.979Z</time>
      </trkpt>
      <trkpt lat="44.41722" lon="5.48952">
        <ele>1065.2</ele>
        <time>2021-05-23T18:55:26.979Z</time>
      </trkpt>
      <trkpt lat="44.41771" lon="5.48952">
        <ele>1066.4</ele>
        <time>2021-05-23T18:55:46.979Z</time>
      </trkpt>
      <trkpt lat="44.41783" lon="5.4909">
        <ele>1043.7</ele>
        <time>2021-05-23T18:56:06.979Z</time>
      </trkpt>
      <trkpt lat="44.41869" lon="5.49244">
        <ele>1038.7</ele>
        <time>2021-05-23T18:56:26.979Z</time>
      </trkpt>
      <trkpt lat="44.42139" lon="5.49261">
        <ele>1033.7</ele>
        <time>2021-05-23T18:56:46.979Z</time>
      </trkpt>
      <trkpt lat="44.42139" lon="5.49433">
        <ele>1031.8</ele>
        <time>2021-05-23T18:57:06.979Z</time>
      </trkpt>
      <trkpt lat="44.42053" lon="5.49587">
        <ele>1023.4</ele>
        <time>2021-05-23T18:57:26.979Z</time>
      </trkpt>
      <trkpt lat="44.41992" lon="5.49931">
        <ele>1015</ele>
        <time>2021-05-23T18:57:46.979Z</time>
      </trkpt>
      <trkpt lat="44.42028" lon="5.49999">
        <ele>1022.3</ele>
        <time>2021-05-23T18:58:06.979Z</time>
      </trkpt>
      <trkpt lat="44.42016" lon="5.50205">
        <ele>1035.9</ele>
        <time>2021-05-23T18:58:26.979Z</time>
      </trkpt>
      <trkpt lat="44.42041" lon="5.50394">
        <ele>1053.9</ele>
        <time>2021-05-23T18:58:46.979Z</time>
      </trkpt>
      <trkpt lat="44.42028" lon="5.50686">
        <ele>1067.6</ele>
        <time>2021-05-23T18:59:06.979Z</time>
      </trkpt>
      <trkpt lat="44.42065" lon="5.50703">
        <ele>1077.8</ele>
        <time>2021-05-23T18:59:26.979Z</time>
      </trkpt>
      <trkpt lat="44.42065" lon="5.50789">
        <ele>1094.8</ele>
        <time>2021-05-23T18:59:46.979Z</time>
      </trkpt>
      <trkpt lat="44.42016" lon="5.50961">
        <ele>1117.6</ele>
        <time>2021-05-23T19:00:06.979Z</time>
      </trkpt>
      <trkpt lat="44.42139" lon="5.51098">
        <ele>1129.3</ele>
        <time>2021-05-23T19:00:26.979Z</time>
      </trkpt>
      <trkpt lat="44.42224" lon="5.51235">
        <ele>1122.6</ele>
        <time>2021-05-23T19:00:46.979Z</time>
      </trkpt>
      <trkpt lat="44.42212" lon="5.51338">
        <ele>1128</ele>
        <time>2021-05-23T19:01:06.979Z</time>
      </trkpt>
      <trkpt lat="44.42237" lon="5.51424">
        <ele>1134.2</ele>
        <time>2021-05-23T19:01:26.979Z</time>
      </trkpt>
      <trkpt lat="44.4231" lon="5.51561">
        <ele>1140.7</ele>
        <time>2021-05-23T19:01:46.979Z</time>
      </trkpt>
      <trkpt lat="44.42298" lon="5.51733">
        <ele>1163.1</ele>
        <time>2021-05-23T19:02:06.979Z</time>
      </trkpt>
      <trkpt lat="44.4231" lon="5.51991">
        <ele>1186.7</ele>
        <time>2021-05-23T19:02:26.979Z</time>
      </trkpt>
      <trkpt lat="44.42445" lon="5.52025">
        <ele>1275.2</ele>
        <time>2021-05-23T19:02:46.979Z</time>
      </trkpt>
      <trkpt lat="44.42482" lon="5.51973">
        <ele>1298.7</ele>
        <time>2021-05-23T19:03:06.979Z</time>
      </trkpt>
      <trkpt lat="44.42506" lon="5.51991">
        <ele>1315.1</ele>
        <time>2021-05-23T19:03:26.979Z</time>
      </trkpt>
      <trkpt lat="44.42531" lon="5.52042">
        <ele>1326</ele>
        <time>2021-05-23T19:03:46.979Z</time>
      </trkpt>
      <trkpt lat="44.4258" lon="5.52265">
        <ele>1289.1</ele>
        <time>2021-05-23T19:04:06.979Z</time>
      </trkpt>
      <trkpt lat="44.42654" lon="5.52059">
        <ele>1249.8</ele>
        <time>2021-05-23T19:04:26.979Z</time>
      </trkpt>
      <trkpt lat="44.42752" lon="5.51922">
        <ele>1210.3</ele>
        <time>2021-05-23T19:04:46.979Z</time>
      </trkpt>
      <trkpt lat="44.4285" lon="5.5175">
        <ele>1180.2</ele>
        <time>2021-05-23T19:05:06.979Z</time>
      </trkpt>
      <trkpt lat="44.43046" lon="5.51544">
        <ele>1144.8</ele>
        <time>2021-05-23T19:05:26.979Z</time>
      </trkpt>
      <trkpt lat="44.43095" lon="5.51527">
        <ele>1132.8</ele>
        <time>2021-05-23T19:05:46.979Z</time>
      </trkpt>
      <trkpt lat="44.43107" lon="5.51544">
        <ele>1125.8</ele>
        <time>2021-05-23T19:06:06.979Z</time>
      </trkpt>
      <trkpt lat="44.43021" lon="5.51733">
        <ele>1108.1</ele>
        <time>2021-05-23T19:06:26.979Z</time>
      </trkpt>
      <trkpt lat="44.43009" lon="5.5187">
        <ele>1092.8</ele>
        <time>2021-05-23T19:06:46.979Z</time>
      </trkpt>
      <trkpt lat="44.43058" lon="5.51956">
        <ele>1082.2</ele>
        <time>2021-05-23T19:07:06.979Z</time>
      </trkpt>
      <trkpt lat="44.43034" lon="5.52179">
        <ele>1065.7</ele>
        <time>2021-05-23T19:07:26.979Z</time>
      </trkpt>
      <trkpt lat="44.43083" lon="5.523">
        <ele>1062.9</ele>
        <time>2021-05-23T19:07:46.979Z</time>
      </trkpt>
      <trkpt lat="44.43083" lon="5.52351">
        <ele>1062.5</ele>
        <time>2021-05-23T19:08:06.979Z</time>
      </trkpt>
      <trkpt lat="44.43132" lon="5.52437">
        <ele>1036.2</ele>
        <time>2021-05-23T19:08:26.979Z</time>
      </trkpt>
      <trkpt lat="44.43217" lon="5.52471">
        <ele>1027.3</ele>
        <time>2021-05-23T19:08:46.979Z</time>
      </trkpt>
      <trkpt lat="44.43315" lon="5.52437">
        <ele>1017.2</ele>
        <time>2021-05-23T19:09:06.979Z</time>
      </trkpt>
      <trkpt lat="44.43365" lon="5.52506">
        <ele>1016.9</ele>
        <time>2021-05-23T19:09:26.979Z</time>
      </trkpt>
      <trkpt lat="44.43463" lon="5.52506">
        <ele>1009</ele>
        <time>2021-05-23T19:09:46.979Z</time>
      </trkpt>
      <trkpt lat="44.43487" lon="5.52557">
        <ele>1011.1</ele>
        <time>2021-05-23T19:10:06.979Z</time>
      </trkpt>
      <trkpt lat="44.43524" lon="5.52471">
        <ele>996.1</ele>
        <time>2021-05-23T19:10:26.979Z</time>
      </trkpt>
      <trkpt lat="44.43573" lon="5.52523">
        <ele>993</ele>
        <time>2021-05-23T19:10:46.979Z</time>
      </trkpt>
      <trkpt lat="44.43585" lon="5.52403">
        <ele>974.3</ele>
        <time>2021-05-23T19:11:06.979Z</time>
      </trkpt>
      <trkpt lat="44.43634" lon="5.52437">
        <ele>967.5</ele>
        <time>2021-05-23T19:11:26.979Z</time>
      </trkpt>
      <trkpt lat="44.43646" lon="5.52385">
        <ele>958.8</ele>
        <time>2021-05-23T19:11:46.979Z</time>
      </trkpt>
      <trkpt lat="44.43683" lon="5.52437">
        <ele>958.6</ele>
        <time>2021-05-23T19:12:06.979Z</time>
      </trkpt>
      <trkpt lat="44.43867" lon="5.52454">
        <ele>941.9</ele>
        <time>2021-05-23T19:12:26.979Z</time>
      </trkpt>
      <trkpt lat="44.4421" lon="5.523">
        <ele>905.5</ele>
        <time>2021-05-23T19:12:46.979Z</time>
      </trkpt>
      <trkpt lat="44.44504" lon="5.52214">
        <ele>869.8</ele>
        <time>2021-05-23T19:13:06.979Z</time>
      </trkpt>
      <trkpt lat="44.4459" lon="5.52214">
        <ele>858.4</ele>
        <time>2021-05-23T19:13:26.979Z</time>
      </trkpt>
      <trkpt lat="44.44639" lon="5.52368">
        <ele>843.8</ele>
        <time>2021-05-23T19:13:46.979Z</time>
      </trkpt>
      <trkpt lat="44.44713" lon="5.5242">
        <ele>837.3</ele>
        <time>2021-05-23T19:14:06.979Z</time>
      </trkpt>
      <trkpt lat="44.44762" lon="5.52437">
        <ele>828.7</ele>
        <time>2021-05-23T19:14:26.979Z</time>
      </trkpt>
      <trkpt lat="44.44774" lon="5.52454">
        <ele>827.4</ele>
        <time>2021-05-23T19:14:46.979Z</time>
      </trkpt>
      <trkpt lat="44.44725" lon="5.52626">
        <ele>823.3</ele>
        <time>2021-05-23T19:15:06.979Z</time>
      </trkpt>
      <trkpt lat="44.44688" lon="5.52677">
        <ele>817.7</ele>
        <time>2021-05-23T19:15:26.979Z</time>
      </trkpt>
      <trkpt lat="44.44664" lon="5.52643">
        <ele>822.3</ele>
        <time>2021-05-23T19:15:46.979Z</time>
      </trkpt>
      <trkpt lat="44.44676" lon="5.5278">
        <ele>802.1</ele>
        <time>2021-05-23T19:16:06.979Z</time>
      </trkpt>
      <trkpt lat="44.44627" lon="5.52712">
        <ele>804.7</ele>
        <time>2021-05-23T19:16:26.979Z</time>
      </trkpt>
      <trkpt lat="44.44602" lon="5.52729">
        <ele>798.4</ele>
        <time>2021-05-23T19:16:46.979Z</time>
      </trkpt>
      <trkpt lat="44.44688" lon="5.529">
        <ele>783.8</ele>
        <time>2021-05-23T19:17:06.979Z</time>
      </trkpt>
      <trkpt lat="44.44713" lon="5.529">
        <ele>778.8</ele>
        <time>2021-05-23T19:17:26.979Z</time>
      </trkpt>
      <trkpt lat="44.44737" lon="5.52815">
        <ele>783.2</ele>
        <time>2021-05-23T19:17:46.979Z</time>
      </trkpt>
      <trkpt lat="44.44774" lon="5.52883">
        <ele>773.9</ele>
        <time>2021-05-23T19:18:06.979Z</time>
      </trkpt>
      <trkpt lat="44.44786" lon="5.53003">
        <ele>763.3</ele>
        <time>2021-05-23T19:18:26.979Z</time>
      </trkpt>
      <trkpt lat="44.44946" lon="5.53381">
        <ele>759</ele>
        <time>2021-05-23T19:18:46.979Z</time>
      </trkpt>
      <trkpt lat="44.45031" lon="5.5369">
        <ele>752.7</ele>
        <time>2021-05-23T19:19:06.979Z</time>
      </trkpt>
      <trkpt lat="44.45129" lon="5.53759">
        <ele>756.6</ele>
        <time>2021-05-23T19:19:26.979Z</time>
      </trkpt>
      <trkpt lat="44.45105" lon="5.54033">
        <ele>771.9</ele>
        <time>2021-05-23T19:19:46.979Z</time>
      </trkpt>
      <trkpt lat="44.45019" lon="5.54308">
        <ele>775</ele>
        <time>2021-05-23T19:20:06.979Z</time>
      </trkpt>
      <trkpt lat="44.45203" lon="5.54411">
        <ele>794.9</ele>
        <time>2021-05-23T19:20:26.979Z</time>
      </trkpt>
      <trkpt lat="44.45289" lon="5.54514">
        <ele>805.7</ele>
        <time>2021-05-23T19:20:46.979Z</time>
      </trkpt>
      <trkpt lat="44.4535" lon="5.54428">
        <ele>810.3</ele>
        <time>2021-05-23T19:21:06.979Z</time>
      </trkpt>
      <trkpt lat="44.45338" lon="5.5448">
        <ele>809.4</ele>
        <time>2021-05-23T19:21:26.979Z</time>
      </trkpt>
      <trkpt lat="44.45387" lon="5.54566">
        <ele>814.6</ele>
        <time>2021-05-23T19:21:46.979Z</time>
      </trkpt>
      <trkpt lat="44.4546" lon="5.54634">
        <ele>820.5</ele>
        <time>2021-05-23T19:22:06.979Z</time>
      </trkpt>
      <trkpt lat="44.45497" lon="5.54703">
        <ele>829.3</ele>
        <time>2021-05-23T19:22:26.979Z</time>
      </trkpt>
      <trkpt lat="44.45497" lon="5.5484">
        <ele>832</ele>
        <time>2021-05-23T19:22:46.979Z</time>
      </trkpt>
      <trkpt lat="44.45546" lon="5.54875">
        <ele>852.9</ele>
        <time>2021-05-23T19:23:06.979Z</time>
      </trkpt>
      <trkpt lat="44.4573" lon="5.55304">
        <ele>877.7</ele>
        <time>2021-05-23T19:23:26.979Z</time>
      </trkpt>
      <trkpt lat="44.45865" lon="5.55561">
        <ele>912.1</ele>
        <time>2021-05-23T19:23:46.979Z</time>
      </trkpt>
      <trkpt lat="44.45865" lon="5.55647">
        <ele>927.2</ele>
        <time>2021-05-23T19:24:06.979Z</time>
      </trkpt>
      <trkpt lat="44.45828" lon="5.55733">
        <ele>932</ele>
        <time>2021-05-23T19:24:26.979Z</time>
      </trkpt>
      <trkpt lat="44.45938" lon="5.55904">
        <ele>951.8</ele>
        <time>2021-05-23T19:24:46.979Z</time>
      </trkpt>
      <trkpt lat="44.45926" lon="5.56025">
        <ele>953</ele>
        <time>2021-05-23T19:25:06.979Z</time>
      </trkpt>
      <trkpt lat="44.46085" lon="5.56213">
        <ele>975.7</ele>
        <time>2021-05-23T19:25:26.979Z</time>
      </trkpt>
      <trkpt lat="44.46097" lon="5.56282">
        <ele>985.7</ele>
        <time>2021-05-23T19:25:46.979Z</time>
      </trkpt>
      <trkpt lat="44.46061" lon="5.56454">
        <ele>996.2</ele>
        <time>2021-05-23T19:26:06.979Z</time>
      </trkpt>
      <trkpt lat="44.46171" lon="5.56299">
        <ele>1013.1</ele>
        <time>2021-05-23T19:26:26.979Z</time>
      </trkpt>
      <trkpt lat="44.46097" lon="5.56522">
        <ele>1029</ele>
        <time>2021-05-23T19:26:46.979Z</time>
      </trkpt>
      <trkpt lat="44.46122" lon="5.56522">
        <ele>1043.1</ele>
        <time>2021-05-23T19:27:06.979Z</time>
      </trkpt>
      <trkpt lat="44.46195" lon="5.56437">
        <ele>1070.1</ele>
        <time>2021-05-23T19:27:26.979Z</time>
      </trkpt>
      <trkpt lat="44.46232" lon="5.56454">
        <ele>1086.1</ele>
        <time>2021-05-23T19:27:46.979Z</time>
      </trkpt>
      <trkpt lat="44.46232" lon="5.56591">
        <ele>1098.5</ele>
        <time>2021-05-23T19:28:06.979Z</time>
      </trkpt>
      <trkpt lat="44.46257" lon="5.56591">
        <ele>1110.5</ele>
        <time>2021-05-23T19:28:26.979Z</time>
      </trkpt>
      <trkpt lat="44.46269" lon="5.56557">
        <ele>1118.3</ele>
        <time>2021-05-23T19:28:46.979Z</time>
      </trkpt>
      <trkpt lat="44.46293" lon="5.56608">
        <ele>1129.8</ele>
        <time>2021-05-23T19:29:06.979Z</time>
      </trkpt>
      <trkpt lat="44.46391" lon="5.56746">
        <ele>1162.1</ele>
        <time>2021-05-23T19:29:26.979Z</time>
      </trkpt>
      <trkpt lat="44.46477" lon="5.5678">
        <ele>1190.5</ele>
        <time>2021-05-23T19:29:46.979Z</time>
      </trkpt>
      <trkpt lat="44.4644" lon="5.56814">
        <ele>1191.8</ele>
        <time>2021-05-23T19:30:06.979Z</time>
      </trkpt>
      <trkpt lat="44.4644" lon="5.56849">
        <ele>1201.1</ele>
        <time>2021-05-23T19:30:26.979Z</time>
      </trkpt>
      <trkpt lat="44.46477" lon="5.56831">
        <ele>1206.6</ele>
        <time>2021-05-23T19:30:46.979Z</time>
      </trkpt>
      <trkpt lat="44.46489" lon="5.56883">
        <ele>1222.6</ele>
        <time>2021-05-23T19:31:06.979Z</time>
      </trkpt>
      <trkpt lat="44.46477" lon="5.56917">
        <ele>1228</ele>
        <time>2021-05-23T19:31:26.979Z</time>
      </trkpt>
      <trkpt lat="44.46538" lon="5.56952">
        <ele>1246.1</ele>
        <time>2021-05-23T19:31:46.979Z</time>
      </trkpt>
      <trkpt lat="44.46587" lon="5.56986">
        <ele>1243.8</ele>
        <time>2021-05-23T19:32:06.979Z</time>
      </trkpt>
      <trkpt lat="44.46943" lon="5.56969">
        <ele>1254.9</ele>
        <time>2021-05-23T19:32:26.979Z</time>
      </trkpt>
      <trkpt lat="44.47102" lon="5.569">
        <ele>1247.1</ele>
        <time>2021-05-23T19:32:46.979Z</time>
      </trkpt>
      <trkpt lat="44.47445" lon="5.56814">
        <ele>1271</ele>
        <time>2021-05-23T19:33:06.979Z</time>
      </trkpt>
      <trkpt lat="44.47114" lon="5.57261">
        <ele>1329</ele>
        <time>2021-05-23T19:33:26.979Z</time>
      </trkpt>
      <trkpt lat="44.46992" lon="5.57467">
        <ele>1345.1</ele>
        <time>2021-05-23T19:33:46.979Z</time>
      </trkpt>
      <trkpt lat="44.46808" lon="5.57964">
        <ele>1378.5</ele>
        <time>2021-05-23T19:34:06.979Z</time>
      </trkpt>
      <trkpt lat="44.46796" lon="5.58102">
        <ele>1405.9</ele>
        <time>2021-05-23T19:34:26.979Z</time>
      </trkpt>
      <trkpt lat="44.46661" lon="5.58497">
        <ele>1433.3</ele>
        <time>2021-05-23T19:34:46.979Z</time>
      </trkpt>
      <trkpt lat="44.46575" lon="5.58565">
        <ele>1434.3</ele>
        <time>2021-05-23T19:35:06.979Z</time>
      </trkpt>
      <trkpt lat="44.46428" lon="5.58823">
        <ele>1458.1</ele>
        <time>2021-05-23T19:35:26.979Z</time>
      </trkpt>
      <trkpt lat="44.46465" lon="5.5896">
        <ele>1476.3</ele>
        <time>2021-05-23T19:35:46.979Z</time>
      </trkpt>
      <trkpt lat="44.46367" lon="5.59046">
        <ele>1469.8</ele>
        <time>2021-05-23T19:36:06.979Z</time>
      </trkpt>
      <trkpt lat="44.46159" lon="5.59475">
        <ele>1458</ele>
        <time>2021-05-23T19:36:26.979Z</time>
      </trkpt>
      <trkpt lat="44.46134" lon="5.59647">
        <ele>1468.2</ele>
        <time>2021-05-23T19:36:46.979Z</time>
      </trkpt>
      <trkpt lat="44.46085" lon="5.59681">
        <ele>1462.2</ele>
        <time>2021-05-23T19:37:06.979Z</time>
      </trkpt>
      <trkpt lat="44.46048" lon="5.59784">
        <ele>1465</ele>
        <time>2021-05-23T19:37:26.979Z</time>
      </trkpt>
      <trkpt lat="44.45987" lon="5.59784">
        <ele>1459.4</ele>
        <time>2021-05-23T19:37:46.979Z</time>
      </trkpt>
      <trkpt lat="44.45963" lon="5.59956">
        <ele>1474.8</ele>
        <time>2021-05-23T19:38:06.979Z</time>
      </trkpt>
      <trkpt lat="44.45901" lon="5.60059">
        <ele>1463.6</ele>
        <time>2021-05-23T19:38:26.979Z</time>
      </trkpt>
      <trkpt lat="44.45901" lon="5.60127">
        <ele>1468.9</ele>
        <time>2021-05-23T19:38:46.979Z</time>
      </trkpt>
      <trkpt lat="44.45865" lon="5.60196">
        <ele>1464.5</ele>
        <time>2021-05-23T19:39:06.979Z</time>
      </trkpt>
      <trkpt lat="44.45865" lon="5.60248">
        <ele>1469.7</ele>
        <time>2021-05-23T19:39:26.979Z</time>
      </trkpt>
      <trkpt lat="44.45767" lon="5.60385">
        <ele>1453.7</ele>
        <time>2021-05-23T19:39:46.979Z</time>
      </trkpt>
      <trkpt lat="44.45705" lon="5.60436">
        <ele>1449.4</ele>
        <time>2021-05-23T19:40:06.979Z</time>
      </trkpt>
      <trkpt lat="44.45644" lon="5.60522">
        <ele>1449.8</ele>
        <time>2021-05-23T19:40:26.979Z</time>
      </trkpt>
      <trkpt lat="44.45644" lon="5.60574">
        <ele>1450.7</ele>
        <time>2021-05-23T19:40:46.979Z</time>
      </trkpt>
      <trkpt lat="44.45681" lon="5.60711">
        <ele>1451.6</ele>
        <time>2021-05-23T19:41:06.979Z</time>
      </trkpt>
      <trkpt lat="44.45828" lon="5.60986">
        <ele>1448.6</ele>
        <time>2021-05-23T19:41:26.979Z</time>
      </trkpt>
      <trkpt lat="44.45828" lon="5.6102">
        <ele>1449.1</ele>
        <time>2021-05-23T19:41:46.979Z</time>
      </trkpt>
      <trkpt lat="44.45754" lon="5.61037">
        <ele>1440.3</ele>
        <time>2021-05-23T19:42:06.979Z</time>
      </trkpt>
      <trkpt lat="44.45693" lon="5.6114">
        <ele>1440</ele>
        <time>2021-05-23T19:42:26.979Z</time>
      </trkpt>
      <trkpt lat="44.45607" lon="5.61192">
        <ele>1430.5</ele>
        <time>2021-05-23T19:42:46.979Z</time>
      </trkpt>
      <trkpt lat="44.45595" lon="5.6138">
        <ele>1422.8</ele>
        <time>2021-05-23T19:43:06.979Z</time>
      </trkpt>
      <trkpt lat="44.45497" lon="5.61552">
        <ele>1390.1</ele>
        <time>2021-05-23T19:43:26.979Z</time>
      </trkpt>
      <trkpt lat="44.45387" lon="5.61621">
        <ele>1362.2</ele>
        <time>2021-05-23T19:43:46.979Z</time>
      </trkpt>
      <trkpt lat="44.4535" lon="5.61621">
        <ele>1358.8</ele>
        <time>2021-05-23T19:44:06.979Z</time>
      </trkpt>
      <trkpt lat="44.45264" lon="5.61672">
        <ele>1359.1</ele>
        <time>2021-05-23T19:44:26.979Z</time>
      </trkpt>
      <trkpt lat="44.45142" lon="5.61964">
        <ele>1341.9</ele>
        <time>2021-05-23T19:44:46.979Z</time>
      </trkpt>
      <trkpt lat="44.45068" lon="5.62256">
        <ele>1330.2</ele>
        <time>2021-05-23T19:45:06.979Z</time>
      </trkpt>
      <trkpt lat="44.4508" lon="5.62359">
        <ele>1306.2</ele>
        <time>2021-05-23T19:45:26.979Z</time>
      </trkpt>
      <trkpt lat="44.45252" lon="5.62462">
        <ele>1270.1</ele>
        <time>2021-05-23T19:45:46.979Z</time>
      </trkpt>
      <trkpt lat="44.45289" lon="5.62496">
        <ele>1261.5</ele>
        <time>2021-05-23T19:46:06.979Z</time>
      </trkpt>
      <trkpt lat="44.45313" lon="5.62479">
        <ele>1256.3</ele>
        <time>2021-05-23T19:46:26.979Z</time>
      </trkpt>
      <trkpt lat="44.45338" lon="5.62496">
        <ele>1250.4</ele>
        <time>2021-05-23T19:46:46.979Z</time>
      </trkpt>
      <trkpt lat="44.45436" lon="5.63011">
        <ele>1211.2</ele>
        <time>2021-05-23T19:47:06.979Z</time>
      </trkpt>
      <trkpt lat="44.45472" lon="5.6308">
        <ele>1212.7</ele>
        <time>2021-05-23T19:47:26.979Z</time>
      </trkpt>
      <trkpt lat="44.45472" lon="5.63149">
        <ele>1216.5</ele>
        <time>2021-05-23T19:47:46.979Z</time>
      </trkpt>
      <trkpt lat="44.45423" lon="5.63286">
        <ele>1212.4</ele>
        <time>2021-05-23T19:48:06.979Z</time>
      </trkpt>
      <trkpt lat="44.45411" lon="5.63423">
        <ele>1208.5</ele>
        <time>2021-05-23T19:48:26.979Z</time>
      </trkpt>
      <trkpt lat="44.45436" lon="5.63543">
        <ele>1200.1</ele>
        <time>2021-05-23T19:48:46.979Z</time>
      </trkpt>
      <trkpt lat="44.45521" lon="5.63732">
        <ele>1186.5</ele>
        <time>2021-05-23T19:49:06.979Z</time>
      </trkpt>
      <trkpt lat="44.45534" lon="5.63801">
        <ele>1185.4</ele>
        <time>2021-05-23T19:49:26.979Z</time>
      </trkpt>
      <trkpt lat="44.45485" lon="5.64127">
        <ele>1154.7</ele>
        <time>2021-05-23T19:49:46.979Z</time>
      </trkpt>
      <trkpt lat="44.45399" lon="5.64282">
        <ele>1129.6</ele>
        <time>2021-05-23T19:50:06.979Z</time>
      </trkpt>
      <trkpt lat="44.45387" lon="5.64505">
        <ele>1107.7</ele>
        <time>2021-05-23T19:50:26.979Z</time>
      </trkpt>
      <trkpt lat="44.45362" lon="5.64556">
        <ele>1092.4</ele>
        <time>2021-05-23T19:50:46.979Z</time>
      </trkpt>
      <trkpt lat="44.45325" lon="5.64728">
        <ele>1087.9</ele>
        <time>2021-05-23T19:51:06.979Z</time>
      </trkpt>
      <trkpt lat="44.45325" lon="5.64797">
        <ele>1079.3</ele>
        <time>2021-05-23T19:51:26.979Z</time>
      </trkpt>
      <trkpt lat="44.4535" lon="5.64848">
        <ele>1070.7</ele>
        <time>2021-05-23T19:51:46.979Z</time>
      </trkpt>
      <trkpt lat="44.45325" lon="5.64882">
        <ele>1069.3</ele>
        <time>2021-05-23T19:52:06.979Z</time>
      </trkpt>
      <trkpt lat="44.45301" lon="5.64985">
        <ele>1058.5</ele>
        <time>2021-05-23T19:52:26.979Z</time>
      </trkpt>
      <trkpt lat="44.45325" lon="5.65243">
        <ele>1037.7</ele>
        <time>2021-05-23T19:52:46.979Z</time>
      </trkpt>
      <trkpt lat="44.45276" lon="5.65415">
        <ele>1030.4</ele>
        <time>2021-05-23T19:53:06.979Z</time>
      </trkpt>
      <trkpt lat="44.45313" lon="5.65535">
        <ele>1021.6</ele>
        <time>2021-05-23T19:53:26.979Z</time>
      </trkpt>
      <trkpt lat="44.45289" lon="5.65638">
        <ele>1013.9</ele>
        <time>2021-05-23T19:53:46.979Z</time>
      </trkpt>
      <trkpt lat="44.45374" lon="5.65827">
        <ele>999.3</ele>
        <time>2021-05-23T19:54:06.979Z</time>
      </trkpt>
      <trkpt lat="44.45399" lon="5.65964">
        <ele>989.6</ele>
        <time>2021-05-23T19:54:26.979Z</time>
      </trkpt>
      <trkpt lat="44.4546" lon="5.66084">
        <ele>974.5</ele>
        <time>2021-05-23T19:54:46.979Z</time>
      </trkpt>
      <trkpt lat="44.45374" lon="5.66153">
        <ele>978.9</ele>
        <time>2021-05-23T19:55:06.979Z</time>
      </trkpt>
      <trkpt lat="44.45387" lon="5.66239">
        <ele>969.3</ele>
        <time>2021-05-23T19:55:26.979Z</time>
      </trkpt>
      <trkpt lat="44.45374" lon="5.66341">
        <ele>964.7</ele>
        <time>2021-05-23T19:55:46.979Z</time>
      </trkpt>
      <trkpt lat="44.45411" lon="5.66324">
        <ele>958.9</ele>
        <time>2021-05-23T19:56:06.979Z</time>
      </trkpt>
      <trkpt lat="44.45436" lon="5.66256">
        <ele>958.5</ele>
        <time>2021-05-23T19:56:26.979Z</time>
      </trkpt>
      <trkpt lat="44.45497" lon="5.66239">
        <ele>946.3</ele>
        <time>2021-05-23T19:56:46.979Z</time>
      </trkpt>
      <trkpt lat="44.45521" lon="5.66136">
        <ele>947.8</ele>
        <time>2021-05-23T19:57:06.979Z</time>
      </trkpt>
      <trkpt lat="44.45534" lon="5.66136">
        <ele>943.3</ele>
        <time>2021-05-23T19:57:26.979Z</time>
      </trkpt>
      <trkpt lat="44.45546" lon="5.6629">
        <ele>928.4</ele>
        <time>2021-05-23T19:57:46.979Z</time>
      </trkpt>
      <trkpt lat="44.45509" lon="5.66427">
        <ele>922.2</ele>
        <time>2021-05-23T19:58:06.979Z</time>
      </trkpt>
      <trkpt lat="44.45558" lon="5.66444">
        <ele>913.8</ele>
        <time>2021-05-23T19:58:26.979Z</time>
      </trkpt>
      <trkpt lat="44.45595" lon="5.66324">
        <ele>905.7</ele>
        <time>2021-05-23T19:58:46.979Z</time>
      </trkpt>
      <trkpt lat="44.45607" lon="5.66324">
        <ele>901.5</ele>
        <time>2021-05-23T19:59:06.979Z</time>
      </trkpt>
      <trkpt lat="44.45583" lon="5.6653">
        <ele>894.9</ele>
        <time>2021-05-23T19:59:26.979Z</time>
      </trkpt>
      <trkpt lat="44.45546" lon="5.66599">
        <ele>886.1</ele>
        <time>2021-05-23T19:59:46.979Z</time>
      </trkpt>
      <trkpt lat="44.45558" lon="5.66633">
        <ele>874.8</ele>
        <time>2021-05-23T20:00:06.979Z</time>
      </trkpt>
      <trkpt lat="44.4562" lon="5.66599">
        <ele>879.7</ele>
        <time>2021-05-23T20:00:26.979Z</time>
      </trkpt>
      <trkpt lat="44.4562" lon="5.66616">
        <ele>877.7</ele>
        <time>2021-05-23T20:00:46.979Z</time>
      </trkpt>
      <trkpt lat="44.45583" lon="5.66668">
        <ele>869</ele>
        <time>2021-05-23T20:01:06.979Z</time>
      </trkpt>
      <trkpt lat="44.45632" lon="5.66685">
        <ele>861.4</ele>
        <time>2021-05-23T20:01:26.979Z</time>
      </trkpt>
      <trkpt lat="44.45681" lon="5.66788">
        <ele>849</ele>
        <time>2021-05-23T20:01:46.979Z</time>
      </trkpt>
      <trkpt lat="44.45718" lon="5.66805">
        <ele>869.4</ele>
        <time>2021-05-23T20:02:06.979Z</time>
      </trkpt>
      <trkpt lat="44.45693" lon="5.66942">
        <ele>845.8</ele>
        <time>2021-05-23T20:02:26.979Z</time>
      </trkpt>
      <trkpt lat="44.45754" lon="5.67062">
        <ele>842.3</ele>
        <time>2021-05-23T20:02:46.979Z</time>
      </trkpt>
      <trkpt lat="44.45742" lon="5.67148">
        <ele>833.4</ele>
        <time>2021-05-23T20:03:06.979Z</time>
      </trkpt>
      <trkpt lat="44.45754" lon="5.67217">
        <ele>833.7</ele>
        <time>2021-05-23T20:03:26.979Z</time>
      </trkpt>
      <trkpt lat="44.45742" lon="5.67303">
        <ele>822.9</ele>
        <time>2021-05-23T20:03:46.979Z</time>
      </trkpt>
      <trkpt lat="44.45791" lon="5.67406">
        <ele>827.3</ele>
        <time>2021-05-23T20:04:06.979Z</time>
      </trkpt>
      <trkpt lat="44.45779" lon="5.67543">
        <ele>808.8</ele>
        <time>2021-05-23T20:04:26.979Z</time>
      </trkpt>
      <trkpt lat="44.45742" lon="5.67698">
        <ele>806.1</ele>
        <time>2021-05-23T20:04:46.979Z</time>
      </trkpt>
      <trkpt lat="44.45656" lon="5.67886">
        <ele>793.3</ele>
        <time>2021-05-23T20:05:06.979Z</time>
      </trkpt>
      <trkpt lat="44.45705" lon="5.68092">
        <ele>774.1</ele>
        <time>2021-05-23T20:05:26.979Z</time>
      </trkpt>
      <trkpt lat="44.45681" lon="5.68264">
        <ele>776.2</ele>
        <time>2021-05-23T20:05:46.979Z</time>
      </trkpt>
      <trkpt lat="44.45546" lon="5.68522">
        <ele>756.1</ele>
        <time>2021-05-23T20:06:06.979Z</time>
      </trkpt>
      <trkpt lat="44.4557" lon="5.68642">
        <ele>755.9</ele>
        <time>2021-05-23T20:06:26.979Z</time>
      </trkpt>
      <trkpt lat="44.45546" lon="5.6871">
        <ele>743.4</ele>
        <time>2021-05-23T20:06:46.979Z</time>
      </trkpt>
      <trkpt lat="44.4557" lon="5.68796">
        <ele>745.6</ele>
        <time>2021-05-23T20:07:06.979Z</time>
      </trkpt>
      <trkpt lat="44.45558" lon="5.68951">
        <ele>734.6</ele>
        <time>2021-05-23T20:07:26.979Z</time>
      </trkpt>
      <trkpt lat="44.45534" lon="5.69054">
        <ele>732.2</ele>
        <time>2021-05-23T20:07:46.979Z</time>
      </trkpt>
      <trkpt lat="44.4546" lon="5.69191">
        <ele>729.8</ele>
        <time>2021-05-23T20:08:06.979Z</time>
      </trkpt>
      <trkpt lat="44.45436" lon="5.69277">
        <ele>726.1</ele>
        <time>2021-05-23T20:08:26.979Z</time>
      </trkpt>
      <trkpt lat="44.45411" lon="5.69294">
        <ele>723</ele>
        <time>2021-05-23T20:08:46.979Z</time>
      </trkpt>
      <trkpt lat="44.45411" lon="5.69328">
        <ele>720.5</ele>
        <time>2021-05-23T20:09:06.979Z</time>
      </trkpt>
      <trkpt lat="44.45313" lon="5.69311">
        <ele>723</ele>
        <time>2021-05-23T20:09:26.979Z</time>
      </trkpt>
      <trkpt lat="44.45374" lon="5.6926">
        <ele>730</ele>
        <time>2021-05-23T20:09:46.979Z</time>
      </trkpt>
      <trkpt lat="44.45411" lon="5.6914">
        <ele>744.9</ele>
        <time>2021-05-23T20:10:06.979Z</time>
      </trkpt>
      <trkpt lat="44.45276" lon="5.69277">
        <ele>756.2</ele>
        <time>2021-05-23T20:10:26.979Z</time>
      </trkpt>
      <trkpt lat="44.44946" lon="5.69414">
        <ele>798.7</ele>
        <time>2021-05-23T20:10:46.979Z</time>
      </trkpt>
      <trkpt lat="44.44798" lon="5.69534">
        <ele>807.9</ele>
        <time>2021-05-23T20:11:06.979Z</time>
      </trkpt>
      <trkpt lat="44.44798" lon="5.69517">
        <ele>810.8</ele>
        <time>2021-05-23T20:11:26.979Z</time>
      </trkpt>
      <trkpt lat="44.44848" lon="5.69431">
        <ele>822.4</ele>
        <time>2021-05-23T20:11:46.979Z</time>
      </trkpt>
      <trkpt lat="44.44982" lon="5.69054">
        <ele>870.6</ele>
        <time>2021-05-23T20:12:06.979Z</time>
      </trkpt>
      <trkpt lat="44.4497" lon="5.69019">
        <ele>860.7</ele>
        <time>2021-05-23T20:12:26.979Z</time>
      </trkpt>
      <trkpt lat="44.44921" lon="5.68985">
        <ele>858.7</ele>
        <time>2021-05-23T20:12:46.979Z</time>
      </trkpt>
      <trkpt lat="44.44958" lon="5.68796">
        <ele>874.6</ele>
        <time>2021-05-23T20:13:06.979Z</time>
      </trkpt>
      <trkpt lat="44.45019" lon="5.68676">
        <ele>895</ele>
        <time>2021-05-23T20:13:26.979Z</time>
      </trkpt>
      <trkpt lat="44.45007" lon="5.68539">
        <ele>901.5</ele>
        <time>2021-05-23T20:13:46.979Z</time>
      </trkpt>
      <trkpt lat="44.44982" lon="5.68453">
        <ele>903.3</ele>
        <time>2021-05-23T20:14:06.979Z</time>
      </trkpt>
      <trkpt lat="44.4486" lon="5.68367">
        <ele>918.5</ele>
        <time>2021-05-23T20:14:26.979Z</time>
      </trkpt>
      <trkpt lat="44.44823" lon="5.68419">
        <ele>920.5</ele>
        <time>2021-05-23T20:14:46.979Z</time>
      </trkpt>
      <trkpt lat="44.44774" lon="5.68419">
        <ele>930</ele>
        <time>2021-05-23T20:15:06.979Z</time>
      </trkpt>
      <trkpt lat="44.447" lon="5.68504">
        <ele>937.3</ele>
        <time>2021-05-23T20:15:26.979Z</time>
      </trkpt>
      <trkpt lat="44.44541" lon="5.68573">
        <ele>956.6</ele>
        <time>2021-05-23T20:15:46.979Z</time>
      </trkpt>
      <trkpt lat="44.44517" lon="5.68762">
        <ele>971.8</ele>
        <time>2021-05-23T20:16:06.979Z</time>
      </trkpt>
      <trkpt lat="44.44406" lon="5.68951">
        <ele>980.6</ele>
        <time>2021-05-23T20:16:26.979Z</time>
      </trkpt>
      <trkpt lat="44.44308" lon="5.69019">
        <ele>993.8</ele>
        <time>2021-05-23T20:16:46.979Z</time>
      </trkpt>
      <trkpt lat="44.44296" lon="5.69071">
        <ele>988.9</ele>
        <time>2021-05-23T20:17:06.979Z</time>
      </trkpt>
      <trkpt lat="44.44186" lon="5.69208">
        <ele>1006.4</ele>
        <time>2021-05-23T20:17:26.979Z</time>
      </trkpt>
      <trkpt lat="44.44149" lon="5.69208">
        <ele>1014.8</ele>
        <time>2021-05-23T20:17:46.979Z</time>
      </trkpt>
      <trkpt lat="44.44063" lon="5.69294">
        <ele>1018.8</ele>
        <time>2021-05-23T20:18:06.979Z</time>
      </trkpt>
      <trkpt lat="44.43794" lon="5.69397">
        <ele>1030.7</ele>
        <time>2021-05-23T20:18:26.979Z</time>
      </trkpt>
      <trkpt lat="44.43769" lon="5.69277">
        <ele>1008.3</ele>
        <time>2021-05-23T20:18:46.979Z</time>
      </trkpt>
      <trkpt lat="44.43806" lon="5.69208">
        <ele>1013.2</ele>
        <time>2021-05-23T20:19:06.979Z</time>
      </trkpt>
      <trkpt lat="44.43794" lon="5.69105">
        <ele>998.3</ele>
        <time>2021-05-23T20:19:26.979Z</time>
      </trkpt>
      <trkpt lat="44.43708" lon="5.69174">
        <ele>975.8</ele>
        <time>2021-05-23T20:19:46.979Z</time>
      </trkpt>
      <trkpt lat="44.43573" lon="5.69397">
        <ele>939.7</ele>
        <time>2021-05-23T20:20:06.979Z</time>
      </trkpt>
      <trkpt lat="44.43487" lon="5.69483">
        <ele>918.9</ele>
        <time>2021-05-23T20:20:26.979Z</time>
      </trkpt>
      <trkpt lat="44.4345" lon="5.69517">
        <ele>910</ele>
        <time>2021-05-23T20:20:46.979Z</time>
      </trkpt>
      <trkpt lat="44.43426" lon="5.69466">
        <ele>896</ele>
        <time>2021-05-23T20:21:06.979Z</time>
      </trkpt>
      <trkpt lat="44.43291" lon="5.69534">
        <ele>876.7</ele>
        <time>2021-05-23T20:21:26.979Z</time>
      </trkpt>
      <trkpt lat="44.43181" lon="5.69758">
        <ele>850.6</ele>
        <time>2021-05-23T20:21:46.979Z</time>
      </trkpt>
      <trkpt lat="44.42985" lon="5.69912">
        <ele>814.7</ele>
        <time>2021-05-23T20:22:06.979Z</time>
      </trkpt>
      <trkpt lat="44.42874" lon="5.70118">
        <ele>790.2</ele>
        <time>2021-05-23T20:22:26.979Z</time>
      </trkpt>
      <trkpt lat="44.42862" lon="5.70238">
        <ele>783.5</ele>
        <time>2021-05-23T20:22:46.979Z</time>
      </trkpt>
      <trkpt lat="44.42825" lon="5.70152">
        <ele>773.3</ele>
        <time>2021-05-23T20:23:06.979Z</time>
      </trkpt>
      <trkpt lat="44.42801" lon="5.70204">
        <ele>760.3</ele>
        <time>2021-05-23T20:23:26.979Z</time>
      </trkpt>
      <trkpt lat="44.4285" lon="5.70444">
        <ele>740</ele>
        <time>2021-05-23T20:23:46.979Z</time>
      </trkpt>
      <trkpt lat="44.42764" lon="5.70908">
        <ele>703.7</ele>
        <time>2021-05-23T20:24:06.979Z</time>
      </trkpt>
      <trkpt lat="44.42764" lon="5.71097">
        <ele>687.5</ele>
        <time>2021-05-23T20:24:26.979Z</time>
      </trkpt>
      <trkpt lat="44.42727" lon="5.71097">
        <ele>674.4</ele>
        <time>2021-05-23T20:24:46.979Z</time>
      </trkpt>
      <trkpt lat="44.42727" lon="5.71114">
        <ele>673.1</ele>
        <time>2021-05-23T20:25:06.979Z</time>
      </trkpt>
      <trkpt lat="44.42629" lon="5.71011">
        <ele>672.2</ele>
        <time>2021-05-23T20:25:26.979Z</time>
      </trkpt>
      <trkpt lat="44.42506" lon="5.71028">
        <ele>660</ele>
        <time>2021-05-23T20:25:46.979Z</time>
      </trkpt>
      <trkpt lat="44.42421" lon="5.70976">
        <ele>660</ele>
        <time>2021-05-23T20:26:06.979Z</time>
      </trkpt>
      <trkpt lat="44.42224" lon="5.71011">
        <ele>658.6</ele>
        <time>2021-05-23T20:26:26.979Z</time>
      </trkpt>
      <trkpt lat="44.42065" lon="5.71011">
        <ele>657.8</ele>
        <time>2021-05-23T20:26:46.979Z</time>
      </trkpt>
      <trkpt lat="44.42053" lon="5.70891">
        <ele>659.1</ele>
        <time>2021-05-23T20:27:06.979Z</time>
      </trkpt>
      <trkpt lat="44.41992" lon="5.70822">
        <ele>658.2</ele>
        <time>2021-05-23T20:27:26.979Z</time>
      </trkpt>
      <trkpt lat="44.41967" lon="5.70685">
        <ele>659</ele>
        <time>2021-05-23T20:27:46.979Z</time>
      </trkpt>
      <trkpt lat="44.41893" lon="5.70513">
        <ele>661.5</ele>
        <time>2021-05-23T20:28:06.979Z</time>
      </trkpt>
      <trkpt lat="44.4182" lon="5.7053">
        <ele>676.8</ele>
        <time>2021-05-23T20:28:26.979Z</time>
      </trkpt>
      <trkpt lat="44.41808" lon="5.7041">
        <ele>694.3</ele>
        <time>2021-05-23T20:28:46.979Z</time>
      </trkpt>
      <trkpt lat="44.4182" lon="5.70358">
        <ele>700.4</ele>
        <time>2021-05-23T20:29:06.979Z</time>
      </trkpt>
      <trkpt lat="44.41783" lon="5.70341">
        <ele>719</ele>
        <time>2021-05-23T20:29:26.979Z</time>
      </trkpt>
      <trkpt lat="44.41844" lon="5.70238">
        <ele>729.1</ele>
        <time>2021-05-23T20:29:46.979Z</time>
      </trkpt>
      <trkpt lat="44.41808" lon="5.70135">
        <ele>754.4</ele>
        <time>2021-05-23T20:30:06.979Z</time>
      </trkpt>
      <trkpt lat="44.41673" lon="5.70135">
        <ele>797.6</ele>
        <time>2021-05-23T20:30:26.979Z</time>
      </trkpt>
      <trkpt lat="44.4166" lon="5.7017">
        <ele>798.7</ele>
        <time>2021-05-23T20:30:46.979Z</time>
      </trkpt>
      <trkpt lat="44.41538" lon="5.70204">
        <ele>832.5</ele>
        <time>2021-05-23T20:31:06.979Z</time>
      </trkpt>
      <trkpt lat="44.41575" lon="5.70015">
        <ele>872.1</ele>
        <time>2021-05-23T20:31:26.979Z</time>
      </trkpt>
      <trkpt lat="44.41513" lon="5.70015">
        <ele>898.4</ele>
        <time>2021-05-23T20:31:46.979Z</time>
      </trkpt>
      <trkpt lat="44.41538" lon="5.69981">
        <ele>901.7</ele>
        <time>2021-05-23T20:32:06.979Z</time>
      </trkpt>
      <trkpt lat="44.41452" lon="5.69981">
        <ele>931.4</ele>
        <time>2021-05-23T20:32:26.979Z</time>
      </trkpt>
      <trkpt lat="44.41464" lon="5.69964">
        <ele>935.9</ele>
        <time>2021-05-23T20:32:46.979Z</time>
      </trkpt>
      <trkpt lat="44.41427" lon="5.69946">
        <ele>952.2</ele>
        <time>2021-05-23T20:33:06.979Z</time>
      </trkpt>
      <trkpt lat="44.41403" lon="5.69895">
        <ele>996</ele>
        <time>2021-05-23T20:33:26.979Z</time>
      </trkpt>
      <trkpt lat="44.4144" lon="5.69826">
        <ele>1011.5</ele>
        <time>2021-05-23T20:33:46.979Z</time>
      </trkpt>
      <trkpt lat="44.41219" lon="5.69843">
        <ele>1037.9</ele>
        <time>2021-05-23T20:34:06.979Z</time>
      </trkpt>
      <trkpt lat="44.41096" lon="5.69792">
        <ele>1057</ele>
        <time>2021-05-23T20:34:26.979Z</time>
      </trkpt>
      <trkpt lat="44.40974" lon="5.69775">
        <ele>1094.6</ele>
        <time>2021-05-23T20:34:46.979Z</time>
      </trkpt>
      <trkpt lat="44.409" lon="5.69723">
        <ele>1104.5</ele>
        <time>2021-05-23T20:35:06.979Z</time>
      </trkpt>
      <trkpt lat="44.4079" lon="5.69723">
        <ele>1114</ele>
        <time>2021-05-23T20:35:26.979Z</time>
      </trkpt>
      <trkpt lat="44.40508" lon="5.69603">
        <ele>1192</ele>
        <time>2021-05-23T20:35:46.979Z</time>
      </trkpt>
      <trkpt lat="44.40397" lon="5.695">
        <ele>1223.3</ele>
        <time>2021-05-23T20:36:06.979Z</time>
      </trkpt>
      <trkpt lat="44.40287" lon="5.69466">
        <ele>1246.9</ele>
        <time>2021-05-23T20:36:26.979Z</time>
      </trkpt>
      <trkpt lat="44.40005" lon="5.69277">
        <ele>1287.3</ele>
        <time>2021-05-23T20:36:46.979Z</time>
      </trkpt>
      <trkpt lat="44.39772" lon="5.69019">
        <ele>1298.7</ele>
        <time>2021-05-23T20:37:06.979Z</time>
      </trkpt>
      <trkpt lat="44.39588" lon="5.68865">
        <ele>1306</ele>
        <time>2021-05-23T20:37:26.979Z</time>
      </trkpt>
      <trkpt lat="44.39404" lon="5.68642">
        <ele>1328.5</ele>
        <time>2021-05-23T20:37:46.979Z</time>
      </trkpt>
      <trkpt lat="44.39318" lon="5.68573">
        <ele>1368.5</ele>
        <time>2021-05-23T20:38:06.979Z</time>
      </trkpt>
      <trkpt lat="44.39294" lon="5.68487">
        <ele>1363.6</ele>
        <time>2021-05-23T20:38:26.979Z</time>
      </trkpt>
      <trkpt lat="44.39244" lon="5.68539">
        <ele>1400.5</ele>
        <time>2021-05-23T20:38:46.979Z</time>
      </trkpt>
      <trkpt lat="44.38975" lon="5.68504">
        <ele>1409.9</ele>
        <time>2021-05-23T20:39:06.979Z</time>
      </trkpt>
      <trkpt lat="44.38815" lon="5.68556">
        <ele>1439.3</ele>
        <time>2021-05-23T20:39:26.979Z</time>
      </trkpt>
      <trkpt lat="44.38594" lon="5.68504">
        <ele>1482.6</ele>
        <time>2021-05-23T20:39:46.979Z</time>
      </trkpt>
      <trkpt lat="44.38472" lon="5.68539">
        <ele>1518.9</ele>
        <time>2021-05-23T20:40:06.979Z</time>
      </trkpt>
      <trkpt lat="44.3841" lon="5.68504">
        <ele>1516.8</ele>
        <time>2021-05-23T20:40:26.979Z</time>
      </trkpt>
      <trkpt lat="44.38275" lon="5.68504">
        <ele>1512.5</ele>
        <time>2021-05-23T20:40:46.979Z</time>
      </trkpt>
      <trkpt lat="44.38116" lon="5.68659">
        <ele>1489.1</ele>
        <time>2021-05-23T20:41:06.979Z</time>
      </trkpt>
      <trkpt lat="44.38067" lon="5.68676">
        <ele>1487.7</ele>
        <time>2021-05-23T20:41:26.979Z</time>
      </trkpt>
      <trkpt lat="44.37956" lon="5.68625">
        <ele>1479</ele>
        <time>2021-05-23T20:41:46.979Z</time>
      </trkpt>
      <trkpt lat="44.37883" lon="5.68625">
        <ele>1461.7</ele>
        <time>2021-05-23T20:42:06.979Z</time>
      </trkpt>
      <trkpt lat="44.37686" lon="5.68779">
        <ele>1404</ele>
        <time>2021-05-23T20:42:26.979Z</time>
      </trkpt>
      <trkpt lat="44.37601" lon="5.68831">
        <ele>1432.9</ele>
        <time>2021-05-23T20:42:46.979Z</time>
      </trkpt>
      <trkpt lat="44.37601" lon="5.68968">
        <ele>1462.8</ele>
        <time>2021-05-23T20:43:06.979Z</time>
      </trkpt>
      <trkpt lat="44.37257" lon="5.69311">
        <ele>1405.1</ele>
        <time>2021-05-23T20:43:26.979Z</time>
      </trkpt>
      <trkpt lat="44.37147" lon="5.69449">
        <ele>1358.5</ele>
        <time>2021-05-23T20:43:46.979Z</time>
      </trkpt>
      <trkpt lat="44.37024" lon="5.69449">
        <ele>1344.3</ele>
        <time>2021-05-23T20:44:06.979Z</time>
      </trkpt>
      <trkpt lat="44.37024" lon="5.69397">
        <ele>1332.1</ele>
        <time>2021-05-23T20:44:26.979Z</time>
      </trkpt>
      <trkpt lat="44.36938" lon="5.69363">
        <ele>1300.8</ele>
        <time>2021-05-23T20:44:46.979Z</time>
      </trkpt>
      <trkpt lat="44.36913" lon="5.69311">
        <ele>1279.7</ele>
        <time>2021-05-23T20:45:06.979Z</time>
      </trkpt>
      <trkpt lat="44.36815" lon="5.69346">
        <ele>1260.6</ele>
        <time>2021-05-23T20:45:26.979Z</time>
      </trkpt>
      <trkpt lat="44.36607" lon="5.69328">
        <ele>1244.8</ele>
        <time>2021-05-23T20:45:46.979Z</time>
      </trkpt>
      <trkpt lat="44.36447" lon="5.69466">
        <ele>1203.6</ele>
        <time>2021-05-23T20:46:06.979Z</time>
      </trkpt>
      <trkpt lat="44.36324" lon="5.69466">
        <ele>1178.3</ele>
        <time>2021-05-23T20:46:26.979Z</time>
      </trkpt>
      <trkpt lat="44.36275" lon="5.695">
        <ele>1169.8</ele>
        <time>2021-05-23T20:46:46.979Z</time>
      </trkpt>
      <trkpt lat="44.36238" lon="5.69552">
        <ele>1163.2</ele>
        <time>2021-05-23T20:47:06.979Z</time>
      </trkpt>
      <trkpt lat="44.36189" lon="5.69672">
        <ele>1154.7</ele>
        <time>2021-05-23T20:47:26.979Z</time>
      </trkpt>
      <trkpt lat="44.36128" lon="5.69775">
        <ele>1153.3</ele>
        <time>2021-05-23T20:47:46.979Z</time>
      </trkpt>
      <trkpt lat="44.35956" lon="5.69843">
        <ele>1122.2</ele>
        <time>2021-05-23T20:48:06.979Z</time>
      </trkpt>
      <trkpt lat="44.35932" lon="5.69946">
        <ele>1108.4</ele>
        <time>2021-05-23T20:48:26.979Z</time>
      </trkpt>
      <trkpt lat="44.35981" lon="5.69946">
        <ele>1114.8</ele>
        <time>2021-05-23T20:48:46.979Z</time>
      </trkpt>
      <trkpt lat="44.36005" lon="5.69981">
        <ele>1098.5</ele>
        <time>2021-05-23T20:49:06.979Z</time>
      </trkpt>
      <trkpt lat="44.35944" lon="5.69998">
        <ele>1078.5</ele>
        <time>2021-05-23T20:49:26.979Z</time>
      </trkpt>
      <trkpt lat="44.36005" lon="5.70032">
        <ele>1067.7</ele>
        <time>2021-05-23T20:49:46.979Z</time>
      </trkpt>
      <trkpt lat="44.35981" lon="5.70032">
        <ele>1059.9</ele>
        <time>2021-05-23T20:50:06.979Z</time>
      </trkpt>
      <trkpt lat="44.35993" lon="5.70067">
        <ele>1042.8</ele>
        <time>2021-05-23T20:50:26.979Z</time>
      </trkpt>
      <trkpt lat="44.36079" lon="5.70101">
        <ele>1035.4</ele>
        <time>2021-05-23T20:50:46.979Z</time>
      </trkpt>
      <trkpt lat="44.36165" lon="5.70238">
        <ele>993.4</ele>
        <time>2021-05-23T20:51:06.979Z</time>
      </trkpt>
      <trkpt lat="44.3641" lon="5.7041">
        <ele>932.7</ele>
        <time>2021-05-23T20:51:26.979Z</time>
      </trkpt>
      <trkpt lat="44.36398" lon="5.70427">
        <ele>924.6</ele>
        <time>2021-05-23T20:51:46.979Z</time>
      </trkpt>
      <trkpt lat="44.36435" lon="5.70513">
        <ele>902.7</ele>
        <time>2021-05-23T20:52:06.979Z</time>
      </trkpt>
      <trkpt lat="44.36373" lon="5.70582">
        <ele>876.2</ele>
        <time>2021-05-23T20:52:26.979Z</time>
      </trkpt>
      <trkpt lat="44.36312" lon="5.70582">
        <ele>861</ele>
        <time>2021-05-23T20:52:46.979Z</time>
      </trkpt>
      <trkpt lat="44.36165" lon="5.70736">
        <ele>812.6</ele>
        <time>2021-05-23T20:53:06.979Z</time>
      </trkpt>
      <trkpt lat="44.36079" lon="5.70736">
        <ele>797.4</ele>
        <time>2021-05-23T20:53:26.979Z</time>
      </trkpt>
      <trkpt lat="44.35993" lon="5.70788">
        <ele>806</ele>
        <time>2021-05-23T20:53:46.979Z</time>
      </trkpt>
      <trkpt lat="44.35956" lon="5.7077">
        <ele>788.3</ele>
        <time>2021-05-23T20:54:06.979Z</time>
      </trkpt>
      <trkpt lat="44.35846" lon="5.70839">
        <ele>755.7</ele>
        <time>2021-05-23T20:54:26.979Z</time>
      </trkpt>
      <trkpt lat="44.35809" lon="5.70822">
        <ele>753.6</ele>
        <time>2021-05-23T20:54:46.979Z</time>
      </trkpt>
      <trkpt lat="44.35772" lon="5.70839">
        <ele>751.4</ele>
        <time>2021-05-23T20:55:06.979Z</time>
      </trkpt>
      <trkpt lat="44.35723" lon="5.70959">
        <ele>724.3</ele>
        <time>2021-05-23T20:55:26.979Z</time>
      </trkpt>
      <trkpt lat="44.35539" lon="5.70736">
        <ele>692.1</ele>
        <time>2021-05-23T20:55:46.979Z</time>
      </trkpt>
      <trkpt lat="44.35478" lon="5.70753">
        <ele>688</ele>
        <time>2021-05-23T20:56:06.979Z</time>
      </trkpt>
      <trkpt lat="44.35416" lon="5.70908">
        <ele>669.6</ele>
        <time>2021-05-23T20:56:26.979Z</time>
      </trkpt>
      <trkpt lat="44.35404" lon="5.71011">
        <ele>665.1</ele>
        <time>2021-05-23T20:56:46.979Z</time>
      </trkpt>
      <trkpt lat="44.35257" lon="5.71045">
        <ele>650.3</ele>
        <time>2021-05-23T20:57:06.979Z</time>
      </trkpt>
      <trkpt lat="44.3522" lon="5.71097">
        <ele>656.6</ele>
        <time>2021-05-23T20:57:11.794Z</time>
      </trkpt>
      <trkpt lat="44.35188" lon="5.70989">
        <ele>658.7</ele>
        <time>2021-05-23T20:57:19.447Z</time>
      </trkpt>
      <trkpt lat="44.35157" lon="5.70881">
        <ele>657.9</ele>
        <time>2021-05-23T20:57:27.243Z</time>
      </trkpt>
      <trkpt lat="44.35123" lon="5.70952">
        <ele>665.5</ele>
        <time>2021-05-23T20:57:32.933Z</time>
      </trkpt>
      <trkpt lat="44.35089" lon="5.71023">
        <ele>674.1</ele>
        <time>2021-05-23T20:57:37.948Z</time>
      </trkpt>
      <trkpt lat="44.35049" lon="5.70993">
        <ele>682.5</ele>
        <time>2021-05-23T20:57:41.681Z</time>
      </trkpt>
      <trkpt lat="44.35009" lon="5.70963">
        <ele>685.9</ele>
        <time>2021-05-23T20:57:45.414Z</time>
      </trkpt>
      <trkpt lat="44.34977" lon="5.70993">
        <ele>701.6</ele>
        <time>2021-05-23T20:57:48.605Z</time>
      </trkpt>
      <trkpt lat="44.34945" lon="5.71023">
        <ele>717.8</ele>
        <time>2021-05-23T20:57:51.796Z</time>
      </trkpt>
      <trkpt lat="44.34909" lon="5.71074">
        <ele>741.4</ele>
        <time>2021-05-23T20:57:55.999Z</time>
      </trkpt>
      <trkpt lat="44.34874" lon="5.71126">
        <ele>763.5</ele>
        <time>2021-05-23T20:57:53.612Z</time>
      </trkpt>
      <trkpt lat="44.34853" lon="5.71083">
        <ele>775.3</ele>
        <time>2021-05-23T20:57:51.859Z</time>
      </trkpt>
      <trkpt lat="44.34831" lon="5.7104">
        <ele>788.3</ele>
        <time>2021-05-23T20:57:58.254Z</time>
      </trkpt>
      <trkpt lat="44.34816" lon="5.71111">
        <ele>806.1</ele>
        <time>2021-05-23T20:58:07.286Z</time>
      </trkpt>
      <trkpt lat="44.34801" lon="5.71182">
        <ele>812.1</ele>
        <time>2021-05-23T20:58:16.101Z</time>
      </trkpt>
      <trkpt lat="44.34741" lon="5.71248">
        <ele>819.2</ele>
        <time>2021-05-23T20:58:28.837Z</time>
      </trkpt>
      <trkpt lat="44.34681" lon="5.71315">
        <ele>819.5</ele>
        <time>2021-05-23T20:58:46.039Z</time>
      </trkpt>
      <trkpt lat="44.34662" lon="5.71317">
        <ele>825.5</ele>
        <time>2021-05-23T20:58:50.196Z</time>
      </trkpt>
      <trkpt lat="44.34644" lon="5.71319">
        <ele>830.8</ele>
        <time>2021-05-23T20:58:54.334Z</time>
      </trkpt>
      <trkpt lat="44.34623" lon="5.71347">
        <ele>829.5</ele>
        <time>2021-05-23T20:59:00.899Z</time>
      </trkpt>
      <trkpt lat="44.34601" lon="5.71375">
        <ele>831.9</ele>
        <time>2021-05-23T20:59:07.450Z</time>
      </trkpt>
      <trkpt lat="44.34553" lon="5.71388">
        <ele>848.6</ele>
        <time>2021-05-23T20:59:18.277Z</time>
      </trkpt>
      <trkpt lat="44.34506" lon="5.71401">
        <ele>864.5</ele>
        <time>2021-05-23T20:59:27.566Z</time>
      </trkpt>
      <trkpt lat="44.34475" lon="5.7139">
        <ele>878</ele>
        <time>2021-05-23T20:59:33.631Z</time>
      </trkpt>
      <trkpt lat="44.34445" lon="5.71379">
        <ele>896.9</ele>
        <time>2021-05-23T20:59:40.111Z</time>
      </trkpt>
      <trkpt lat="44.34461" lon="5.71358">
        <ele>893.9</ele>
        <time>2021-05-23T20:59:44.784Z</time>
      </trkpt>
      <trkpt lat="44.34478" lon="5.71336">
        <ele>892.3</ele>
        <time>2021-05-23T20:59:49.382Z</time>
      </trkpt>
      <trkpt lat="44.34455" lon="5.71343">
        <ele>902.7</ele>
        <time>2021-05-23T20:59:54.114Z</time>
      </trkpt>
      <trkpt lat="44.34432" lon="5.71349">
        <ele>913.1</ele>
        <time>2021-05-23T20:59:58.795Z</time>
      </trkpt>
      <trkpt lat="44.34446" lon="5.71321">
        <ele>915.7</ele>
        <time>2021-05-23T21:00:03.634Z</time>
      </trkpt>
      <trkpt lat="44.3446" lon="5.71293">
        <ele>918.5</ele>
        <time>2021-05-23T21:00:08.371Z</time>
      </trkpt>
      <trkpt lat="44.34437" lon="5.713">
        <ele>928.4</ele>
        <time>2021-05-23T21:00:12.954Z</time>
      </trkpt>
      <trkpt lat="44.34414" lon="5.71306">
        <ele>936.8</ele>
        <time>2021-05-23T21:00:17.505Z</time>
      </trkpt>
      <trkpt lat="44.34431" lon="5.71283">
        <ele>937.5</ele>
        <time>2021-05-23T21:00:22.133Z</time>
      </trkpt>
      <trkpt lat="44.34448" lon="5.71259">
        <ele>938.7</ele>
        <time>2021-05-23T21:00:26.646Z</time>
      </trkpt>
      <trkpt lat="44.34397" lon="5.71242">
        <ele>972.3</ele>
        <time>2021-05-23T21:00:36.498Z</time>
      </trkpt>
      <trkpt lat="44.34346" lon="5.71225">
        <ele>1005.9</ele>
        <time>2021-05-23T21:00:46.235Z</time>
      </trkpt>
      <trkpt lat="44.34417" lon="5.71144">
        <ele>1011</ele>
        <time>2021-05-23T21:01:03.213Z</time>
      </trkpt>
      <trkpt lat="44.34487" lon="5.71064">
        <ele>1018.5</ele>
        <time>2021-05-23T21:01:19.697Z</time>
      </trkpt>
      <trkpt lat="44.34497" lon="5.71053">
        <ele>1018</ele>
        <time>2021-05-23T21:01:21.951Z</time>
      </trkpt>
      <trkpt lat="44.34406" lon="5.71056">
        <ele>1054.4</ele>
        <time>2021-05-23T21:01:38.435Z</time>
      </trkpt>
      <trkpt lat="44.34315" lon="5.71059">
        <ele>1087.2</ele>
        <time>2021-05-23T21:01:54.576Z</time>
      </trkpt>
      <trkpt lat="44.34224" lon="5.71063">
        <ele>1100.7</ele>
        <time>2021-05-23T21:02:10.717Z</time>
      </trkpt>
      <trkpt lat="44.34135" lon="5.71066">
        <ele>1120</ele>
        <time>2021-05-23T21:02:26.655Z</time>
      </trkpt>
      <trkpt lat="44.34096" lon="5.71181">
        <ele>1083.9</ele>
        <time>2021-05-23T21:02:42.796Z</time>
      </trkpt>
      <trkpt lat="44.34057" lon="5.71296">
        <ele>1081.9</ele>
        <time>2021-05-23T21:02:59.660Z</time>
      </trkpt>
      <trkpt lat="44.34055" lon="5.71302">
        <ele>1082.9</ele>
        <time>2021-05-23T21:03:00.660Z</time>
      </trkpt>
      <trkpt lat="44.34021" lon="5.71377">
        <ele>1098.2</ele>
        <time>2021-05-23T21:03:13.345Z</time>
      </trkpt>
      <trkpt lat="44.33987" lon="5.71452">
        <ele>1117.3</ele>
        <time>2021-05-23T21:03:26.030Z</time>
      </trkpt>
      <trkpt lat="44.33925" lon="5.71476">
        <ele>1164.9</ele>
        <time>2021-05-23T21:03:39.004Z</time>
      </trkpt>
      <trkpt lat="44.33862" lon="5.71499">
        <ele>1207.6</ele>
        <time>2021-05-23T21:03:51.978Z</time>
      </trkpt>
      <trkpt lat="44.33811" lon="5.7142">
        <ele>1200.9</ele>
        <time>2021-05-23T21:04:07.122Z</time>
      </trkpt>
      <trkpt lat="44.33624" lon="5.71131">
        <ele>1205</ele>
        <time>2021-05-23T21:04:55.952Z</time>
      </trkpt>
      <trkpt lat="44.3355" lon="5.70976">
        <ele>1188.3</ele>
        <time>2021-05-23T21:05:15.952Z</time>
      </trkpt>
      <trkpt lat="44.33464" lon="5.70856">
        <ele>1204.6</ele>
        <time>2021-05-23T21:05:35.952Z</time>
      </trkpt>
      <trkpt lat="44.33255" lon="5.70685">
        <ele>1236.5</ele>
        <time>2021-05-23T21:05:55.952Z</time>
      </trkpt>
      <trkpt lat="44.33219" lon="5.70616">
        <ele>1237.3</ele>
        <time>2021-05-23T21:06:15.952Z</time>
      </trkpt>
      <trkpt lat="44.33034" lon="5.70513">
        <ele>1292.9</ele>
        <time>2021-05-23T21:06:35.952Z</time>
      </trkpt>
      <trkpt lat="44.33022" lon="5.70513">
        <ele>1292.4</ele>
        <time>2021-05-23T21:06:55.952Z</time>
      </trkpt>
      <trkpt lat="44.33047" lon="5.70496">
        <ele>1299.1</ele>
        <time>2021-05-23T21:07:15.952Z</time>
      </trkpt>
      <trkpt lat="44.33047" lon="5.70461">
        <ele>1307.3</ele>
        <time>2021-05-23T21:07:35.952Z</time>
      </trkpt>
      <trkpt lat="44.32998" lon="5.70427">
        <ele>1310</ele>
        <time>2021-05-23T21:07:55.952Z</time>
      </trkpt>
      <trkpt lat="44.33034" lon="5.7041">
        <ele>1306.7</ele>
        <time>2021-05-23T21:08:15.952Z</time>
      </trkpt>
      <trkpt lat="44.32973" lon="5.70358">
        <ele>1297.9</ele>
        <time>2021-05-23T21:08:35.952Z</time>
      </trkpt>
      <trkpt lat="44.32924" lon="5.70358">
        <ele>1289.8</ele>
        <time>2021-05-23T21:08:55.952Z</time>
      </trkpt>
      <trkpt lat="44.32973" lon="5.70307">
        <ele>1282.1</ele>
        <time>2021-05-23T21:09:15.952Z</time>
      </trkpt>
      <trkpt lat="44.32924" lon="5.70255">
        <ele>1272.8</ele>
        <time>2021-05-23T21:09:35.952Z</time>
      </trkpt>
      <trkpt lat="44.32936" lon="5.70238">
        <ele>1268.3</ele>
        <time>2021-05-23T21:09:55.952Z</time>
      </trkpt>
      <trkpt lat="44.32875" lon="5.70135">
        <ele>1248.9</ele>
        <time>2021-05-23T21:10:15.952Z</time>
      </trkpt>
      <trkpt lat="44.33108" lon="5.70135">
        <ele>1219.2</ele>
        <time>2021-05-23T21:10:35.952Z</time>
      </trkpt>
      <trkpt lat="44.33206" lon="5.70049">
        <ele>1200.8</ele>
        <time>2021-05-23T21:10:55.952Z</time>
      </trkpt>
      <trkpt lat="44.3312" lon="5.69998">
        <ele>1190</ele>
        <time>2021-05-23T21:11:15.952Z</time>
      </trkpt>
      <trkpt lat="44.33059" lon="5.69998">
        <ele>1184.1</ele>
        <time>2021-05-23T21:11:35.952Z</time>
      </trkpt>
      <trkpt lat="44.33145" lon="5.69878">
        <ele>1169.7</ele>
        <time>2021-05-23T21:11:55.952Z</time>
      </trkpt>
      <trkpt lat="44.32961" lon="5.69775">
        <ele>1137.8</ele>
        <time>2021-05-23T21:12:15.952Z</time>
      </trkpt>
      <trkpt lat="44.32887" lon="5.69775">
        <ele>1141.5</ele>
        <time>2021-05-23T21:12:35.952Z</time>
      </trkpt>
      <trkpt lat="44.32777" lon="5.69706">
        <ele>1129</ele>
        <time>2021-05-23T21:12:55.952Z</time>
      </trkpt>
      <trkpt lat="44.32998" lon="5.69517">
        <ele>1091.8</ele>
        <time>2021-05-23T21:13:15.952Z</time>
      </trkpt>
      <trkpt lat="44.32985" lon="5.69431">
        <ele>1084.1</ele>
        <time>2021-05-23T21:13:35.952Z</time>
      </trkpt>
      <trkpt lat="44.3301" lon="5.69328">
        <ele>1077.5</ele>
        <time>2021-05-23T21:13:55.952Z</time>
      </trkpt>
      <trkpt lat="44.32985" lon="5.69225">
        <ele>1062.5</ele>
        <time>2021-05-23T21:14:15.952Z</time>
      </trkpt>
      <trkpt lat="44.32961" lon="5.69191">
        <ele>1051.9</ele>
        <time>2021-05-23T21:14:35.952Z</time>
      </trkpt>
      <trkpt lat="44.32727" lon="5.69071">
        <ele>988.1</ele>
        <time>2021-05-23T21:14:55.952Z</time>
      </trkpt>
      <trkpt lat="44.32629" lon="5.68779">
        <ele>993.2</ele>
        <time>2021-05-23T21:15:15.952Z</time>
      </trkpt>
      <trkpt lat="44.32506" lon="5.68762">
        <ele>961.8</ele>
        <time>2021-05-23T21:15:35.952Z</time>
      </trkpt>
      <trkpt lat="44.3247" lon="5.6871">
        <ele>957.4</ele>
        <time>2021-05-23T21:15:55.952Z</time>
      </trkpt>
      <trkpt lat="44.32396" lon="5.68745">
        <ele>951.4</ele>
        <time>2021-05-23T21:16:15.952Z</time>
      </trkpt>
      <trkpt lat="44.32285" lon="5.68745">
        <ele>925.6</ele>
        <time>2021-05-23T21:16:35.952Z</time>
      </trkpt>
      <trkpt lat="44.32273" lon="5.6871">
        <ele>935.2</ele>
        <time>2021-05-23T21:16:55.952Z</time>
      </trkpt>
      <trkpt lat="44.3215" lon="5.68779">
        <ele>903.1</ele>
        <time>2021-05-23T21:17:15.952Z</time>
      </trkpt>
      <trkpt lat="44.32003" lon="5.68796">
        <ele>865.6</ele>
        <time>2021-05-23T21:17:35.952Z</time>
      </trkpt>
      <trkpt lat="44.31905" lon="5.68865">
        <ele>847.5</ele>
        <time>2021-05-23T21:17:55.952Z</time>
      </trkpt>
      <trkpt lat="44.3177" lon="5.68899">
        <ele>850.3</ele>
        <time>2021-05-23T21:18:15.952Z</time>
      </trkpt>
      <trkpt lat="44.31671" lon="5.68865">
        <ele>840.4</ele>
        <time>2021-05-23T21:18:35.952Z</time>
      </trkpt>
      <trkpt lat="44.31499" lon="5.69054">
        <ele>804.9</ele>
        <time>2021-05-23T21:18:55.952Z</time>
      </trkpt>
      <trkpt lat="44.31462" lon="5.69037">
        <ele>787</ele>
        <time>2021-05-23T21:19:15.952Z</time>
      </trkpt>
      <trkpt lat="44.31475" lon="5.69071">
        <ele>791.1</ele>
        <time>2021-05-23T21:19:35.952Z</time>
      </trkpt>
      <trkpt lat="44.31438" lon="5.69071">
        <ele>773.4</ele>
        <time>2021-05-23T21:19:55.952Z</time>
      </trkpt>
      <trkpt lat="44.3145" lon="5.69122">
        <ele>756.7</ele>
        <time>2021-05-23T21:20:15.952Z</time>
      </trkpt>
      <trkpt lat="44.31426" lon="5.69122">
        <ele>744.6</ele>
        <time>2021-05-23T21:20:35.952Z</time>
      </trkpt>
      <trkpt lat="44.31426" lon="5.69157">
        <ele>730</ele>
        <time>2021-05-23T21:20:55.952Z</time>
      </trkpt>
      <trkpt lat="44.3134" lon="5.6914">
        <ele>691</ele>
        <time>2021-05-23T21:21:15.952Z</time>
      </trkpt>
      <trkpt lat="44.31327" lon="5.69088">
        <ele>702.5</ele>
        <time>2021-05-23T21:21:24.410Z</time>
      </trkpt>
      <trkpt lat="44.31279" lon="5.69114">
        <ele>688.1</ele>
        <time>2021-05-23T21:21:35.500Z</time>
      </trkpt>
      <trkpt lat="44.3123" lon="5.69139">
        <ele>688.9</ele>
        <time>2021-05-23T21:21:46.590Z</time>
      </trkpt>
      <trkpt lat="44.31227" lon="5.69178">
        <ele>689.1</ele>
        <time>2021-05-23T21:21:52.557Z</time>
      </trkpt>
      <trkpt lat="44.31224" lon="5.69216">
        <ele>688.2</ele>
        <time>2021-05-23T21:21:58.524Z</time>
      </trkpt>
      <trkpt lat="44.31187" lon="5.69317">
        <ele>704.5</ele>
        <time>2021-05-23T21:22:15.913Z</time>
      </trkpt>
      <trkpt lat="44.3115" lon="5.69418">
        <ele>704.6</ele>
        <time>2021-05-23T21:22:32.716Z</time>
      </trkpt>
      <trkpt lat="44.311" lon="5.69418">
        <ele>722.2</ele>
        <time>2021-05-23T21:22:43.223Z</time>
      </trkpt>
      <trkpt lat="44.31049" lon="5.69418">
        <ele>733.5</ele>
        <time>2021-05-23T21:22:53.359Z</time>
      </trkpt>
      <trkpt lat="44.31014" lon="5.69394">
        <ele>748.7</ele>
        <time>2021-05-23T21:23:01.190Z</time>
      </trkpt>
      <trkpt lat="44.30978" lon="5.69371">
        <ele>764</ele>
        <time>2021-05-23T21:23:08.616Z</time>
      </trkpt>
      <trkpt lat="44.30902" lon="5.69379">
        <ele>776.7</ele>
        <time>2021-05-23T21:23:23.228Z</time>
      </trkpt>
      <trkpt lat="44.30825" lon="5.69388">
        <ele>796.3</ele>
        <time>2021-05-23T21:23:36.898Z</time>
      </trkpt>
      <trkpt lat="44.30808" lon="5.69444">
        <ele>796.4</ele>
        <time>2021-05-23T21:23:44.591Z</time>
      </trkpt>
      <trkpt lat="44.30791" lon="5.69499">
        <ele>804.1</ele>
        <time>2021-05-23T21:23:51.855Z</time>
      </trkpt>
      <trkpt lat="44.30767" lon="5.69547">
        <ele>817.7</ele>
        <time>2021-05-23T21:23:58.855Z</time>
      </trkpt>
      <trkpt lat="44.30742" lon="5.69594">
        <ele>830.9</ele>
        <time>2021-05-23T21:24:06.173Z</time>
      </trkpt>
      <trkpt lat="44.30689" lon="5.69491">
        <ele>843.2</ele>
        <time>2021-05-23T21:24:22.101Z</time>
      </trkpt>
      <trkpt lat="44.30636" lon="5.69388">
        <ele>857.2</ele>
        <time>2021-05-23T21:24:43.268Z</time>
      </trkpt>
      <trkpt lat="44.30631" lon="5.69379">
        <ele>859.6</ele>
        <time>2021-05-23T21:24:44.988Z</time>
      </trkpt>
      <trkpt lat="44.30678" lon="5.6932">
        <ele>853.7</ele>
        <time>2021-05-23T21:24:59.731Z</time>
      </trkpt>
      <trkpt lat="44.30725" lon="5.6926">
        <ele>855.4</ele>
        <time>2021-05-23T21:25:14.474Z</time>
      </trkpt>
      <trkpt lat="44.3059" lon="5.69328">
        <ele>879.8</ele>
        <time>2021-05-23T21:25:47.886Z</time>
      </trkpt>
      <trkpt lat="44.30553" lon="5.69243">
        <ele>890.7</ele>
        <time>2021-05-23T21:26:07.886Z</time>
      </trkpt>
      <trkpt lat="44.30468" lon="5.69174">
        <ele>913.2</ele>
        <time>2021-05-23T21:26:27.886Z</time>
      </trkpt>
      <trkpt lat="44.30394" lon="5.69071">
        <ele>940.7</ele>
        <time>2021-05-23T21:26:47.886Z</time>
      </trkpt>
      <trkpt lat="44.30173" lon="5.69157">
        <ele>987.7</ele>
        <time>2021-05-23T21:27:07.886Z</time>
      </trkpt>
      <trkpt lat="44.30087" lon="5.69483">
        <ele>985.7</ele>
        <time>2021-05-23T21:27:27.886Z</time>
      </trkpt>
      <trkpt lat="44.29952" lon="5.69277">
        <ele>980.7</ele>
        <time>2021-05-23T21:27:47.886Z</time>
      </trkpt>
      <trkpt lat="44.29878" lon="5.69243">
        <ele>975.2</ele>
        <time>2021-05-23T21:28:07.886Z</time>
      </trkpt>
      <trkpt lat="44.29706" lon="5.69277">
        <ele>983.3</ele>
        <time>2021-05-23T21:28:27.886Z</time>
      </trkpt>
      <trkpt lat="44.29583" lon="5.69277">
        <ele>986.7</ele>
        <time>2021-05-23T21:28:47.886Z</time>
      </trkpt>
      <trkpt lat="44.29399" lon="5.6914">
        <ele>1028.7</ele>
        <time>2021-05-23T21:29:07.886Z</time>
      </trkpt>
      <trkpt lat="44.29423" lon="5.69191">
        <ele>1034.9</ele>
        <time>2021-05-23T21:29:27.886Z</time>
      </trkpt>
      <trkpt lat="44.29349" lon="5.69208">
        <ele>1059.6</ele>
        <time>2021-05-23T21:29:47.886Z</time>
      </trkpt>
      <trkpt lat="44.29263" lon="5.69105">
        <ele>1047.7</ele>
        <time>2021-05-23T21:30:07.886Z</time>
      </trkpt>
      <trkpt lat="44.29165" lon="5.69157">
        <ele>1050</ele>
        <time>2021-05-23T21:30:27.886Z</time>
      </trkpt>
      <trkpt lat="44.28981" lon="5.69174">
        <ele>1043.2</ele>
        <time>2021-05-23T21:30:47.886Z</time>
      </trkpt>
      <trkpt lat="44.28919" lon="5.69243">
        <ele>1048.1</ele>
        <time>2021-05-23T21:31:07.886Z</time>
      </trkpt>
      <trkpt lat="44.28797" lon="5.69517">
        <ele>1067.1</ele>
        <time>2021-05-23T21:31:27.886Z</time>
      </trkpt>
      <trkpt lat="44.2876" lon="5.69706">
        <ele>1070.9</ele>
        <time>2021-05-23T21:31:47.886Z</time>
      </trkpt>
      <trkpt lat="44.28698" lon="5.69723">
        <ele>1076.7</ele>
        <time>2021-05-23T21:32:07.886Z</time>
      </trkpt>
      <trkpt lat="44.28588" lon="5.69689">
        <ele>1098</ele>
        <time>2021-05-23T21:32:27.886Z</time>
      </trkpt>
      <trkpt lat="44.28526" lon="5.69689">
        <ele>1115.6</ele>
        <time>2021-05-23T21:32:47.886Z</time>
      </trkpt>
      <trkpt lat="44.28514" lon="5.69706">
        <ele>1121.5</ele>
        <time>2021-05-23T21:33:07.886Z</time>
      </trkpt>
      <trkpt lat="44.28514" lon="5.69775">
        <ele>1128.3</ele>
        <time>2021-05-23T21:33:27.886Z</time>
      </trkpt>
      <trkpt lat="44.28477" lon="5.69826">
        <ele>1144.1</ele>
        <time>2021-05-23T21:33:47.886Z</time>
      </trkpt>
      <trkpt lat="44.28428" lon="5.69792">
        <ele>1159.2</ele>
        <time>2021-05-23T21:34:07.886Z</time>
      </trkpt>
      <trkpt lat="44.28366" lon="5.69912">
        <ele>1190.5</ele>
        <time>2021-05-23T21:34:27.886Z</time>
      </trkpt>
      <trkpt lat="44.28317" lon="5.70204">
        <ele>1230.2</ele>
        <time>2021-05-23T21:34:47.886Z</time>
      </trkpt>
      <trkpt lat="44.28317" lon="5.70376">
        <ele>1261</ele>
        <time>2021-05-23T21:35:07.886Z</time>
      </trkpt>
      <trkpt lat="44.28366" lon="5.7041">
        <ele>1255.6</ele>
        <time>2021-05-23T21:35:27.886Z</time>
      </trkpt>
      <trkpt lat="44.28305" lon="5.70393">
        <ele>1261.4</ele>
        <time>2021-05-23T21:35:47.886Z</time>
      </trkpt>
      <trkpt lat="44.28231" lon="5.70221">
        <ele>1288.3</ele>
        <time>2021-05-23T21:36:07.886Z</time>
      </trkpt>
      <trkpt lat="44.28145" lon="5.69758">
        <ele>1291.4</ele>
        <time>2021-05-23T21:36:27.886Z</time>
      </trkpt>
      <trkpt lat="44.28059" lon="5.69534">
        <ele>1288.6</ele>
        <time>2021-05-23T21:36:47.886Z</time>
      </trkpt>
      <trkpt lat="44.28059" lon="5.69294">
        <ele>1289.1</ele>
        <time>2021-05-23T21:37:07.886Z</time>
      </trkpt>
      <trkpt lat="44.27912" lon="5.68693">
        <ele>1281.8</ele>
        <time>2021-05-23T21:37:27.886Z</time>
      </trkpt>
      <trkpt lat="44.27899" lon="5.68504">
        <ele>1286.8</ele>
        <time>2021-05-23T21:37:47.886Z</time>
      </trkpt>
      <trkpt lat="44.27838" lon="5.68298">
        <ele>1280.6</ele>
        <time>2021-05-23T21:38:07.886Z</time>
      </trkpt>
      <trkpt lat="44.27826" lon="5.68178">
        <ele>1261.1</ele>
        <time>2021-05-23T21:38:27.886Z</time>
      </trkpt>
      <trkpt lat="44.27703" lon="5.67801">
        <ele>1230.9</ele>
        <time>2021-05-23T21:38:47.886Z</time>
      </trkpt>
      <trkpt lat="44.27678" lon="5.67766">
        <ele>1224.7</ele>
        <time>2021-05-23T21:39:07.886Z</time>
      </trkpt>
      <trkpt lat="44.27482" lon="5.67303">
        <ele>1215.9</ele>
        <time>2021-05-23T21:39:27.886Z</time>
      </trkpt>
      <trkpt lat="44.2742" lon="5.67114">
        <ele>1239.3</ele>
        <time>2021-05-23T21:39:47.886Z</time>
      </trkpt>
      <trkpt lat="44.27383" lon="5.66839">
        <ele>1246</ele>
        <time>2021-05-23T21:40:07.886Z</time>
      </trkpt>
      <trkpt lat="44.27359" lon="5.66753">
        <ele>1243</ele>
        <time>2021-05-23T21:40:27.886Z</time>
      </trkpt>
      <trkpt lat="44.27297" lon="5.6641">
        <ele>1272.1</ele>
        <time>2021-05-23T21:40:47.886Z</time>
      </trkpt>
      <trkpt lat="44.27223" lon="5.66084">
        <ele>1294.7</ele>
        <time>2021-05-23T21:41:07.886Z</time>
      </trkpt>
      <trkpt lat="44.27248" lon="5.65741">
        <ele>1302.2</ele>
        <time>2021-05-23T21:41:27.886Z</time>
      </trkpt>
      <trkpt lat="44.27137" lon="5.65569">
        <ele>1273.2</ele>
        <time>2021-05-23T21:41:47.886Z</time>
      </trkpt>
      <trkpt lat="44.27076" lon="5.65535">
        <ele>1279.5</ele>
        <time>2021-05-23T21:42:07.886Z</time>
      </trkpt>
      <trkpt lat="44.27002" lon="5.6538">
        <ele>1274.3</ele>
        <time>2021-05-23T21:42:27.886Z</time>
      </trkpt>
      <trkpt lat="44.26928" lon="5.65123">
        <ele>1283.2</ele>
        <time>2021-05-23T21:42:47.886Z</time>
      </trkpt>
      <trkpt lat="44.26842" lon="5.65054">
        <ele>1310.4</ele>
        <time>2021-05-23T21:43:07.886Z</time>
      </trkpt>
      <trkpt lat="44.26855" lon="5.64762">
        <ele>1291.5</ele>
        <time>2021-05-23T21:43:27.886Z</time>
      </trkpt>
      <trkpt lat="44.26818" lon="5.64642">
        <ele>1305</ele>
        <time>2021-05-23T21:43:47.886Z</time>
      </trkpt>
      <trkpt lat="44.26818" lon="5.64453">
        <ele>1303.6</ele>
        <time>2021-05-23T21:44:07.886Z</time>
      </trkpt>
      <trkpt lat="44.26732" lon="5.64299">
        <ele>1297.1</ele>
        <time>2021-05-23T21:44:27.886Z</time>
      </trkpt>
      <trkpt lat="44.26732" lon="5.64161">
        <ele>1297.8</ele>
        <time>2021-05-23T21:44:47.886Z</time>
      </trkpt>
      <trkpt lat="44.26633" lon="5.63973">
        <ele>1300.8</ele>
        <time>2021-05-23T21:45:07.886Z</time>
      </trkpt>
      <trkpt lat="44.26535" lon="5.63955">
        <ele>1294.8</ele>
        <time>2021-05-23T21:45:27.886Z</time>
      </trkpt>
      <trkpt lat="44.26498" lon="5.63852">
        <ele>1277.5</ele>
        <time>2021-05-23T21:45:47.886Z</time>
      </trkpt>
      <trkpt lat="44.26474" lon="5.63715">
        <ele>1260.2</ele>
        <time>2021-05-23T21:46:07.886Z</time>
      </trkpt>
      <trkpt lat="44.26314" lon="5.63458">
        <ele>1217.1</ele>
        <time>2021-05-23T21:46:27.886Z</time>
      </trkpt>
      <trkpt lat="44.26277" lon="5.63303">
        <ele>1192.1</ele>
        <time>2021-05-23T21:46:47.886Z</time>
      </trkpt>
      <trkpt lat="44.26277" lon="5.632">
        <ele>1174.4</ele>
        <time>2021-05-23T21:47:07.886Z</time>
      </trkpt>
      <trkpt lat="44.26265" lon="5.63131">
        <ele>1169.5</ele>
        <time>2021-05-23T21:47:27.886Z</time>
      </trkpt>
      <trkpt lat="44.26289" lon="5.63063">
        <ele>1163.8</ele>
        <time>2021-05-23T21:47:47.886Z</time>
      </trkpt>
      <trkpt lat="44.26277" lon="5.6296">
        <ele>1160.5</ele>
        <time>2021-05-23T21:48:07.886Z</time>
      </trkpt>
      <trkpt lat="44.26314" lon="5.62874">
        <ele>1153.1</ele>
        <time>2021-05-23T21:48:27.886Z</time>
      </trkpt>
      <trkpt lat="44.26265" lon="5.62599">
        <ele>1155.8</ele>
        <time>2021-05-23T21:48:47.886Z</time>
      </trkpt>
      <trkpt lat="44.26277" lon="5.62496">
        <ele>1149.3</ele>
        <time>2021-05-23T21:49:07.886Z</time>
      </trkpt>
      <trkpt lat="44.2624" lon="5.62187">
        <ele>1153</ele>
        <time>2021-05-23T21:49:27.886Z</time>
      </trkpt>
      <trkpt lat="44.26314" lon="5.62084">
        <ele>1147.9</ele>
        <time>2021-05-23T21:49:47.886Z</time>
      </trkpt>
      <trkpt lat="44.26437" lon="5.61964">
        <ele>1130.6</ele>
        <time>2021-05-23T21:50:07.886Z</time>
      </trkpt>
      <trkpt lat="44.26683" lon="5.61913">
        <ele>1100.5</ele>
        <time>2021-05-23T21:50:27.886Z</time>
      </trkpt>
      <trkpt lat="44.26683" lon="5.61878">
        <ele>1098.9</ele>
        <time>2021-05-23T21:50:47.886Z</time>
      </trkpt>
      <trkpt lat="44.26584" lon="5.61775">
        <ele>1110.7</ele>
        <time>2021-05-23T21:51:07.886Z</time>
      </trkpt>
      <trkpt lat="44.26547" lon="5.61638">
        <ele>1116</ele>
        <time>2021-05-23T21:51:27.886Z</time>
      </trkpt>
      <trkpt lat="44.2656" lon="5.61586">
        <ele>1113.9</ele>
        <time>2021-05-23T21:51:47.886Z</time>
      </trkpt>
      <trkpt lat="44.26621" lon="5.61466">
        <ele>1108.2</ele>
        <time>2021-05-23T21:52:07.886Z</time>
      </trkpt>
      <trkpt lat="44.26683" lon="5.61432">
        <ele>1096.5</ele>
        <time>2021-05-23T21:52:27.886Z</time>
      </trkpt>
      <trkpt lat="44.26842" lon="5.61226">
        <ele>1078.6</ele>
        <time>2021-05-23T21:52:47.886Z</time>
      </trkpt>
      <trkpt lat="44.27014" lon="5.61089">
        <ele>1059.4</ele>
        <time>2021-05-23T21:53:07.886Z</time>
      </trkpt>
      <trkpt lat="44.27027" lon="5.61037">
        <ele>1063.9</ele>
        <time>2021-05-23T21:53:27.886Z</time>
      </trkpt>
      <trkpt lat="44.27039" lon="5.60951">
        <ele>1071.7</ele>
        <time>2021-05-23T21:53:47.886Z</time>
      </trkpt>
      <trkpt lat="44.27101" lon="5.60866">
        <ele>1071.3</ele>
        <time>2021-05-23T21:54:07.886Z</time>
      </trkpt>
      <trkpt lat="44.27174" lon="5.60745">
        <ele>1071.3</ele>
        <time>2021-05-23T21:54:27.886Z</time>
      </trkpt>
      <trkpt lat="44.27223" lon="5.60591">
        <ele>1075.7</ele>
        <time>2021-05-23T21:54:47.886Z</time>
      </trkpt>
      <trkpt lat="44.27248" lon="5.60368">
        <ele>1081.4</ele>
        <time>2021-05-23T21:55:07.886Z</time>
      </trkpt>
      <trkpt lat="44.27248" lon="5.6023">
        <ele>1089.3</ele>
        <time>2021-05-23T21:55:27.886Z</time>
      </trkpt>
      <trkpt lat="44.2742" lon="5.59818">
        <ele>1081.7</ele>
        <time>2021-05-23T21:55:47.886Z</time>
      </trkpt>
      <trkpt lat="44.27518" lon="5.59836">
        <ele>1065.9</ele>
        <time>2021-05-23T21:56:07.886Z</time>
      </trkpt>
      <trkpt lat="44.27555" lon="5.59733">
        <ele>1064.4</ele>
        <time>2021-05-23T21:56:27.886Z</time>
      </trkpt>
      <trkpt lat="44.27555" lon="5.59681">
        <ele>1069</ele>
        <time>2021-05-23T21:56:47.886Z</time>
      </trkpt>
      <trkpt lat="44.27604" lon="5.59612">
        <ele>1064.6</ele>
        <time>2021-05-23T21:57:07.886Z</time>
      </trkpt>
      <trkpt lat="44.27703" lon="5.59321">
        <ele>1068.5</ele>
        <time>2021-05-23T21:57:27.886Z</time>
      </trkpt>
      <trkpt lat="44.2774" lon="5.58754">
        <ele>1063.1</ele>
        <time>2021-05-23T21:57:47.886Z</time>
      </trkpt>
      <trkpt lat="44.27764" lon="5.58685">
        <ele>1065.2</ele>
        <time>2021-05-23T21:58:07.886Z</time>
      </trkpt>
      <trkpt lat="44.27801" lon="5.58617">
        <ele>1070.1</ele>
        <time>2021-05-23T21:58:27.886Z</time>
      </trkpt>
      <trkpt lat="44.27826" lon="5.586">
        <ele>1065.3</ele>
        <time>2021-05-23T21:58:47.886Z</time>
      </trkpt>
      <trkpt lat="44.27838" lon="5.58617">
        <ele>1062</ele>
        <time>2021-05-23T21:59:07.886Z</time>
      </trkpt>
      <trkpt lat="44.27801" lon="5.58634">
        <ele>1067.6</ele>
        <time>2021-05-23T21:59:27.886Z</time>
      </trkpt>
      <trkpt lat="44.27777" lon="5.58771">
        <ele>1049.5</ele>
        <time>2021-05-23T21:59:47.886Z</time>
      </trkpt>
      <trkpt lat="44.27838" lon="5.58823">
        <ele>1034.1</ele>
        <time>2021-05-23T22:00:07.886Z</time>
      </trkpt>
      <trkpt lat="44.27838" lon="5.58874">
        <ele>1030.8</ele>
        <time>2021-05-23T22:00:27.886Z</time>
      </trkpt>
      <trkpt lat="44.27912" lon="5.58909">
        <ele>1010.1</ele>
        <time>2021-05-23T22:00:47.886Z</time>
      </trkpt>
      <trkpt lat="44.27912" lon="5.58977">
        <ele>1017.8</ele>
        <time>2021-05-23T22:01:07.886Z</time>
      </trkpt>
      <trkpt lat="44.2785" lon="5.59046">
        <ele>1027.8</ele>
        <time>2021-05-23T22:01:27.886Z</time>
      </trkpt>
      <trkpt lat="44.27863" lon="5.59132">
        <ele>1021.7</ele>
        <time>2021-05-23T22:01:47.886Z</time>
      </trkpt>
      <trkpt lat="44.27961" lon="5.592">
        <ele>1016</ele>
        <time>2021-05-23T22:02:07.886Z</time>
      </trkpt>
      <trkpt lat="44.28071" lon="5.59149">
        <ele>1000.4</ele>
        <time>2021-05-23T22:02:27.886Z</time>
      </trkpt>
      <trkpt lat="44.28305" lon="5.59235">
        <ele>945.5</ele>
        <time>2021-05-23T22:02:47.886Z</time>
      </trkpt>
      <trkpt lat="44.28391" lon="5.59012">
        <ele>906.7</ele>
        <time>2021-05-23T22:03:07.886Z</time>
      </trkpt>
      <trkpt lat="44.28452" lon="5.58977">
        <ele>891.4</ele>
        <time>2021-05-23T22:03:27.886Z</time>
      </trkpt>
      <trkpt lat="44.28563" lon="5.59012">
        <ele>878.9</ele>
        <time>2021-05-23T22:03:47.886Z</time>
      </trkpt>
      <trkpt lat="44.28551" lon="5.5896">
        <ele>876.4</ele>
        <time>2021-05-23T22:04:07.886Z</time>
      </trkpt>
      <trkpt lat="44.28612" lon="5.59029">
        <ele>864.1</ele>
        <time>2021-05-23T22:04:27.886Z</time>
      </trkpt>
      <trkpt lat="44.28612" lon="5.59149">
        <ele>861.6</ele>
        <time>2021-05-23T22:04:47.886Z</time>
      </trkpt>
      <trkpt lat="44.28674" lon="5.59286">
        <ele>848.3</ele>
        <time>2021-05-23T22:05:07.886Z</time>
      </trkpt>
      <trkpt lat="44.28686" lon="5.59389">
        <ele>844</ele>
        <time>2021-05-23T22:05:27.886Z</time>
      </trkpt>
      <trkpt lat="44.28772" lon="5.59527">
        <ele>839.3</ele>
        <time>2021-05-23T22:05:47.886Z</time>
      </trkpt>
      <trkpt lat="44.28772" lon="5.59595">
        <ele>839.6</ele>
        <time>2021-05-23T22:06:07.886Z</time>
      </trkpt>
      <trkpt lat="44.28833" lon="5.59681">
        <ele>834</ele>
        <time>2021-05-23T22:06:27.886Z</time>
      </trkpt>
      <trkpt lat="44.28907" lon="5.59647">
        <ele>830.1</ele>
        <time>2021-05-23T22:06:47.886Z</time>
      </trkpt>
      <trkpt lat="44.29067" lon="5.59715">
        <ele>820.9</ele>
        <time>2021-05-23T22:07:07.886Z</time>
      </trkpt>
      <trkpt lat="44.29141" lon="5.59578">
        <ele>821.2</ele>
        <time>2021-05-23T22:07:27.886Z</time>
      </trkpt>
      <trkpt lat="44.2919" lon="5.59561">
        <ele>822.4</ele>
        <time>2021-05-23T22:07:47.886Z</time>
      </trkpt>
      <trkpt lat="44.29251" lon="5.59578">
        <ele>827.3</ele>
        <time>2021-05-23T22:08:07.886Z</time>
      </trkpt>
      <trkpt lat="44.29263" lon="5.59544">
        <ele>834</ele>
        <time>2021-05-23T22:08:27.886Z</time>
      </trkpt>
      <trkpt lat="44.29239" lon="5.59492">
        <ele>839.7</ele>
        <time>2021-05-23T22:08:47.886Z</time>
      </trkpt>
      <trkpt lat="44.29251" lon="5.59355">
        <ele>859.4</ele>
        <time>2021-05-23T22:09:07.886Z</time>
      </trkpt>
      <trkpt lat="44.29276" lon="5.59389">
        <ele>864.1</ele>
        <time>2021-05-23T22:09:27.886Z</time>
      </trkpt>
      <trkpt lat="44.29313" lon="5.59355">
        <ele>864.8</ele>
        <time>2021-05-23T22:09:47.886Z</time>
      </trkpt>
      <trkpt lat="44.29386" lon="5.59115">
        <ele>911.3</ele>
        <time>2021-05-23T22:10:07.886Z</time>
      </trkpt>
      <trkpt lat="44.29435" lon="5.59046">
        <ele>914.7</ele>
        <time>2021-05-23T22:10:27.886Z</time>
      </trkpt>
      <trkpt lat="44.29423" lon="5.5884">
        <ele>947</ele>
        <time>2021-05-23T22:10:47.886Z</time>
      </trkpt>
      <trkpt lat="44.29325" lon="5.58703">
        <ele>959</ele>
        <time>2021-05-23T22:11:07.886Z</time>
      </trkpt>
      <trkpt lat="44.293" lon="5.58634">
        <ele>962.3</ele>
        <time>2021-05-23T22:11:27.886Z</time>
      </trkpt>
      <trkpt lat="44.29288" lon="5.58394">
        <ele>974.4</ele>
        <time>2021-05-23T22:11:47.886Z</time>
      </trkpt>
      <trkpt lat="44.293" lon="5.58222">
        <ele>979.6</ele>
        <time>2021-05-23T22:12:07.886Z</time>
      </trkpt>
      <trkpt lat="44.29227" lon="5.58033">
        <ele>989.8</ele>
        <time>2021-05-23T22:12:27.886Z</time>
      </trkpt>
      <trkpt lat="44.29214" lon="5.57913">
        <ele>996.1</ele>
        <time>2021-05-23T22:12:45.177Z</time>
      </trkpt>
      <trkpt lat="44.29171" lon="5.57878">
        <ele>1001.5</ele>
        <time>2021-05-23T22:12:55.059Z</time>
      </trkpt>
      <trkpt lat="44.29128" lon="5.57844">
        <ele>1005.7</ele>
        <time>2021-05-23T22:13:04.941Z</time>
      </trkpt>
      <trkpt lat="44.29123" lon="5.57795">
        <ele>1014.3</ele>
        <time>2021-05-23T22:13:11.880Z</time>
      </trkpt>
      <trkpt lat="44.29119" lon="5.57747">
        <ele>1025.2</ele>
        <time>2021-05-23T22:13:18.819Z</time>
      </trkpt>
      <trkpt lat="44.29141" lon="5.57651">
        <ele>1035.8</ele>
        <time>2021-05-23T22:13:33.272Z</time>
      </trkpt>
      <trkpt lat="44.29163" lon="5.57554">
        <ele>1046.5</ele>
        <time>2021-05-23T22:13:47.368Z</time>
      </trkpt>
      <trkpt lat="44.29161" lon="5.57519">
        <ele>1052.2</ele>
        <time>2021-05-23T22:13:52.307Z</time>
      </trkpt>
      <trkpt lat="44.29159" lon="5.57483">
        <ele>1055</ele>
        <time>2021-05-23T22:13:56.938Z</time>
      </trkpt>
      <trkpt lat="44.29159" lon="5.5739">
        <ele>1048.4</ele>
        <time>2021-05-23T22:14:09.098Z</time>
      </trkpt>
      <trkpt lat="44.29159" lon="5.57297">
        <ele>1052.9</ele>
        <time>2021-05-23T22:14:20.427Z</time>
      </trkpt>
      <trkpt lat="44.29137" lon="5.57287">
        <ele>1063.4</ele>
        <time>2021-05-23T22:14:24.256Z</time>
      </trkpt>
      <trkpt lat="44.29116" lon="5.57277">
        <ele>1071.5</ele>
        <time>2021-05-23T22:14:28.491Z</time>
      </trkpt>
      <trkpt lat="44.29116" lon="5.57198">
        <ele>1093.1</ele>
        <time>2021-05-23T22:14:39.148Z</time>
      </trkpt>
      <trkpt lat="44.29101" lon="5.57193">
        <ele>1093.8</ele>
        <time>2021-05-23T22:14:41.534Z</time>
      </trkpt>
      <trkpt lat="44.29085" lon="5.57188">
        <ele>1091.9</ele>
        <time>2021-05-23T22:14:43.920Z</time>
      </trkpt>
      <trkpt lat="44.29085" lon="5.57182">
        <ele>1092.8</ele>
        <time>2021-05-23T22:14:44.672Z</time>
      </trkpt>
      <trkpt lat="44.29069" lon="5.57057">
        <ele>1112.4</ele>
        <time>2021-05-23T22:14:56.467Z</time>
      </trkpt>
      <trkpt lat="44.29067" lon="5.57037">
        <ele>1113.6</ele>
        <time>2021-05-23T22:14:58.323Z</time>
      </trkpt>
      <trkpt lat="44.29078" lon="5.56955">
        <ele>1107.9</ele>
        <time>2021-05-23T22:15:06.040Z</time>
      </trkpt>
      <trkpt lat="44.2909" lon="5.56874">
        <ele>1091.8</ele>
        <time>2021-05-23T22:15:13.757Z</time>
      </trkpt>
      <trkpt lat="44.2906" lon="5.56771">
        <ele>1103.9</ele>
        <time>2021-05-23T22:15:23.985Z</time>
      </trkpt>
      <trkpt lat="44.29031" lon="5.56669">
        <ele>1123.8</ele>
        <time>2021-05-23T22:15:40.394Z</time>
      </trkpt>
      <trkpt lat="44.29054" lon="5.56574">
        <ele>1151.7</ele>
        <time>2021-05-23T22:15:55.356Z</time>
      </trkpt>
      <trkpt lat="44.29071" lon="5.56505">
        <ele>1156.6</ele>
        <time>2021-05-23T22:16:05.917Z</time>
      </trkpt>
      <trkpt lat="44.29031" lon="5.56391">
        <ele>1152</ele>
        <time>2021-05-23T22:16:24.243Z</time>
      </trkpt>
      <trkpt lat="44.28991" lon="5.56277">
        <ele>1160</ele>
        <time>2021-05-23T22:16:42.569Z</time>
      </trkpt>
      <trkpt lat="44.28985" lon="5.5626">
        <ele>1162.6</ele>
        <time>2021-05-23T22:16:45.231Z</time>
      </trkpt>
      <trkpt lat="44.29001" lon="5.56135">
        <ele>1183.9</ele>
        <time>2021-05-23T22:17:03.557Z</time>
      </trkpt>
      <trkpt lat="44.29017" lon="5.5601">
        <ele>1202.6</ele>
        <time>2021-05-23T22:17:21.883Z</time>
      </trkpt>
      <trkpt lat="44.29022" lon="5.55973">
        <ele>1206.6</ele>
        <time>2021-05-23T22:17:27.368Z</time>
      </trkpt>
      <trkpt lat="44.2908" lon="5.5588">
        <ele>1207.6</ele>
        <time>2021-05-23T22:17:45.130Z</time>
      </trkpt>
      <trkpt lat="44.29139" lon="5.55788">
        <ele>1211.4</ele>
        <time>2021-05-23T22:18:01.896Z</time>
      </trkpt>
      <trkpt lat="44.29174" lon="5.55671">
        <ele>1207.8</ele>
        <time>2021-05-23T22:18:19.193Z</time>
      </trkpt>
      <trkpt lat="44.2921" lon="5.55554">
        <ele>1225.2</ele>
        <time>2021-05-23T22:18:36.120Z</time>
      </trkpt>
      <trkpt lat="44.29228" lon="5.55496">
        <ele>1236.8</ele>
        <time>2021-05-23T22:18:44.537Z</time>
      </trkpt>
      <trkpt lat="44.29268" lon="5.55382">
        <ele>1253.4</ele>
        <time>2021-05-23T22:19:01.464Z</time>
      </trkpt>
      <trkpt lat="44.29307" lon="5.55268">
        <ele>1264.7</ele>
        <time>2021-05-23T22:19:18.117Z</time>
      </trkpt>
      <trkpt lat="44.29345" lon="5.55161">
        <ele>1279.7</ele>
        <time>2021-05-23T22:19:33.620Z</time>
      </trkpt>
      <trkpt lat="44.29399" lon="5.5506">
        <ele>1307.4</ele>
        <time>2021-05-23T22:19:50.273Z</time>
      </trkpt>
      <trkpt lat="44.29454" lon="5.54959">
        <ele>1339.3</ele>
        <time>2021-05-23T22:20:06.677Z</time>
      </trkpt>
      <trkpt lat="44.29458" lon="5.54951">
        <ele>1341.5</ele>
        <time>2021-05-23T22:20:07.893Z</time>
      </trkpt>
      <trkpt lat="44.29526" lon="5.54883">
        <ele>1354.6</ele>
        <time>2021-05-23T22:20:22.967Z</time>
      </trkpt>
      <trkpt lat="44.29593" lon="5.54814">
        <ele>1357.4</ele>
        <time>2021-05-23T22:20:36.861Z</time>
      </trkpt>
      <trkpt lat="44.29638" lon="5.5473">
        <ele>1376.5</ele>
        <time>2021-05-23T22:20:49.272Z</time>
      </trkpt>
      <trkpt lat="44.29682" lon="5.54646">
        <ele>1396.5</ele>
        <time>2021-05-23T22:21:00.671Z</time>
      </trkpt>
      <trkpt lat="44.29741" lon="5.54549">
        <ele>1397.5</ele>
        <time>2021-05-23T22:21:14.558Z</time>
      </trkpt>
      <trkpt lat="44.29799" lon="5.54452">
        <ele>1401.5</ele>
        <time>2021-05-23T22:21:27.229Z</time>
      </trkpt>
      <trkpt lat="44.29808" lon="5.54436">
        <ele>1400.8</ele>
        <time>2021-05-23T22:21:29.234Z</time>
      </trkpt>
      <trkpt lat="44.29787" lon="5.54348">
        <ele>1424.7</ele>
        <time>2021-05-23T22:21:38.506Z</time>
      </trkpt>
      <trkpt lat="44.29765" lon="5.5426">
        <ele>1423.8</ele>
        <time>2021-05-23T22:21:47.018Z</time>
      </trkpt>
      <trkpt lat="44.29676" lon="5.54282">
        <ele>1425</ele>
        <time>2021-05-23T22:21:58.650Z</time>
      </trkpt>
      <trkpt lat="44.29586" lon="5.54304">
        <ele>1415.2</ele>
        <time>2021-05-23T22:22:08.397Z</time>
      </trkpt>
      <trkpt lat="44.29572" lon="5.54307">
        <ele>1411.2</ele>
        <time>2021-05-23T22:22:09.960Z</time>
      </trkpt>
      <trkpt lat="44.29629" lon="5.54209">
        <ele>1402.4</ele>
        <time>2021-05-23T22:22:19.707Z</time>
      </trkpt>
      <trkpt lat="44.29686" lon="5.5411">
        <ele>1397.5</ele>
        <time>2021-05-23T22:22:22.692Z</time>
      </trkpt>
      <trkpt lat="44.29743" lon="5.54011">
        <ele>1388.3</ele>
        <time>2021-05-23T22:22:25.677Z</time>
      </trkpt>
      <trkpt lat="44.29793" lon="5.53926">
        <ele>1377.3</ele>
        <time>2021-05-23T22:22:28.265Z</time>
      </trkpt>
      <trkpt lat="44.29831" lon="5.5381">
        <ele>1366.5</ele>
        <time>2021-05-23T22:22:31.250Z</time>
      </trkpt>
      <trkpt lat="44.29869" lon="5.53695">
        <ele>1370.9</ele>
        <time>2021-05-23T22:22:44.420Z</time>
      </trkpt>
      <trkpt lat="44.29907" lon="5.5358">
        <ele>1378.3</ele>
        <time>2021-05-23T22:22:57.590Z</time>
      </trkpt>
      <trkpt lat="44.29946" lon="5.53464">
        <ele>1386.1</ele>
        <time>2021-05-23T22:23:10.760Z</time>
      </trkpt>
      <trkpt lat="44.29984" lon="5.53349">
        <ele>1404.5</ele>
        <time>2021-05-23T22:23:23.930Z</time>
      </trkpt>
      <trkpt lat="44.30022" lon="5.53234">
        <ele>1408.7</ele>
        <time>2021-05-23T22:23:37.100Z</time>
      </trkpt>
      <trkpt lat="44.30057" lon="5.53127">
        <ele>1405.8</ele>
        <time>2021-05-23T22:23:49.247Z</time>
      </trkpt>
      <trkpt lat="44.30097" lon="5.53013">
        <ele>1408.6</ele>
        <time>2021-05-23T22:24:02.416Z</time>
      </trkpt>
      <trkpt lat="44.30137" lon="5.52899">
        <ele>1408.4</ele>
        <time>2021-05-23T22:24:14.884Z</time>
      </trkpt>
      <trkpt lat="44.30178" lon="5.52785">
        <ele>1398.1</ele>
        <time>2021-05-23T22:24:27.352Z</time>
      </trkpt>
      <trkpt lat="44.30218" lon="5.52671">
        <ele>1388</ele>
        <time>2021-05-23T22:24:39.820Z</time>
      </trkpt>
      <trkpt lat="44.30258" lon="5.52557">
        <ele>1388.9</ele>
        <time>2021-05-23T22:24:52.288Z</time>
      </trkpt>
      <trkpt lat="44.30298" lon="5.52443">
        <ele>1394.5</ele>
        <time>2021-05-23T22:25:04.756Z</time>
      </trkpt>
      <trkpt lat="44.30338" lon="5.52329">
        <ele>1393.1</ele>
        <time>2021-05-23T22:25:17.223Z</time>
      </trkpt>
      <trkpt lat="44.30378" lon="5.52215">
        <ele>1388.2</ele>
        <time>2021-05-23T22:25:29.690Z</time>
      </trkpt>
      <trkpt lat="44.30418" lon="5.52101">
        <ele>1375</ele>
        <time>2021-05-23T22:25:42.157Z</time>
      </trkpt>
      <trkpt lat="44.3042" lon="5.52097">
        <ele>1374.8</ele>
        <time>2021-05-23T22:25:42.584Z</time>
      </trkpt>
      <trkpt lat="44.30459" lon="5.51983">
        <ele>1364.7</ele>
        <time>2021-05-23T22:25:55.051Z</time>
      </trkpt>
      <trkpt lat="44.30498" lon="5.51868">
        <ele>1355.5</ele>
        <time>2021-05-23T22:26:07.081Z</time>
      </trkpt>
      <trkpt lat="44.30537" lon="5.51753">
        <ele>1350.8</ele>
        <time>2021-05-23T22:26:19.111Z</time>
      </trkpt>
      <trkpt lat="44.30576" lon="5.51638">
        <ele>1349.9</ele>
        <time>2021-05-23T22:26:31.141Z</time>
      </trkpt>
      <trkpt lat="44.30615" lon="5.51524">
        <ele>1356.1</ele>
        <time>2021-05-23T22:26:43.171Z</time>
      </trkpt>
      <trkpt lat="44.30654" lon="5.51409">
        <ele>1351.1</ele>
        <time>2021-05-23T22:26:55.200Z</time>
      </trkpt>
      <trkpt lat="44.30659" lon="5.51394">
        <ele>1350</ele>
        <time>2021-05-23T22:26:56.820Z</time>
      </trkpt>
      <trkpt lat="44.30709" lon="5.51288">
        <ele>1347.8</ele>
        <time>2021-05-23T22:27:08.849Z</time>
      </trkpt>
      <trkpt lat="44.3076" lon="5.51182">
        <ele>1349</ele>
        <time>2021-05-23T22:27:19.886Z</time>
      </trkpt>
      <trkpt lat="44.3081" lon="5.51076">
        <ele>1346.1</ele>
        <time>2021-05-23T22:27:30.922Z</time>
      </trkpt>
      <trkpt lat="44.3086" lon="5.5097">
        <ele>1343</ele>
        <time>2021-05-23T22:27:41.958Z</time>
      </trkpt>
      <trkpt lat="44.3091" lon="5.50864">
        <ele>1337.3</ele>
        <time>2021-05-23T22:27:52.994Z</time>
      </trkpt>
      <trkpt lat="44.3096" lon="5.50758">
        <ele>1333.2</ele>
        <time>2021-05-23T22:28:04.030Z</time>
      </trkpt>
      <trkpt lat="44.30985" lon="5.50707">
        <ele>1333.9</ele>
        <time>2021-05-23T22:28:09.365Z</time>
      </trkpt>
      <trkpt lat="44.31008" lon="5.50584">
        <ele>1342.2</ele>
        <time>2021-05-23T22:28:20.401Z</time>
      </trkpt>
      <trkpt lat="44.31032" lon="5.50462">
        <ele>1338.1</ele>
        <time>2021-05-23T22:28:38.106Z</time>
      </trkpt>
      <trkpt lat="44.31056" lon="5.50339">
        <ele>1323.8</ele>
        <time>2021-05-23T22:28:55.811Z</time>
      </trkpt>
      <trkpt lat="44.3108" lon="5.50216">
        <ele>1309.3</ele>
        <time>2021-05-23T22:29:13.516Z</time>
      </trkpt>
      <trkpt lat="44.31103" lon="5.50094">
        <ele>1290</ele>
        <time>2021-05-23T22:29:31.221Z</time>
      </trkpt>
      <trkpt lat="44.31107" lon="5.50072">
        <ele>1286.6</ele>
        <time>2021-05-23T22:29:34.388Z</time>
      </trkpt>
      <trkpt lat="44.31129" lon="5.49948">
        <ele>1259.9</ele>
        <time>2021-05-23T22:29:52.093Z</time>
      </trkpt>
      <trkpt lat="44.3115" lon="5.49825">
        <ele>1228.3</ele>
        <time>2021-05-23T22:30:09.210Z</time>
      </trkpt>
      <trkpt lat="44.31171" lon="5.49701">
        <ele>1202.6</ele>
        <time>2021-05-23T22:30:26.327Z</time>
      </trkpt>
      <trkpt lat="44.31192" lon="5.49577">
        <ele>1190.8</ele>
        <time>2021-05-23T22:30:43.444Z</time>
      </trkpt>
      <trkpt lat="44.31213" lon="5.49454">
        <ele>1180.6</ele>
        <time>2021-05-23T22:31:00.561Z</time>
      </trkpt>
      <trkpt lat="44.31234" lon="5.4933">
        <ele>1169.1</ele>
        <time>2021-05-23T22:31:17.678Z</time>
      </trkpt>
      <trkpt lat="44.31255" lon="5.49207">
        <ele>1163.2</ele>
        <time>2021-05-23T22:31:34.795Z</time>
      </trkpt>
      <trkpt lat="44.31261" lon="5.4917">
        <ele>1163.1</ele>
        <time>2021-05-23T22:31:39.797Z</time>
      </trkpt>
      <trkpt lat="44.31271" lon="5.49044">
        <ele>1162.4</ele>
        <time>2021-05-23T22:31:56.914Z</time>
      </trkpt>
      <trkpt lat="44.31281" lon="5.48918">
        <ele>1158.9</ele>
        <time>2021-05-23T22:32:13.874Z</time>
      </trkpt>
      <trkpt lat="44.31291" lon="5.48792">
        <ele>1143</ele>
        <time>2021-05-23T22:32:30.834Z</time>
      </trkpt>
      <trkpt lat="44.31298" lon="5.48698">
        <ele>1133.2</ele>
        <time>2021-05-23T22:32:43.349Z</time>
      </trkpt>
      <trkpt lat="44.31233" lon="5.4872">
        <ele>1114</ele>
        <time>2021-05-23T22:32:55.716Z</time>
      </trkpt>
      <trkpt lat="44.31169" lon="5.48741">
        <ele>1093.9</ele>
        <time>2021-05-23T22:33:07.823Z</time>
      </trkpt>
      <trkpt lat="44.312" lon="5.4869">
        <ele>1096.6</ele>
        <time>2021-05-23T22:33:16.584Z</time>
      </trkpt>
      <trkpt lat="44.3123" lon="5.48638">
        <ele>1103</ele>
        <time>2021-05-23T22:33:25.345Z</time>
      </trkpt>
      <trkpt lat="44.31212" lon="5.48565">
        <ele>1092.5</ele>
        <time>2021-05-23T22:33:35.456Z</time>
      </trkpt>
      <trkpt lat="44.31193" lon="5.48492">
        <ele>1093.6</ele>
        <time>2021-05-23T22:33:45.567Z</time>
      </trkpt>
      <trkpt lat="44.31125" lon="5.48409">
        <ele>1089.9</ele>
        <time>2021-05-23T22:34:02.170Z</time>
      </trkpt>
      <trkpt lat="44.31057" lon="5.48325">
        <ele>1065.5</ele>
        <time>2021-05-23T22:34:16.779Z</time>
      </trkpt>
      <trkpt lat="44.3104" lon="5.48304">
        <ele>1058.8</ele>
        <time>2021-05-23T22:34:20.430Z</time>
      </trkpt>
      <trkpt lat="44.31064" lon="5.48181">
        <ele>1064.3</ele>
        <time>2021-05-23T22:34:35.039Z</time>
      </trkpt>
      <trkpt lat="44.31088" lon="5.48059">
        <ele>1054.1</ele>
        <time>2021-05-23T22:34:47.555Z</time>
      </trkpt>
      <trkpt lat="44.31113" lon="5.47936">
        <ele>1042.9</ele>
        <time>2021-05-23T22:35:00.071Z</time>
      </trkpt>
      <trkpt lat="44.31119" lon="5.47905">
        <ele>1037.5</ele>
        <time>2021-05-23T22:35:03.274Z</time>
      </trkpt>
      <trkpt lat="44.30996" lon="5.48077">
        <ele>1022.6</ele>
        <time>2021-05-23T22:35:27.231Z</time>
      </trkpt>
      <trkpt lat="44.31045" lon="5.47888">
        <ele>1007.8</ele>
        <time>2021-05-23T22:35:47.231Z</time>
      </trkpt>
      <trkpt lat="44.30947" lon="5.47957">
        <ele>985.1</ele>
        <time>2021-05-23T22:36:07.231Z</time>
      </trkpt>
      <trkpt lat="44.3091" lon="5.48077">
        <ele>975.6</ele>
        <time>2021-05-23T22:36:27.231Z</time>
      </trkpt>
      <trkpt lat="44.30799" lon="5.48283">
        <ele>964.5</ele>
        <time>2021-05-23T22:36:47.231Z</time>
      </trkpt>
      <trkpt lat="44.30811" lon="5.48403">
        <ele>955</ele>
        <time>2021-05-23T22:37:07.231Z</time>
      </trkpt>
      <trkpt lat="44.30689" lon="5.48145">
        <ele>933.8</ele>
        <time>2021-05-23T22:37:27.231Z</time>
      </trkpt>
      <trkpt lat="44.30639" lon="5.47802">
        <ele>918.3</ele>
        <time>2021-05-23T22:37:47.231Z</time>
      </trkpt>
      <trkpt lat="44.30566" lon="5.47596">
        <ele>906.4</ele>
        <time>2021-05-23T22:38:07.231Z</time>
      </trkpt>
      <trkpt lat="44.3048" lon="5.47459">
        <ele>884.6</ele>
        <time>2021-05-23T22:38:27.231Z</time>
      </trkpt>
      <trkpt lat="44.30431" lon="5.47493">
        <ele>895.5</ele>
        <time>2021-05-23T22:38:47.231Z</time>
      </trkpt>
      <trkpt lat="44.30431" lon="5.4739">
        <ele>879.5</ele>
        <time>2021-05-23T22:39:07.231Z</time>
      </trkpt>
      <trkpt lat="44.30345" lon="5.47321">
        <ele>869.7</ele>
        <time>2021-05-23T22:39:27.231Z</time>
      </trkpt>
      <trkpt lat="44.30234" lon="5.47304">
        <ele>869.5</ele>
        <time>2021-05-23T22:39:47.231Z</time>
      </trkpt>
      <trkpt lat="44.30099" lon="5.47253">
        <ele>854.9</ele>
        <time>2021-05-23T22:40:07.231Z</time>
      </trkpt>
      <trkpt lat="44.30062" lon="5.47304">
        <ele>858.9</ele>
        <time>2021-05-23T22:40:27.231Z</time>
      </trkpt>
      <trkpt lat="44.30013" lon="5.47218">
        <ele>844.3</ele>
        <time>2021-05-23T22:40:47.231Z</time>
      </trkpt>
      <trkpt lat="44.29939" lon="5.4727">
        <ele>848.1</ele>
        <time>2021-05-23T22:41:07.231Z</time>
      </trkpt>
      <trkpt lat="44.2973" lon="5.47115">
        <ele>830.2</ele>
        <time>2021-05-23T22:41:27.231Z</time>
      </trkpt>
      <trkpt lat="44.29681" lon="5.47115">
        <ele>833.2</ele>
        <time>2021-05-23T22:41:47.231Z</time>
      </trkpt>
      <trkpt lat="44.29546" lon="5.4703">
        <ele>819.8</ele>
        <time>2021-05-23T22:42:07.231Z</time>
      </trkpt>
      <trkpt lat="44.29448" lon="5.47064">
        <ele>808.5</ele>
        <time>2021-05-23T22:42:27.231Z</time>
      </trkpt>
      <trkpt lat="44.29386" lon="5.47012">
        <ele>797.8</ele>
        <time>2021-05-23T22:42:47.231Z</time>
      </trkpt>
      <trkpt lat="44.29313" lon="5.47012">
        <ele>786.1</ele>
        <time>2021-05-23T22:43:07.231Z</time>
      </trkpt>
      <trkpt lat="44.29214" lon="5.47047">
        <ele>789.2</ele>
        <time>2021-05-23T22:43:27.231Z</time>
      </trkpt>
      <trkpt lat="44.29177" lon="5.46995">
        <ele>786.9</ele>
        <time>2021-05-23T22:43:47.231Z</time>
      </trkpt>
      <trkpt lat="44.29153" lon="5.46961">
        <ele>786.3</ele>
        <time>2021-05-23T22:44:07.231Z</time>
      </trkpt>
      <trkpt lat="44.29202" lon="5.46978">
        <ele>778.1</ele>
        <time>2021-05-23T22:44:27.231Z</time>
      </trkpt>
      <trkpt lat="44.29325" lon="5.46927">
        <ele>774.3</ele>
        <time>2021-05-23T22:44:47.231Z</time>
      </trkpt>
      <trkpt lat="44.29423" lon="5.46824">
        <ele>770.4</ele>
        <time>2021-05-23T22:45:07.231Z</time>
      </trkpt>
      <trkpt lat="44.29349" lon="5.46789">
        <ele>759.9</ele>
        <time>2021-05-23T22:45:27.231Z</time>
      </trkpt>
      <trkpt lat="44.29325" lon="5.46721">
        <ele>761.7</ele>
        <time>2021-05-23T22:45:47.231Z</time>
      </trkpt>
      <trkpt lat="44.29337" lon="5.46618">
        <ele>756.5</ele>
        <time>2021-05-23T22:46:07.231Z</time>
      </trkpt>
      <trkpt lat="44.29325" lon="5.46377">
        <ele>751.7</ele>
        <time>2021-05-23T22:46:27.231Z</time>
      </trkpt>
      <trkpt lat="44.29337" lon="5.46343">
        <ele>756.5</ele>
        <time>2021-05-23T22:46:47.231Z</time>
      </trkpt>
      <trkpt lat="44.29313" lon="5.46274">
        <ele>748.7</ele>
        <time>2021-05-23T22:47:07.231Z</time>
      </trkpt>
      <trkpt lat="44.293" lon="5.46103">
        <ele>738.7</ele>
        <time>2021-05-23T22:47:27.231Z</time>
      </trkpt>
      <trkpt lat="44.29276" lon="5.46034">
        <ele>733.7</ele>
        <time>2021-05-23T22:47:47.231Z</time>
      </trkpt>
      <trkpt lat="44.29251" lon="5.45725">
        <ele>707.4</ele>
        <time>2021-05-23T22:48:07.231Z</time>
      </trkpt>
      <trkpt lat="44.29288" lon="5.45605">
        <ele>701.9</ele>
        <time>2021-05-23T22:48:27.231Z</time>
      </trkpt>
      <trkpt lat="44.29386" lon="5.45553">
        <ele>701.1</ele>
        <time>2021-05-23T22:48:47.231Z</time>
      </trkpt>
      <trkpt lat="44.29276" lon="5.45502">
        <ele>699.6</ele>
        <time>2021-05-23T22:49:07.231Z</time>
      </trkpt>
      <trkpt lat="44.29091" lon="5.45502">
        <ele>691.4</ele>
        <time>2021-05-23T22:49:27.231Z</time>
      </trkpt>
      <trkpt lat="44.28883" lon="5.45399">
        <ele>673.2</ele>
        <time>2021-05-23T22:49:47.231Z</time>
      </trkpt>
      <trkpt lat="44.2887" lon="5.4521">
        <ele>660.5</ele>
        <time>2021-05-23T22:50:07.231Z</time>
      </trkpt>
      <trkpt lat="44.28956" lon="5.44867">
        <ele>650.6</ele>
        <time>2021-05-23T22:50:27.231Z</time>
      </trkpt>
      <trkpt lat="44.28895" lon="5.44695">
        <ele>642.3</ele>
        <time>2021-05-23T22:50:47.231Z</time>
      </trkpt>
      <trkpt lat="44.29042" lon="5.44455">
        <ele>642.5</ele>
        <time>2021-05-23T22:51:07.231Z</time>
      </trkpt>
      <trkpt lat="44.29104" lon="5.44317">
        <ele>639.9</ele>
        <time>2021-05-23T22:51:27.231Z</time>
      </trkpt>
      <trkpt lat="44.29104" lon="5.4418">
        <ele>635.2</ele>
        <time>2021-05-23T22:51:47.231Z</time>
      </trkpt>
      <trkpt lat="44.29141" lon="5.44111">
        <ele>630.9</ele>
        <time>2021-05-23T22:52:07.231Z</time>
      </trkpt>
      <trkpt lat="44.29153" lon="5.43408">
        <ele>621.2</ele>
        <time>2021-05-23T22:52:27.231Z</time>
      </trkpt>
      <trkpt lat="44.2919" lon="5.43322">
        <ele>622.2</ele>
        <time>2021-05-23T22:52:47.231Z</time>
      </trkpt>
      <trkpt lat="44.29141" lon="5.42961">
        <ele>613.8</ele>
        <time>2021-05-23T22:53:07.231Z</time>
      </trkpt>
      <trkpt lat="44.29165" lon="5.42738">
        <ele>612.8</ele>
        <time>2021-05-23T22:53:27.231Z</time>
      </trkpt>
      <trkpt lat="44.29079" lon="5.42566">
        <ele>611.2</ele>
        <time>2021-05-23T22:53:47.231Z</time>
      </trkpt>
      <trkpt lat="44.29067" lon="5.42498">
        <ele>610</ele>
        <time>2021-05-23T22:54:07.231Z</time>
      </trkpt>
      <trkpt lat="44.28944" lon="5.42223">
        <ele>600.1</ele>
        <time>2021-05-23T22:54:27.231Z</time>
      </trkpt>
      <trkpt lat="44.28907" lon="5.42223">
        <ele>601.7</ele>
        <time>2021-05-23T22:54:47.231Z</time>
      </trkpt>
      <trkpt lat="44.28993" lon="5.42034">
        <ele>599.6</ele>
        <time>2021-05-23T22:55:07.231Z</time>
      </trkpt>
      <trkpt lat="44.28969" lon="5.41948">
        <ele>605.8</ele>
        <time>2021-05-23T22:55:27.231Z</time>
      </trkpt>
      <trkpt lat="44.28895" lon="5.41691">
        <ele>635.7</ele>
        <time>2021-05-23T22:55:47.231Z</time>
      </trkpt>
      <trkpt lat="44.28809" lon="5.41639">
        <ele>651.8</ele>
        <time>2021-05-23T22:56:07.231Z</time>
      </trkpt>
      <trkpt lat="44.28797" lon="5.41674">
        <ele>655.8</ele>
        <time>2021-05-23T22:56:27.231Z</time>
      </trkpt>
      <trkpt lat="44.28711" lon="5.41742">
        <ele>651.9</ele>
        <time>2021-05-23T22:56:47.231Z</time>
      </trkpt>
      <trkpt lat="44.28551" lon="5.41777">
        <ele>629.5</ele>
        <time>2021-05-23T22:57:07.231Z</time>
      </trkpt>
      <trkpt lat="44.28477" lon="5.41948">
        <ele>632</ele>
        <time>2021-05-23T22:57:27.231Z</time>
      </trkpt>
      <trkpt lat="44.28403" lon="5.41983">
        <ele>624.2</ele>
        <time>2021-05-23T22:57:47.231Z</time>
      </trkpt>
      <trkpt lat="44.28182" lon="5.41966">
        <ele>610</ele>
        <time>2021-05-23T22:58:07.231Z</time>
      </trkpt>
      <trkpt lat="44.28022" lon="5.41931">
        <ele>618.3</ele>
        <time>2021-05-23T22:58:27.231Z</time>
      </trkpt>
      <trkpt lat="44.27863" lon="5.42">
        <ele>635</ele>
        <time>2021-05-23T22:58:47.231Z</time>
      </trkpt>
      <trkpt lat="44.27936" lon="5.41863">
        <ele>644</ele>
        <time>2021-05-23T22:59:07.231Z</time>
      </trkpt>
      <trkpt lat="44.27949" lon="5.41777">
        <ele>639.8</ele>
        <time>2021-05-23T22:59:27.231Z</time>
      </trkpt>
      <trkpt lat="44.27936" lon="5.41725">
        <ele>642.3</ele>
        <time>2021-05-23T22:59:47.231Z</time>
      </trkpt>
      <trkpt lat="44.27838" lon="5.41674">
        <ele>668.4</ele>
        <time>2021-05-23T23:00:07.231Z</time>
      </trkpt>
      <trkpt lat="44.27801" lon="5.41605">
        <ele>676.5</ele>
        <time>2021-05-23T23:00:27.231Z</time>
      </trkpt>
      <trkpt lat="44.27752" lon="5.41451">
        <ele>709.2</ele>
        <time>2021-05-23T23:00:47.231Z</time>
      </trkpt>
      <trkpt lat="44.27764" lon="5.41382">
        <ele>709.7</ele>
        <time>2021-05-23T23:01:07.231Z</time>
      </trkpt>
      <trkpt lat="44.27715" lon="5.41296">
        <ele>756.8</ele>
        <time>2021-05-23T23:01:27.231Z</time>
      </trkpt>
      <trkpt lat="44.27715" lon="5.41107">
        <ele>775.5</ele>
        <time>2021-05-23T23:01:47.231Z</time>
      </trkpt>
      <trkpt lat="44.27703" lon="5.41073">
        <ele>780.8</ele>
        <time>2021-05-23T23:02:07.231Z</time>
      </trkpt>
      <trkpt lat="44.27629" lon="5.40987">
        <ele>798</ele>
        <time>2021-05-23T23:02:27.231Z</time>
      </trkpt>
      <trkpt lat="44.27518" lon="5.41004">
        <ele>813.6</ele>
        <time>2021-05-23T23:02:47.231Z</time>
      </trkpt>
      <trkpt lat="44.27506" lon="5.4097">
        <ele>808.9</ele>
        <time>2021-05-23T23:03:07.231Z</time>
      </trkpt>
      <trkpt lat="44.27506" lon="5.40936">
        <ele>807.6</ele>
        <time>2021-05-23T23:03:27.231Z</time>
      </trkpt>
      <trkpt lat="44.27469" lon="5.40901">
        <ele>818.1</ele>
        <time>2021-05-23T23:03:47.231Z</time>
      </trkpt>
      <trkpt lat="44.27457" lon="5.40798">
        <ele>819.5</ele>
        <time>2021-05-23T23:04:07.231Z</time>
      </trkpt>
      <trkpt lat="44.27346" lon="5.40764">
        <ele>849</ele>
        <time>2021-05-23T23:04:27.231Z</time>
      </trkpt>
      <trkpt lat="44.27273" lon="5.4085">
        <ele>863.5</ele>
        <time>2021-05-23T23:04:47.231Z</time>
      </trkpt>
      <trkpt lat="44.27187" lon="5.40678">
        <ele>909</ele>
        <time>2021-05-23T23:05:07.231Z</time>
      </trkpt>
      <trkpt lat="44.27125" lon="5.40712">
        <ele>915.7</ele>
        <time>2021-05-23T23:05:27.231Z</time>
      </trkpt>
      <trkpt lat="44.27162" lon="5.40592">
        <ele>933.2</ele>
        <time>2021-05-23T23:05:47.231Z</time>
      </trkpt>
      <trkpt lat="44.27101" lon="5.40609">
        <ele>932.6</ele>
        <time>2021-05-23T23:06:07.231Z</time>
      </trkpt>
      <trkpt lat="44.27137" lon="5.40558">
        <ele>939.8</ele>
        <time>2021-05-23T23:06:27.231Z</time>
      </trkpt>
      <trkpt lat="44.27088" lon="5.40472">
        <ele>955.8</ele>
        <time>2021-05-23T23:06:47.231Z</time>
      </trkpt>
      <trkpt lat="44.27076" lon="5.40386">
        <ele>970.8</ele>
        <time>2021-05-23T23:07:07.231Z</time>
      </trkpt>
      <trkpt lat="44.27113" lon="5.40318">
        <ele>976</ele>
        <time>2021-05-23T23:07:27.231Z</time>
      </trkpt>
      <trkpt lat="44.27051" lon="5.40318">
        <ele>990.9</ele>
        <time>2021-05-23T23:07:47.231Z</time>
      </trkpt>
      <trkpt lat="44.27027" lon="5.40215">
        <ele>996.3</ele>
        <time>2021-05-23T23:08:07.231Z</time>
      </trkpt>
      <trkpt lat="44.27002" lon="5.40215">
        <ele>996.3</ele>
        <time>2021-05-23T23:08:27.231Z</time>
      </trkpt>
      <trkpt lat="44.26928" lon="5.40318">
        <ele>984.5</ele>
        <time>2021-05-23T23:08:47.231Z</time>
      </trkpt>
      <trkpt lat="44.26888" lon="5.40271">
        <ele>984.8</ele>
        <time>2021-05-23T23:09:07.231Z</time>
      </trkpt>
      <trkpt lat="44.26864" lon="5.40259">
        <ele>986.1</ele>
        <time>2021-05-23T23:09:27.231Z</time>
      </trkpt>
      <trkpt lat="44.26803" lon="5.40299">
        <ele>986.1</ele>
        <time>2021-05-23T23:09:47.231Z</time>
      </trkpt>
      <trkpt lat="44.26764" lon="5.40296">
        <ele>990.8</ele>
        <time>2021-05-23T23:10:07.231Z</time>
      </trkpt>
      <trkpt lat="44.26726" lon="5.40313">
        <ele>993.3</ele>
        <time>2021-05-23T23:10:27.231Z</time>
      </trkpt>
      <trkpt lat="44.26714" lon="5.40337">
        <ele>993.7</ele>
        <time>2021-05-23T23:10:47.231Z</time>
      </trkpt>
      <trkpt lat="44.2667" lon="5.40358">
        <ele>998.8</ele>
        <time>2021-05-23T23:11:07.231Z</time>
      </trkpt>
      <trkpt lat="44.26629" lon="5.40365">
        <ele>1000.7</ele>
        <time>2021-05-23T23:11:27.231Z</time>
      </trkpt>
      <trkpt lat="44.26606" lon="5.40351">
        <ele>1002.8</ele>
        <time>2021-05-23T23:11:47.231Z</time>
      </trkpt>
      <trkpt lat="44.26538" lon="5.40313">
        <ele>1016.2</ele>
        <time>2021-05-23T23:12:07.231Z</time>
      </trkpt>
      <trkpt lat="44.2651" lon="5.40304">
        <ele>1020.1</ele>
        <time>2021-05-23T23:12:27.231Z</time>
      </trkpt>
      <trkpt lat="44.26482" lon="5.40377">
        <ele>1020.3</ele>
        <time>2021-05-23T23:12:47.231Z</time>
      </trkpt>
      <trkpt lat="44.2647" lon="5.40343">
        <ele>1027.1</ele>
        <time>2021-05-23T23:13:07.231Z</time>
      </trkpt>
      <trkpt lat="44.26466" lon="5.40311">
        <ele>1031.2</ele>
        <time>2021-05-23T23:13:27.231Z</time>
      </trkpt>
      <trkpt lat="44.26451" lon="5.40281">
        <ele>1040</ele>
        <time>2021-05-23T23:13:47.231Z</time>
      </trkpt>
      <trkpt lat="44.26428" lon="5.40287">
        <ele>1049.5</ele>
        <time>2021-05-23T23:14:07.231Z</time>
      </trkpt>
      <trkpt lat="44.26393" lon="5.40329">
        <ele>1063.8</ele>
        <time>2021-05-23T23:14:27.231Z</time>
      </trkpt>
      <trkpt lat="44.26371" lon="5.4034">
        <ele>1072.2</ele>
        <time>2021-05-23T23:14:47.231Z</time>
      </trkpt>
      <trkpt lat="44.26344" lon="5.4034">
        <ele>1086.2</ele>
        <time>2021-05-23T23:15:07.231Z</time>
      </trkpt>
      <trkpt lat="44.2633" lon="5.40356">
        <ele>1088.7</ele>
        <time>2021-05-23T23:15:27.231Z</time>
      </trkpt>
      <trkpt lat="44.26286" lon="5.40381">
        <ele>1097.7</ele>
        <time>2021-05-23T23:15:47.231Z</time>
      </trkpt>
      <trkpt lat="44.26258" lon="5.40375">
        <ele>1103.3</ele>
        <time>2021-05-23T23:16:07.231Z</time>
      </trkpt>
      <trkpt lat="44.26234" lon="5.40347">
        <ele>1110.2</ele>
        <time>2021-05-23T23:16:27.231Z</time>
      </trkpt>
      <trkpt lat="44.26185" lon="5.40353">
        <ele>1116.9</ele>
        <time>2021-05-23T23:16:47.231Z</time>
      </trkpt>
      <trkpt lat="44.26151" lon="5.4034">
        <ele>1124.4</ele>
        <time>2021-05-23T23:17:07.231Z</time>
      </trkpt>
      <trkpt lat="44.26141" lon="5.403">
        <ele>1128</ele>
        <time>2021-05-23T23:17:27.231Z</time>
      </trkpt>
      <trkpt lat="44.26121" lon="5.40286">
        <ele>1130.5</ele>
        <time>2021-05-23T23:17:47.231Z</time>
      </trkpt>
      <trkpt lat="44.26099" lon="5.40257">
        <ele>1137.1</ele>
        <time>2021-05-23T23:18:07.231Z</time>
      </trkpt>
      <trkpt lat="44.26082" lon="5.40184">
        <ele>1152.1</ele>
        <time>2021-05-23T23:18:27.231Z</time>
      </trkpt>
      <trkpt lat="44.26082" lon="5.40135">
        <ele>1159.9</ele>
        <time>2021-05-23T23:18:47.231Z</time>
      </trkpt>
      <trkpt lat="44.2607" lon="5.40034">
        <ele>1177.5</ele>
        <time>2021-05-23T23:19:07.231Z</time>
      </trkpt>
      <trkpt lat="44.26054" lon="5.39963">
        <ele>1193.5</ele>
        <time>2021-05-23T23:19:27.231Z</time>
      </trkpt>
      <trkpt lat="44.26057" lon="5.39921">
        <ele>1201.7</ele>
        <time>2021-05-23T23:19:47.231Z</time>
      </trkpt>
      <trkpt lat="44.26055" lon="5.39875">
        <ele>1211.3</ele>
        <time>2021-05-23T23:20:07.231Z</time>
      </trkpt>
      <trkpt lat="44.26025" lon="5.39781">
        <ele>1228.3</ele>
        <time>2021-05-23T23:20:27.231Z</time>
      </trkpt>
      <trkpt lat="44.26002" lon="5.39733">
        <ele>1226.6</ele>
        <time>2021-05-23T23:20:47.231Z</time>
      </trkpt>
      <trkpt lat="44.25996" lon="5.39663">
        <ele>1212.4</ele>
        <time>2021-05-23T23:21:07.231Z</time>
      </trkpt>
      <trkpt lat="44.26" lon="5.39589">
        <ele>1195.5</ele>
        <time>2021-05-23T23:21:27.231Z</time>
      </trkpt>
      <trkpt lat="44.2597" lon="5.39602">
        <ele>1189.4</ele>
        <time>2021-05-23T23:21:47.231Z</time>
      </trkpt>
      <trkpt lat="44.25901" lon="5.39664">
        <ele>1172</ele>
        <time>2021-05-23T23:22:07.231Z</time>
      </trkpt>
      <trkpt lat="44.25834" lon="5.39766">
        <ele>1164.2</ele>
        <time>2021-05-23T23:22:27.231Z</time>
      </trkpt>
      <trkpt lat="44.25753" lon="5.3983">
        <ele>1147</ele>
        <time>2021-05-23T23:22:47.231Z</time>
      </trkpt>
      <trkpt lat="44.25711" lon="5.39824">
        <ele>1133.1</ele>
        <time>2021-05-23T23:23:07.231Z</time>
      </trkpt>
      <trkpt lat="44.25656" lon="5.39864">
        <ele>1128.8</ele>
        <time>2021-05-23T23:23:27.231Z</time>
      </trkpt>
      <trkpt lat="44.25626" lon="5.39865">
        <ele>1123.9</ele>
        <time>2021-05-23T23:23:47.231Z</time>
      </trkpt>
      <trkpt lat="44.25594" lon="5.39829">
        <ele>1110</ele>
        <time>2021-05-23T23:24:07.231Z</time>
      </trkpt>
      <trkpt lat="44.25582" lon="5.39838">
        <ele>1109.6</ele>
        <time>2021-05-23T23:24:27.231Z</time>
      </trkpt>
      <trkpt lat="44.25569" lon="5.39798">
        <ele>1098.2</ele>
        <time>2021-05-23T23:24:47.231Z</time>
      </trkpt>
      <trkpt lat="44.25535" lon="5.39766">
        <ele>1087.4</ele>
        <time>2021-05-23T23:25:07.231Z</time>
      </trkpt>
      <trkpt lat="44.25506" lon="5.39794">
        <ele>1088.3</ele>
        <time>2021-05-23T23:25:27.231Z</time>
      </trkpt>
      <trkpt lat="44.25481" lon="5.3979">
        <ele>1087.2</ele>
        <time>2021-05-23T23:25:47.231Z</time>
      </trkpt>
      <trkpt lat="44.25434" lon="5.39712">
        <ele>1073</ele>
        <time>2021-05-23T23:26:07.231Z</time>
      </trkpt>
      <trkpt lat="44.25408" lon="5.39689">
        <ele>1067.8</ele>
        <time>2021-05-23T23:26:27.231Z</time>
      </trkpt>
      <trkpt lat="44.25389" lon="5.39656">
        <ele>1059.1</ele>
        <time>2021-05-23T23:26:47.231Z</time>
      </trkpt>
      <trkpt lat="44.25339" lon="5.39627">
        <ele>1048.3</ele>
        <time>2021-05-23T23:27:07.231Z</time>
      </trkpt>
      <trkpt lat="44.25272" lon="5.39709">
        <ele>1043.1</ele>
        <time>2021-05-23T23:27:27.231Z</time>
      </trkpt>
      <trkpt lat="44.25304" lon="5.39644">
        <ele>1040.4</ele>
        <time>2021-05-23T23:27:47.231Z</time>
      </trkpt>
      <trkpt lat="44.2533" lon="5.39589">
        <ele>1032.3</ele>
        <time>2021-05-23T23:28:07.231Z</time>
      </trkpt>
      <trkpt lat="44.25345" lon="5.39583">
        <ele>1031.8</ele>
        <time>2021-05-23T23:28:27.231Z</time>
      </trkpt>
      <trkpt lat="44.25411" lon="5.39591">
        <ele>1035.7</ele>
        <time>2021-05-23T23:28:47.231Z</time>
      </trkpt>
      <trkpt lat="44.25434" lon="5.39582">
        <ele>1037.5</ele>
        <time>2021-05-23T23:29:07.231Z</time>
      </trkpt>
      <trkpt lat="44.25444" lon="5.39544">
        <ele>1037</ele>
        <time>2021-05-23T23:29:27.231Z</time>
      </trkpt>
      <trkpt lat="44.25433" lon="5.39453">
        <ele>1031.1</ele>
        <time>2021-05-23T23:29:47.231Z</time>
      </trkpt>
      <trkpt lat="44.25428" lon="5.39375">
        <ele>1021.1</ele>
        <time>2021-05-23T23:30:07.231Z</time>
      </trkpt>
      <trkpt lat="44.25437" lon="5.39327">
        <ele>1017.5</ele>
        <time>2021-05-23T23:30:27.231Z</time>
      </trkpt>
      <trkpt lat="44.2541" lon="5.39334">
        <ele>1010.6</ele>
        <time>2021-05-23T23:30:47.231Z</time>
      </trkpt>
      <trkpt lat="44.25386" lon="5.39366">
        <ele>1006.8</ele>
        <time>2021-05-23T23:31:07.231Z</time>
      </trkpt>
      <trkpt lat="44.25365" lon="5.39484">
        <ele>1011.6</ele>
        <time>2021-05-23T23:31:27.231Z</time>
      </trkpt>
      <trkpt lat="44.25333" lon="5.39485">
        <ele>1003.7</ele>
        <time>2021-05-23T23:31:47.231Z</time>
      </trkpt>
      <trkpt lat="44.25281" lon="5.39559">
        <ele>996.8</ele>
        <time>2021-05-23T23:32:07.231Z</time>
      </trkpt>
      <trkpt lat="44.25257" lon="5.39581">
        <ele>986.7</ele>
        <time>2021-05-23T23:32:27.231Z</time>
      </trkpt>
      <trkpt lat="44.2524" lon="5.39617">
        <ele>989.4</ele>
        <time>2021-05-23T23:32:47.231Z</time>
      </trkpt>
      <trkpt lat="44.25231" lon="5.39615">
        <ele>982.4</ele>
        <time>2021-05-23T23:33:07.231Z</time>
      </trkpt>
      <trkpt lat="44.25235" lon="5.39593">
        <ele>977.7</ele>
        <time>2021-05-23T23:33:27.231Z</time>
      </trkpt>
      <trkpt lat="44.25233" lon="5.39559">
        <ele>971.8</ele>
        <time>2021-05-23T23:33:47.231Z</time>
      </trkpt>
      <trkpt lat="44.25197" lon="5.39558">
        <ele>960.9</ele>
        <time>2021-05-23T23:34:07.231Z</time>
      </trkpt>
      <trkpt lat="44.25183" lon="5.39549">
        <ele>958.3</ele>
        <time>2021-05-23T23:34:27.231Z</time>
      </trkpt>
      <trkpt lat="44.2516" lon="5.39566">
        <ele>955.3</ele>
        <time>2021-05-23T23:34:47.231Z</time>
      </trkpt>
      <trkpt lat="44.25141" lon="5.39603">
        <ele>955.3</ele>
        <time>2021-05-23T23:35:07.231Z</time>
      </trkpt>
      <trkpt lat="44.25122" lon="5.39617">
        <ele>955.8</ele>
        <time>2021-05-23T23:35:27.231Z</time>
      </trkpt>
      <trkpt lat="44.25087" lon="5.39623">
        <ele>952.9</ele>
        <time>2021-05-23T23:35:47.231Z</time>
      </trkpt>
      <trkpt lat="44.25059" lon="5.39672">
        <ele>962.1</ele>
        <time>2021-05-23T23:36:07.231Z</time>
      </trkpt>
      <trkpt lat="44.25031" lon="5.39687">
        <ele>954.2</ele>
        <time>2021-05-23T23:36:27.231Z</time>
      </trkpt>
      <trkpt lat="44.25002" lon="5.39733">
        <ele>943.9</ele>
        <time>2021-05-23T23:36:47.231Z</time>
      </trkpt>
      <trkpt lat="44.2499" lon="5.39791">
        <ele>947.2</ele>
        <time>2021-05-23T23:37:07.231Z</time>
      </trkpt>
      <trkpt lat="44.24963" lon="5.3979">
        <ele>941.2</ele>
        <time>2021-05-23T23:37:27.231Z</time>
      </trkpt>
      <trkpt lat="44.24923" lon="5.39856">
        <ele>945.7</ele>
        <time>2021-05-23T23:37:47.231Z</time>
      </trkpt>
      <trkpt lat="44.24893" lon="5.39946">
        <ele>950.9</ele>
        <time>2021-05-23T23:38:07.231Z</time>
      </trkpt>
      <trkpt lat="44.24855" lon="5.40003">
        <ele>950.8</ele>
        <time>2021-05-23T23:38:27.231Z</time>
      </trkpt>
      <trkpt lat="44.24803" lon="5.40025">
        <ele>943.5</ele>
        <time>2021-05-23T23:38:47.231Z</time>
      </trkpt>
      <trkpt lat="44.24788" lon="5.4004">
        <ele>945.7</ele>
        <time>2021-05-23T23:39:07.231Z</time>
      </trkpt>
      <trkpt lat="44.2477" lon="5.4003">
        <ele>943.8</ele>
        <time>2021-05-23T23:39:27.231Z</time>
      </trkpt>
      <trkpt lat="44.24746" lon="5.40042">
        <ele>951.1</ele>
        <time>2021-05-23T23:39:47.231Z</time>
      </trkpt>
      <trkpt lat="44.2474" lon="5.4004">
        <ele>952.6</ele>
        <time>2021-05-23T23:40:07.231Z</time>
      </trkpt>
      <trkpt lat="44.24742" lon="5.40008">
        <ele>954.9</ele>
        <time>2021-05-23T23:40:27.231Z</time>
      </trkpt>
      <trkpt lat="44.24775" lon="5.39959">
        <ele>947.5</ele>
        <time>2021-05-23T23:40:47.231Z</time>
      </trkpt>
      <trkpt lat="44.24796" lon="5.39894">
        <ele>949</ele>
        <time>2021-05-23T23:41:07.231Z</time>
      </trkpt>
      <trkpt lat="44.24804" lon="5.39841">
        <ele>953.2</ele>
        <time>2021-05-23T23:41:27.231Z</time>
      </trkpt>
      <trkpt lat="44.24834" lon="5.39708">
        <ele>958.6</ele>
        <time>2021-05-23T23:41:47.231Z</time>
      </trkpt>
      <trkpt lat="44.24844" lon="5.39645">
        <ele>957.1</ele>
        <time>2021-05-23T23:42:07.231Z</time>
      </trkpt>
      <trkpt lat="44.24828" lon="5.39605">
        <ele>967.4</ele>
        <time>2021-05-23T23:42:27.231Z</time>
      </trkpt>
      <trkpt lat="44.2484" lon="5.39585">
        <ele>966.1</ele>
        <time>2021-05-23T23:42:47.231Z</time>
      </trkpt>
      <trkpt lat="44.24826" lon="5.39514">
        <ele>971</ele>
        <time>2021-05-23T23:43:07.231Z</time>
      </trkpt>
      <trkpt lat="44.24832" lon="5.39466">
        <ele>971.2</ele>
        <time>2021-05-23T23:43:27.231Z</time>
      </trkpt>
      <trkpt lat="44.24832" lon="5.3942">
        <ele>976.2</ele>
        <time>2021-05-23T23:43:47.231Z</time>
      </trkpt>
      <trkpt lat="44.24862" lon="5.39347">
        <ele>968.9</ele>
        <time>2021-05-23T23:44:07.231Z</time>
      </trkpt>
      <trkpt lat="44.24834" lon="5.39341">
        <ele>972.9</ele>
        <time>2021-05-23T23:44:27.231Z</time>
      </trkpt>
      <trkpt lat="44.24809" lon="5.39288">
        <ele>968</ele>
        <time>2021-05-23T23:44:47.231Z</time>
      </trkpt>
      <trkpt lat="44.24766" lon="5.39344">
        <ele>973.9</ele>
        <time>2021-05-23T23:45:07.231Z</time>
      </trkpt>
      <trkpt lat="44.24717" lon="5.39369">
        <ele>971.9</ele>
        <time>2021-05-23T23:45:27.231Z</time>
      </trkpt>
      <trkpt lat="44.24699" lon="5.39403">
        <ele>974.1</ele>
        <time>2021-05-23T23:45:47.231Z</time>
      </trkpt>
      <trkpt lat="44.24668" lon="5.39402">
        <ele>974.8</ele>
        <time>2021-05-23T23:46:07.231Z</time>
      </trkpt>
      <trkpt lat="44.24592" lon="5.3922">
        <ele>993.7</ele>
        <time>2021-05-23T23:46:27.231Z</time>
      </trkpt>
      <trkpt lat="44.24571" lon="5.39217">
        <ele>988.1</ele>
        <time>2021-05-23T23:46:47.231Z</time>
      </trkpt>
      <trkpt lat="44.2449" lon="5.39327">
        <ele>978.7</ele>
        <time>2021-05-23T23:47:07.231Z</time>
      </trkpt>
      <trkpt lat="44.24461" lon="5.39358">
        <ele>983.7</ele>
        <time>2021-05-23T23:47:27.231Z</time>
      </trkpt>
      <trkpt lat="44.24436" lon="5.39362">
        <ele>976.5</ele>
        <time>2021-05-23T23:47:47.231Z</time>
      </trkpt>
      <trkpt lat="44.24424" lon="5.39378">
        <ele>979</ele>
        <time>2021-05-23T23:48:07.231Z</time>
      </trkpt>
      <trkpt lat="44.24412" lon="5.39383">
        <ele>978.5</ele>
        <time>2021-05-23T23:48:27.231Z</time>
      </trkpt>
      <trkpt lat="44.24382" lon="5.39294">
        <ele>962.7</ele>
        <time>2021-05-23T23:48:47.231Z</time>
      </trkpt>
      <trkpt lat="44.24326" lon="5.39277">
        <ele>963.3</ele>
        <time>2021-05-23T23:49:07.231Z</time>
      </trkpt>
      <trkpt lat="44.24255" lon="5.39151">
        <ele>963.1</ele>
        <time>2021-05-23T23:49:27.231Z</time>
      </trkpt>
      <trkpt lat="44.24226" lon="5.39109">
        <ele>956.6</ele>
        <time>2021-05-23T23:49:47.231Z</time>
      </trkpt>
      <trkpt lat="44.24189" lon="5.39113">
        <ele>956.6</ele>
        <time>2021-05-23T23:50:07.231Z</time>
      </trkpt>
      <trkpt lat="44.24141" lon="5.39097">
        <ele>945.8</ele>
        <time>2021-05-23T23:50:27.231Z</time>
      </trkpt>
      <trkpt lat="44.24111" lon="5.39044">
        <ele>932.4</ele>
        <time>2021-05-23T23:50:47.231Z</time>
      </trkpt>
      <trkpt lat="44.24043" lon="5.39059">
        <ele>918.3</ele>
        <time>2021-05-23T23:51:07.231Z</time>
      </trkpt>
      <trkpt lat="44.23933" lon="5.38935">
        <ele>894.6</ele>
        <time>2021-05-23T23:51:27.231Z</time>
      </trkpt>
      <trkpt lat="44.23894" lon="5.38995">
        <ele>902.3</ele>
        <time>2021-05-23T23:51:47.231Z</time>
      </trkpt>
      <trkpt lat="44.23832" lon="5.39033">
        <ele>914.5</ele>
        <time>2021-05-23T23:52:07.231Z</time>
      </trkpt>
      <trkpt lat="44.23801" lon="5.39095">
        <ele>913.5</ele>
        <time>2021-05-23T23:52:27.231Z</time>
      </trkpt>
      <trkpt lat="44.2377" lon="5.39138">
        <ele>919.3</ele>
        <time>2021-05-23T23:52:47.231Z</time>
      </trkpt>
      <trkpt lat="44.23731" lon="5.39168">
        <ele>923.4</ele>
        <time>2021-05-23T23:53:07.231Z</time>
      </trkpt>
      <trkpt lat="44.23648" lon="5.39212">
        <ele>939.6</ele>
        <time>2021-05-23T23:53:27.231Z</time>
      </trkpt>
      <trkpt lat="44.23595" lon="5.3926">
        <ele>950.9</ele>
        <time>2021-05-23T23:53:47.231Z</time>
      </trkpt>
      <trkpt lat="44.23556" lon="5.39313">
        <ele>955.5</ele>
        <time>2021-05-23T23:54:07.231Z</time>
      </trkpt>
      <trkpt lat="44.23518" lon="5.39334">
        <ele>961.1</ele>
        <time>2021-05-23T23:54:27.231Z</time>
      </trkpt>
      <trkpt lat="44.23478" lon="5.39379">
        <ele>958.9</ele>
        <time>2021-05-23T23:54:47.231Z</time>
      </trkpt>
      <trkpt lat="44.23424" lon="5.39417">
        <ele>960.8</ele>
        <time>2021-05-23T23:55:07.231Z</time>
      </trkpt>
      <trkpt lat="44.23374" lon="5.39492">
        <ele>958.8</ele>
        <time>2021-05-23T23:55:27.231Z</time>
      </trkpt>
      <trkpt lat="44.23244" lon="5.39617">
        <ele>969.3</ele>
        <time>2021-05-23T23:55:47.231Z</time>
      </trkpt>
      <trkpt lat="44.2319" lon="5.39647">
        <ele>972</ele>
        <time>2021-05-23T23:56:07.231Z</time>
      </trkpt>
      <trkpt lat="44.23154" lon="5.39693">
        <ele>974.6</ele>
        <time>2021-05-23T23:56:27.231Z</time>
      </trkpt>
      <trkpt lat="44.22985" lon="5.39795">
        <ele>983.2</ele>
        <time>2021-05-23T23:56:47.231Z</time>
      </trkpt>
      <trkpt lat="44.22963" lon="5.39828">
        <ele>981.5</ele>
        <time>2021-05-23T23:57:07.231Z</time>
      </trkpt>
      <trkpt lat="44.22898" lon="5.39874">
        <ele>990</ele>
        <time>2021-05-23T23:57:27.231Z</time>
      </trkpt>
      <trkpt lat="44.2282" lon="5.3989">
        <ele>1000.3</ele>
        <time>2021-05-23T23:57:47.231Z</time>
      </trkpt>
      <trkpt lat="44.2281" lon="5.39905">
        <ele>998.6</ele>
        <time>2021-05-23T23:58:07.231Z</time>
      </trkpt>
      <trkpt lat="44.22778" lon="5.39923">
        <ele>998.5</ele>
        <time>2021-05-23T23:58:27.231Z</time>
      </trkpt>
      <trkpt lat="44.2276" lon="5.39895">
        <ele>999</ele>
        <time>2021-05-23T23:58:47.231Z</time>
      </trkpt>
      <trkpt lat="44.22754" lon="5.39868">
        <ele>997.8</ele>
        <time>2021-05-23T23:59:07.231Z</time>
      </trkpt>
      <trkpt lat="44.22704" lon="5.39787">
        <ele>990.4</ele>
        <time>2021-05-23T23:59:27.231Z</time>
      </trkpt>
      <trkpt lat="44.22644" lon="5.39726">
        <ele>980.8</ele>
        <time>2021-05-23T23:59:47.231Z</time>
      </trkpt>
      <trkpt lat="44.22619" lon="5.39715">
        <ele>979.1</ele>
        <time>2021-05-24T00:00:07.231Z</time>
      </trkpt>
      <trkpt lat="44.22575" lon="5.39676">
        <ele>971.2</ele>
        <time>2021-05-24T00:00:27.231Z</time>
      </trkpt>
      <trkpt lat="44.22519" lon="5.39598">
        <ele>962.7</ele>
        <time>2021-05-24T00:00:47.231Z</time>
      </trkpt>
      <trkpt lat="44.2241" lon="5.39551">
        <ele>939.4</ele>
        <time>2021-05-24T00:01:07.231Z</time>
      </trkpt>
      <trkpt lat="44.2239" lon="5.39531">
        <ele>937.9</ele>
        <time>2021-05-24T00:01:27.231Z</time>
      </trkpt>
      <trkpt lat="44.22362" lon="5.39517">
        <ele>932.8</ele>
        <time>2021-05-24T00:01:47.231Z</time>
      </trkpt>
      <trkpt lat="44.22318" lon="5.39532">
        <ele>920.6</ele>
        <time>2021-05-24T00:02:07.231Z</time>
      </trkpt>
      <trkpt lat="44.22275" lon="5.39532">
        <ele>916.7</ele>
        <time>2021-05-24T00:02:27.231Z</time>
      </trkpt>
      <trkpt lat="44.22147" lon="5.39483">
        <ele>895.4</ele>
        <time>2021-05-24T00:02:47.231Z</time>
      </trkpt>
      <trkpt lat="44.2195" lon="5.39336">
        <ele>871.9</ele>
        <time>2021-05-24T00:03:07.231Z</time>
      </trkpt>
      <trkpt lat="44.21847" lon="5.393">
        <ele>857.7</ele>
        <time>2021-05-24T00:03:27.231Z</time>
      </trkpt>
      <trkpt lat="44.21791" lon="5.39311">
        <ele>844.9</ele>
        <time>2021-05-24T00:03:47.231Z</time>
      </trkpt>
      <trkpt lat="44.21714" lon="5.39289">
        <ele>837.7</ele>
        <time>2021-05-24T00:04:07.231Z</time>
      </trkpt>
      <trkpt lat="44.21629" lon="5.39283">
        <ele>837.1</ele>
        <time>2021-05-24T00:04:27.231Z</time>
      </trkpt>
      <trkpt lat="44.21604" lon="5.3929">
        <ele>836.3</ele>
        <time>2021-05-24T00:04:47.231Z</time>
      </trkpt>
      <trkpt lat="44.21556" lon="5.39324">
        <ele>833.4</ele>
        <time>2021-05-24T00:05:07.231Z</time>
      </trkpt>
      <trkpt lat="44.21535" lon="5.39381">
        <ele>833.3</ele>
        <time>2021-05-24T00:05:27.231Z</time>
      </trkpt>
      <trkpt lat="44.21528" lon="5.39439">
        <ele>833.9</ele>
        <time>2021-05-24T00:05:47.231Z</time>
      </trkpt>
      <trkpt lat="44.21508" lon="5.39497">
        <ele>829</ele>
        <time>2021-05-24T00:06:07.231Z</time>
      </trkpt>
      <trkpt lat="44.21487" lon="5.39597">
        <ele>828.2</ele>
        <time>2021-05-24T00:06:27.231Z</time>
      </trkpt>
      <trkpt lat="44.2148" lon="5.39675">
        <ele>824.9</ele>
        <time>2021-05-24T00:06:47.231Z</time>
      </trkpt>
      <trkpt lat="44.21487" lon="5.39714">
        <ele>818.7</ele>
        <time>2021-05-24T00:07:07.231Z</time>
      </trkpt>
      <trkpt lat="44.21513" lon="5.39768">
        <ele>820.8</ele>
        <time>2021-05-24T00:07:27.231Z</time>
      </trkpt>
      <trkpt lat="44.21513" lon="5.39791">
        <ele>820.2</ele>
        <time>2021-05-24T00:07:47.231Z</time>
      </trkpt>
      <trkpt lat="44.21502" lon="5.39798">
        <ele>815.2</ele>
        <time>2021-05-24T00:08:07.231Z</time>
      </trkpt>
      <trkpt lat="44.21482" lon="5.39797">
        <ele>813.4</ele>
        <time>2021-05-24T00:08:27.231Z</time>
      </trkpt>
      <trkpt lat="44.21442" lon="5.39804">
        <ele>809.9</ele>
        <time>2021-05-24T00:08:47.231Z</time>
      </trkpt>
      <trkpt lat="44.21336" lon="5.39876">
        <ele>799.1</ele>
        <time>2021-05-24T00:09:07.231Z</time>
      </trkpt>
      <trkpt lat="44.21295" lon="5.39912">
        <ele>797</ele>
        <time>2021-05-24T00:09:27.231Z</time>
      </trkpt>
      <trkpt lat="44.21257" lon="5.39918">
        <ele>797.3</ele>
        <time>2021-05-24T00:09:47.231Z</time>
      </trkpt>
      <trkpt lat="44.21228" lon="5.39964">
        <ele>797.3</ele>
        <time>2021-05-24T00:10:07.231Z</time>
      </trkpt>
      <trkpt lat="44.21201" lon="5.40026">
        <ele>794.5</ele>
        <time>2021-05-24T00:10:27.231Z</time>
      </trkpt>
      <trkpt lat="44.21189" lon="5.40076">
        <ele>793.9</ele>
        <time>2021-05-24T00:10:47.231Z</time>
      </trkpt>
      <trkpt lat="44.21193" lon="5.4012">
        <ele>796.5</ele>
        <time>2021-05-24T00:11:07.231Z</time>
      </trkpt>
      <trkpt lat="44.21195" lon="5.40178">
        <ele>797.1</ele>
        <time>2021-05-24T00:11:27.231Z</time>
      </trkpt>
      <trkpt lat="44.2118" lon="5.40228">
        <ele>796.1</ele>
        <time>2021-05-24T00:11:47.231Z</time>
      </trkpt>
      <trkpt lat="44.21179" lon="5.4024">
        <ele>796</ele>
        <time>2021-05-24T00:12:07.231Z</time>
      </trkpt>
      <trkpt lat="44.21198" lon="5.40267">
        <ele>799.6</ele>
        <time>2021-05-24T00:12:27.231Z</time>
      </trkpt>
      <trkpt lat="44.21201" lon="5.40286">
        <ele>800.1</ele>
        <time>2021-05-24T00:12:47.231Z</time>
      </trkpt>
      <trkpt lat="44.21193" lon="5.40301">
        <ele>799.8</ele>
        <time>2021-05-24T00:13:07.231Z</time>
      </trkpt>
      <trkpt lat="44.2118" lon="5.40286">
        <ele>798.4</ele>
        <time>2021-05-24T00:13:27.231Z</time>
      </trkpt>
      <trkpt lat="44.21151" lon="5.40279">
        <ele>794.4</ele>
        <time>2021-05-24T00:13:47.231Z</time>
      </trkpt>
      <trkpt lat="44.21136" lon="5.40269">
        <ele>790.6</ele>
        <time>2021-05-24T00:14:07.231Z</time>
      </trkpt>
      <trkpt lat="44.21119" lon="5.40209">
        <ele>780.3</ele>
        <time>2021-05-24T00:14:27.231Z</time>
      </trkpt>
      <trkpt lat="44.21099" lon="5.40194">
        <ele>779.4</ele>
        <time>2021-05-24T00:14:47.231Z</time>
      </trkpt>
      <trkpt lat="44.21078" lon="5.40207">
        <ele>780.6</ele>
        <time>2021-05-24T00:15:07.231Z</time>
      </trkpt>
      <trkpt lat="44.21065" lon="5.40227">
        <ele>780.1</ele>
        <time>2021-05-24T00:15:27.231Z</time>
      </trkpt>
      <trkpt lat="44.2106" lon="5.40306">
        <ele>781</ele>
        <time>2021-05-24T00:15:47.231Z</time>
      </trkpt>
      <trkpt lat="44.21047" lon="5.40344">
        <ele>780.8</ele>
        <time>2021-05-24T00:16:07.231Z</time>
      </trkpt>
      <trkpt lat="44.21037" lon="5.40338">
        <ele>778.4</ele>
        <time>2021-05-24T00:16:27.231Z</time>
      </trkpt>
      <trkpt lat="44.21033" lon="5.403">
        <ele>774</ele>
        <time>2021-05-24T00:16:47.231Z</time>
      </trkpt>
      <trkpt lat="44.21019" lon="5.40286">
        <ele>771.3</ele>
        <time>2021-05-24T00:17:07.231Z</time>
      </trkpt>
      <trkpt lat="44.21006" lon="5.40289">
        <ele>771.7</ele>
        <time>2021-05-24T00:17:27.231Z</time>
      </trkpt>
      <trkpt lat="44.20963" lon="5.40364">
        <ele>774.2</ele>
        <time>2021-05-24T00:17:47.231Z</time>
      </trkpt>
      <trkpt lat="44.20913" lon="5.40432">
        <ele>768.9</ele>
        <time>2021-05-24T00:18:07.231Z</time>
      </trkpt>
      <trkpt lat="44.20904" lon="5.40466">
        <ele>769.3</ele>
        <time>2021-05-24T00:18:27.231Z</time>
      </trkpt>
      <trkpt lat="44.20871" lon="5.40464">
        <ele>764.2</ele>
        <time>2021-05-24T00:18:47.231Z</time>
      </trkpt>
      <trkpt lat="44.2086" lon="5.40508">
        <ele>764.9</ele>
        <time>2021-05-24T00:19:07.231Z</time>
      </trkpt>
      <trkpt lat="44.20814" lon="5.40581">
        <ele>758.5</ele>
        <time>2021-05-24T00:19:27.231Z</time>
      </trkpt>
      <trkpt lat="44.20793" lon="5.40592">
        <ele>755.9</ele>
        <time>2021-05-24T00:19:47.231Z</time>
      </trkpt>
      <trkpt lat="44.20793" lon="5.40613">
        <ele>758.3</ele>
        <time>2021-05-24T00:20:07.231Z</time>
      </trkpt>
      <trkpt lat="44.20812" lon="5.40645">
        <ele>762.7</ele>
        <time>2021-05-24T00:20:27.231Z</time>
      </trkpt>
      <trkpt lat="44.20848" lon="5.40684">
        <ele>766.5</ele>
        <time>2021-05-24T00:20:47.231Z</time>
      </trkpt>
      <trkpt lat="44.20851" lon="5.407">
        <ele>765</ele>
        <time>2021-05-24T00:21:07.231Z</time>
      </trkpt>
      <trkpt lat="44.20843" lon="5.40707">
        <ele>763.5</ele>
        <time>2021-05-24T00:21:27.231Z</time>
      </trkpt>
      <trkpt lat="44.20816" lon="5.40698">
        <ele>758.6</ele>
        <time>2021-05-24T00:21:47.231Z</time>
      </trkpt>
      <trkpt lat="44.20794" lon="5.40712">
        <ele>756.2</ele>
        <time>2021-05-24T00:22:07.231Z</time>
      </trkpt>
      <trkpt lat="44.20778" lon="5.40766">
        <ele>755.9</ele>
        <time>2021-05-24T00:22:27.231Z</time>
      </trkpt>
      <trkpt lat="44.20761" lon="5.40775">
        <ele>753.2</ele>
        <time>2021-05-24T00:22:47.231Z</time>
      </trkpt>
      <trkpt lat="44.20739" lon="5.40765">
        <ele>750</ele>
        <time>2021-05-24T00:23:07.231Z</time>
      </trkpt>
      <trkpt lat="44.20706" lon="5.40762">
        <ele>750</ele>
        <time>2021-05-24T00:23:27.231Z</time>
      </trkpt>
      <trkpt lat="44.20688" lon="5.40713">
        <ele>747</ele>
        <time>2021-05-24T00:23:47.231Z</time>
      </trkpt>
      <trkpt lat="44.20656" lon="5.40684">
        <ele>747</ele>
        <time>2021-05-24T00:24:07.231Z</time>
      </trkpt>
      <trkpt lat="44.20643" lon="5.40687">
        <ele>746.7</ele>
        <time>2021-05-24T00:24:27.231Z</time>
      </trkpt>
      <trkpt lat="44.20631" lon="5.40721">
        <ele>747</ele>
        <time>2021-05-24T00:24:47.231Z</time>
      </trkpt>
      <trkpt lat="44.20605" lon="5.40754">
        <ele>742.7</ele>
        <time>2021-05-24T00:25:07.231Z</time>
      </trkpt>
      <trkpt lat="44.20572" lon="5.40755">
        <ele>739.7</ele>
        <time>2021-05-24T00:25:27.231Z</time>
      </trkpt>
      <trkpt lat="44.20538" lon="5.40788">
        <ele>740.4</ele>
        <time>2021-05-24T00:25:47.231Z</time>
      </trkpt>
      <trkpt lat="44.20539" lon="5.40739">
        <ele>736.5</ele>
        <time>2021-05-24T00:26:07.231Z</time>
      </trkpt>
      <trkpt lat="44.20555" lon="5.40691">
        <ele>733.7</ele>
        <time>2021-05-24T00:26:27.231Z</time>
      </trkpt>
      <trkpt lat="44.20557" lon="5.40669">
        <ele>731.3</ele>
        <time>2021-05-24T00:26:47.231Z</time>
      </trkpt>
      <trkpt lat="44.20565" lon="5.4066">
        <ele>729.8</ele>
        <time>2021-05-24T00:27:07.231Z</time>
      </trkpt>
      <trkpt lat="44.20584" lon="5.40677">
        <ele>732.8</ele>
        <time>2021-05-24T00:27:27.231Z</time>
      </trkpt>
      <trkpt lat="44.20594" lon="5.40652">
        <ele>731.4</ele>
        <time>2021-05-24T00:27:47.231Z</time>
      </trkpt>
      <trkpt lat="44.20599" lon="5.40594">
        <ele>725.8</ele>
        <time>2021-05-24T00:28:07.231Z</time>
      </trkpt>
      <trkpt lat="44.20618" lon="5.40531">
        <ele>721.5</ele>
        <time>2021-05-24T00:28:27.231Z</time>
      </trkpt>
      <trkpt lat="44.20646" lon="5.40473">
        <ele>719</ele>
        <time>2021-05-24T00:28:47.231Z</time>
      </trkpt>
      <trkpt lat="44.20654" lon="5.40249">
        <ele>702.7</ele>
        <time>2021-05-24T00:29:07.231Z</time>
      </trkpt>
      <trkpt lat="44.2065" lon="5.40108">
        <ele>694.1</ele>
        <time>2021-05-24T00:29:27.231Z</time>
      </trkpt>
      <trkpt lat="44.20661" lon="5.39918">
        <ele>686.3</ele>
        <time>2021-05-24T00:29:47.231Z</time>
      </trkpt>
      <trkpt lat="44.2064" lon="5.39797">
        <ele>674.1</ele>
        <time>2021-05-24T00:30:07.231Z</time>
      </trkpt>
      <trkpt lat="44.20621" lon="5.39739">
        <ele>671.7</ele>
        <time>2021-05-24T00:30:27.231Z</time>
      </trkpt>
      <trkpt lat="44.20582" lon="5.39639">
        <ele>664.8</ele>
        <time>2021-05-24T00:30:47.231Z</time>
      </trkpt>
      <trkpt lat="44.20563" lon="5.39535">
        <ele>659.2</ele>
        <time>2021-05-24T00:31:07.231Z</time>
      </trkpt>
      <trkpt lat="44.20536" lon="5.39481">
        <ele>659.5</ele>
        <time>2021-05-24T00:31:27.231Z</time>
      </trkpt>
      <trkpt lat="44.20419" lon="5.39488">
        <ele>650.6</ele>
        <time>2021-05-24T00:31:47.231Z</time>
      </trkpt>
      <trkpt lat="44.20406" lon="5.39514">
        <ele>650</ele>
        <time>2021-05-24T00:32:07.231Z</time>
      </trkpt>
      <trkpt lat="44.20361" lon="5.39491">
        <ele>650</ele>
        <time>2021-05-24T00:32:27.231Z</time>
      </trkpt>
      <trkpt lat="44.20345" lon="5.39504">
        <ele>649.4</ele>
        <time>2021-05-24T00:32:47.231Z</time>
      </trkpt>
      <trkpt lat="44.20312" lon="5.3951">
        <ele>648.6</ele>
        <time>2021-05-24T00:33:07.231Z</time>
      </trkpt>
      <trkpt lat="44.20295" lon="5.3953">
        <ele>649.6</ele>
        <time>2021-05-24T00:33:27.231Z</time>
      </trkpt>
      <trkpt lat="44.20225" lon="5.39505">
        <ele>650.2</ele>
        <time>2021-05-24T00:33:47.231Z</time>
      </trkpt>
      <trkpt lat="44.20175" lon="5.39463">
        <ele>646.8</ele>
        <time>2021-05-24T00:34:07.231Z</time>
      </trkpt>
      <trkpt lat="44.2013" lon="5.39452">
        <ele>645.8</ele>
        <time>2021-05-24T00:34:27.231Z</time>
      </trkpt>
      <trkpt lat="44.20091" lon="5.39411">
        <ele>641.2</ele>
        <time>2021-05-24T00:34:47.231Z</time>
      </trkpt>
      <trkpt lat="44.20059" lon="5.39427">
        <ele>641.2</ele>
        <time>2021-05-24T00:35:07.231Z</time>
      </trkpt>
      <trkpt lat="44.20042" lon="5.39427">
        <ele>642.2</ele>
        <time>2021-05-24T00:35:27.231Z</time>
      </trkpt>
      <trkpt lat="44.20017" lon="5.39441">
        <ele>644.1</ele>
        <time>2021-05-24T00:35:47.231Z</time>
      </trkpt>
      <trkpt lat="44.19991" lon="5.39519">
        <ele>639.3</ele>
        <time>2021-05-24T00:36:07.231Z</time>
      </trkpt>
      <trkpt lat="44.1994" lon="5.39616">
        <ele>633.2</ele>
        <time>2021-05-24T00:36:27.231Z</time>
      </trkpt>
      <trkpt lat="44.19868" lon="5.39727">
        <ele>622.1</ele>
        <time>2021-05-24T00:36:47.231Z</time>
      </trkpt>
      <trkpt lat="44.19828" lon="5.39766">
        <ele>617</ele>
        <time>2021-05-24T00:37:07.231Z</time>
      </trkpt>
      <trkpt lat="44.1978" lon="5.39775">
        <ele>615.1</ele>
        <time>2021-05-24T00:37:27.231Z</time>
      </trkpt>
      <trkpt lat="44.19735" lon="5.39802">
        <ele>608.5</ele>
        <time>2021-05-24T00:37:47.231Z</time>
      </trkpt>
      <trkpt lat="44.19688" lon="5.39819">
        <ele>605.8</ele>
        <time>2021-05-24T00:38:07.231Z</time>
      </trkpt>
      <trkpt lat="44.19652" lon="5.39825">
        <ele>596</ele>
        <time>2021-05-24T00:38:27.231Z</time>
      </trkpt>
      <trkpt lat="44.1963" lon="5.39803">
        <ele>592.9</ele>
        <time>2021-05-24T00:38:47.231Z</time>
      </trkpt>
      <trkpt lat="44.1963" lon="5.39764">
        <ele>595.3</ele>
        <time>2021-05-24T00:39:07.231Z</time>
      </trkpt>
      <trkpt lat="44.19579" lon="5.39708">
        <ele>574.6</ele>
        <time>2021-05-24T00:39:27.231Z</time>
      </trkpt>
      <trkpt lat="44.19567" lon="5.39662">
        <ele>577.7</ele>
        <time>2021-05-24T00:39:47.231Z</time>
      </trkpt>
      <trkpt lat="44.19545" lon="5.39637">
        <ele>578.2</ele>
        <time>2021-05-24T00:40:07.231Z</time>
      </trkpt>
      <trkpt lat="44.19517" lon="5.39632">
        <ele>571.3</ele>
        <time>2021-05-24T00:40:27.231Z</time>
      </trkpt>
      <trkpt lat="44.19486" lon="5.3961">
        <ele>569.4</ele>
        <time>2021-05-24T00:40:47.231Z</time>
      </trkpt>
      <trkpt lat="44.19447" lon="5.39566">
        <ele>567.5</ele>
        <time>2021-05-24T00:41:07.231Z</time>
      </trkpt>
      <trkpt lat="44.19399" lon="5.39479">
        <ele>553.7</ele>
        <time>2021-05-24T00:41:27.231Z</time>
      </trkpt>
      <trkpt lat="44.19414" lon="5.39423">
        <ele>550.3</ele>
        <time>2021-05-24T00:41:47.231Z</time>
      </trkpt>
      <trkpt lat="44.19364" lon="5.39358">
        <ele>548.2</ele>
        <time>2021-05-24T00:42:07.231Z</time>
      </trkpt>
      <trkpt lat="44.19328" lon="5.39346">
        <ele>544.2</ele>
        <time>2021-05-24T00:42:27.231Z</time>
      </trkpt>
      <trkpt lat="44.19326" lon="5.39325">
        <ele>544.9</ele>
        <time>2021-05-24T00:42:47.231Z</time>
      </trkpt>
      <trkpt lat="44.19307" lon="5.39266">
        <ele>550.7</ele>
        <time>2021-05-24T00:43:07.231Z</time>
      </trkpt>
      <trkpt lat="44.19286" lon="5.39248">
        <ele>551</ele>
        <time>2021-05-24T00:43:27.231Z</time>
      </trkpt>
      <trkpt lat="44.19263" lon="5.39206">
        <ele>556.6</ele>
        <time>2021-05-24T00:43:47.231Z</time>
      </trkpt>
      <trkpt lat="44.19203" lon="5.39163">
        <ele>555.8</ele>
        <time>2021-05-24T00:44:07.231Z</time>
      </trkpt>
      <trkpt lat="44.19183" lon="5.39134">
        <ele>555.3</ele>
        <time>2021-05-24T00:44:27.231Z</time>
      </trkpt>
      <trkpt lat="44.19175" lon="5.39091">
        <ele>553.8</ele>
        <time>2021-05-24T00:44:47.231Z</time>
      </trkpt>
      <trkpt lat="44.19171" lon="5.39067">
        <ele>554.1</ele>
        <time>2021-05-24T00:45:07.231Z</time>
      </trkpt>
      <trkpt lat="44.19148" lon="5.39045">
        <ele>552.3</ele>
        <time>2021-05-24T00:45:27.231Z</time>
      </trkpt>
      <trkpt lat="44.19112" lon="5.39051">
        <ele>549.5</ele>
        <time>2021-05-24T00:45:47.231Z</time>
      </trkpt>
      <trkpt lat="44.19075" lon="5.39026">
        <ele>547.2</ele>
        <time>2021-05-24T00:46:07.231Z</time>
      </trkpt>
      <trkpt lat="44.19056" lon="5.38994">
        <ele>547.3</ele>
        <time>2021-05-24T00:46:27.231Z</time>
      </trkpt>
      <trkpt lat="44.18955" lon="5.38929">
        <ele>546.3</ele>
        <time>2021-05-24T00:46:47.231Z</time>
      </trkpt>
      <trkpt lat="44.18845" lon="5.38908">
        <ele>535.2</ele>
        <time>2021-05-24T00:47:07.231Z</time>
      </trkpt>
      <trkpt lat="44.18744" lon="5.38939">
        <ele>531.6</ele>
        <time>2021-05-24T00:47:27.231Z</time>
      </trkpt>
      <trkpt lat="44.18708" lon="5.3893">
        <ele>531.5</ele>
        <time>2021-05-24T00:47:47.231Z</time>
      </trkpt>
      <trkpt lat="44.18621" lon="5.38934">
        <ele>527</ele>
        <time>2021-05-24T00:48:07.231Z</time>
      </trkpt>
      <trkpt lat="44.18602" lon="5.38926">
        <ele>526.4</ele>
        <time>2021-05-24T00:48:27.231Z</time>
      </trkpt>
      <trkpt lat="44.18557" lon="5.3885">
        <ele>534.3</ele>
        <time>2021-05-24T00:48:47.231Z</time>
      </trkpt>
      <trkpt lat="44.18532" lon="5.38816">
        <ele>533</ele>
        <time>2021-05-24T00:49:07.231Z</time>
      </trkpt>
      <trkpt lat="44.18486" lon="5.38746">
        <ele>531.9</ele>
        <time>2021-05-24T00:49:27.231Z</time>
      </trkpt>
      <trkpt lat="44.1846" lon="5.38745">
        <ele>527.3</ele>
        <time>2021-05-24T00:49:47.231Z</time>
      </trkpt>
      <trkpt lat="44.18437" lon="5.38734">
        <ele>524.9</ele>
        <time>2021-05-24T00:50:07.231Z</time>
      </trkpt>
      <trkpt lat="44.18415" lon="5.38731">
        <ele>521.4</ele>
        <time>2021-05-24T00:50:27.231Z</time>
      </trkpt>
      <trkpt lat="44.18419" lon="5.3867">
        <ele>527</ele>
        <time>2021-05-24T00:50:47.231Z</time>
      </trkpt>
      <trkpt lat="44.18405" lon="5.38547">
        <ele>534.1</ele>
        <time>2021-05-24T00:51:07.231Z</time>
      </trkpt>
      <trkpt lat="44.18357" lon="5.3844">
        <ele>522.3</ele>
        <time>2021-05-24T00:51:27.231Z</time>
      </trkpt>
      <trkpt lat="44.18333" lon="5.38367">
        <ele>519.9</ele>
        <time>2021-05-24T00:51:47.231Z</time>
      </trkpt>
      <trkpt lat="44.18277" lon="5.38338">
        <ele>516.8</ele>
        <time>2021-05-24T00:52:07.231Z</time>
      </trkpt>
      <trkpt lat="44.1826" lon="5.38255">
        <ele>515.5</ele>
        <time>2021-05-24T00:52:27.231Z</time>
      </trkpt>
      <trkpt lat="44.18237" lon="5.38147">
        <ele>513.2</ele>
        <time>2021-05-24T00:52:47.231Z</time>
      </trkpt>
      <trkpt lat="44.18203" lon="5.38057">
        <ele>516.6</ele>
        <time>2021-05-24T00:53:07.231Z</time>
      </trkpt>
      <trkpt lat="44.18198" lon="5.38005">
        <ele>522</ele>
        <time>2021-05-24T00:53:27.231Z</time>
      </trkpt>
      <trkpt lat="44.18247" lon="5.37726">
        <ele>518.3</ele>
        <time>2021-05-24T00:53:47.231Z</time>
      </trkpt>
      <trkpt lat="44.18277" lon="5.3763">
        <ele>514</ele>
        <time>2021-05-24T00:54:07.231Z</time>
      </trkpt>
      <trkpt lat="44.18336" lon="5.37634">
        <ele>520</ele>
        <time>2021-05-24T00:54:27.231Z</time>
      </trkpt>
      <trkpt lat="44.1836" lon="5.37615">
        <ele>520.1</ele>
        <time>2021-05-24T00:54:47.231Z</time>
      </trkpt>
      <trkpt lat="44.18362" lon="5.37587">
        <ele>520</ele>
        <time>2021-05-24T00:55:07.231Z</time>
      </trkpt>
      <trkpt lat="44.18417" lon="5.37482">
        <ele>526.8</ele>
        <time>2021-05-24T00:55:27.231Z</time>
      </trkpt>
      <trkpt lat="44.18443" lon="5.37391">
        <ele>549.9</ele>
        <time>2021-05-24T00:55:47.231Z</time>
      </trkpt>
      <trkpt lat="44.18445" lon="5.37361">
        <ele>558.7</ele>
        <time>2021-05-24T00:56:07.231Z</time>
      </trkpt>
      <trkpt lat="44.18546" lon="5.3698">
        <ele>595.4</ele>
        <time>2021-05-24T00:56:27.231Z</time>
      </trkpt>
      <trkpt lat="44.18566" lon="5.36982">
        <ele>591.7</ele>
        <time>2021-05-24T00:56:47.231Z</time>
      </trkpt>
      <trkpt lat="44.18595" lon="5.37">
        <ele>591.4</ele>
        <time>2021-05-24T00:57:07.231Z</time>
      </trkpt>
      <trkpt lat="44.18611" lon="5.3699">
        <ele>592.1</ele>
        <time>2021-05-24T00:57:27.231Z</time>
      </trkpt>
      <trkpt lat="44.18637" lon="5.36933">
        <ele>588</ele>
        <time>2021-05-24T00:57:47.231Z</time>
      </trkpt>
      <trkpt lat="44.18663" lon="5.36899">
        <ele>586.2</ele>
        <time>2021-05-24T00:58:07.231Z</time>
      </trkpt>
      <trkpt lat="44.18679" lon="5.36829">
        <ele>575.8</ele>
        <time>2021-05-24T00:58:27.231Z</time>
      </trkpt>
      <trkpt lat="44.18693" lon="5.36906">
        <ele>575.9</ele>
        <time>2021-05-24T00:58:47.231Z</time>
      </trkpt>
      <trkpt lat="44.18703" lon="5.37049">
        <ele>568</ele>
        <time>2021-05-24T00:59:07.231Z</time>
      </trkpt>
      <trkpt lat="44.18737" lon="5.37033">
        <ele>565.1</ele>
        <time>2021-05-24T00:59:27.231Z</time>
      </trkpt>
      <trkpt lat="44.18796" lon="5.36949">
        <ele>565.7</ele>
        <time>2021-05-24T00:59:47.231Z</time>
      </trkpt>
      <trkpt lat="44.18826" lon="5.36926">
        <ele>567.5</ele>
        <time>2021-05-24T01:00:07.231Z</time>
      </trkpt>
      <trkpt lat="44.18834" lon="5.36937">
        <ele>572.1</ele>
        <time>2021-05-24T01:00:27.231Z</time>
      </trkpt>
      <trkpt lat="44.18824" lon="5.36956">
        <ele>575.2</ele>
        <time>2021-05-24T01:00:47.231Z</time>
      </trkpt>
      <trkpt lat="44.18826" lon="5.36967">
        <ele>579.1</ele>
        <time>2021-05-24T01:01:07.231Z</time>
      </trkpt>
      <trkpt lat="44.1882" lon="5.36977">
        <ele>580.2</ele>
        <time>2021-05-24T01:01:27.231Z</time>
      </trkpt>
      <trkpt lat="44.18816" lon="5.37005">
        <ele>584.3</ele>
        <time>2021-05-24T01:01:47.231Z</time>
      </trkpt>
      <trkpt lat="44.18832" lon="5.36993">
        <ele>587.2</ele>
        <time>2021-05-24T01:02:07.231Z</time>
      </trkpt>
      <trkpt lat="44.18839" lon="5.37031">
        <ele>594.3</ele>
        <time>2021-05-24T01:02:27.231Z</time>
      </trkpt>
      <trkpt lat="44.18824" lon="5.37131">
        <ele>607.2</ele>
        <time>2021-05-24T01:02:47.231Z</time>
      </trkpt>
      <trkpt lat="44.18859" lon="5.37136">
        <ele>615.4</ele>
        <time>2021-05-24T01:03:07.231Z</time>
      </trkpt>
      <trkpt lat="44.1893" lon="5.37105">
        <ele>622.9</ele>
        <time>2021-05-24T01:03:27.231Z</time>
      </trkpt>
      <trkpt lat="44.18965" lon="5.37106">
        <ele>627.9</ele>
        <time>2021-05-24T01:03:47.231Z</time>
      </trkpt>
      <trkpt lat="44.18981" lon="5.37089">
        <ele>630.5</ele>
        <time>2021-05-24T01:04:07.231Z</time>
      </trkpt>
      <trkpt lat="44.19031" lon="5.37065">
        <ele>635.9</ele>
        <time>2021-05-24T01:04:27.231Z</time>
      </trkpt>
      <trkpt lat="44.1907" lon="5.36998">
        <ele>640.5</ele>
        <time>2021-05-24T01:04:47.231Z</time>
      </trkpt>
      <trkpt lat="44.19121" lon="5.3682">
        <ele>644.3</ele>
        <time>2021-05-24T01:05:07.231Z</time>
      </trkpt>
      <trkpt lat="44.19126" lon="5.36837">
        <ele>649</ele>
        <time>2021-05-24T01:05:27.231Z</time>
      </trkpt>
      <trkpt lat="44.19131" lon="5.37004">
        <ele>668.6</ele>
        <time>2021-05-24T01:05:47.231Z</time>
      </trkpt>
      <trkpt lat="44.19135" lon="5.37021">
        <ele>669.5</ele>
        <time>2021-05-24T01:06:07.231Z</time>
      </trkpt>
      <trkpt lat="44.19162" lon="5.36952">
        <ele>674.2</ele>
        <time>2021-05-24T01:06:27.231Z</time>
      </trkpt>
      <trkpt lat="44.19178" lon="5.36896">
        <ele>676.6</ele>
        <time>2021-05-24T01:06:47.231Z</time>
      </trkpt>
      <trkpt lat="44.19187" lon="5.36876">
        <ele>679.2</ele>
        <time>2021-05-24T01:07:07.231Z</time>
      </trkpt>
      <trkpt lat="44.19188" lon="5.36852">
        <ele>683.4</ele>
        <time>2021-05-24T01:07:27.231Z</time>
      </trkpt>
      <trkpt lat="44.19196" lon="5.36842">
        <ele>687.4</ele>
        <time>2021-05-24T01:07:47.231Z</time>
      </trkpt>
      <trkpt lat="44.19202" lon="5.36803">
        <ele>691.8</ele>
        <time>2021-05-24T01:08:07.231Z</time>
      </trkpt>
      <trkpt lat="44.19222" lon="5.36788">
        <ele>698.7</ele>
        <time>2021-05-24T01:08:27.231Z</time>
      </trkpt>
      <trkpt lat="44.19253" lon="5.36727">
        <ele>711.8</ele>
        <time>2021-05-24T01:08:47.231Z</time>
      </trkpt>
      <trkpt lat="44.19258" lon="5.36745">
        <ele>717.8</ele>
        <time>2021-05-24T01:09:07.231Z</time>
      </trkpt>
      <trkpt lat="44.19256" lon="5.36763">
        <ele>717.4</ele>
        <time>2021-05-24T01:09:27.231Z</time>
      </trkpt>
      <trkpt lat="44.19259" lon="5.36779">
        <ele>719.8</ele>
        <time>2021-05-24T01:09:47.231Z</time>
      </trkpt>
      <trkpt lat="44.19267" lon="5.36769">
        <ele>724.7</ele>
        <time>2021-05-24T01:10:07.231Z</time>
      </trkpt>
      <trkpt lat="44.19276" lon="5.36798">
        <ele>728.9</ele>
        <time>2021-05-24T01:10:27.231Z</time>
      </trkpt>
      <trkpt lat="44.19286" lon="5.36785">
        <ele>733.7</ele>
        <time>2021-05-24T01:10:47.231Z</time>
      </trkpt>
      <trkpt lat="44.19318" lon="5.36715">
        <ele>750.7</ele>
        <time>2021-05-24T01:11:07.231Z</time>
      </trkpt>
      <trkpt lat="44.19321" lon="5.36678">
        <ele>754.6</ele>
        <time>2021-05-24T01:11:27.231Z</time>
      </trkpt>
      <trkpt lat="44.19336" lon="5.36626">
        <ele>761.4</ele>
        <time>2021-05-24T01:11:47.231Z</time>
      </trkpt>
      <trkpt lat="44.19359" lon="5.36595">
        <ele>768.4</ele>
        <time>2021-05-24T01:12:07.231Z</time>
      </trkpt>
      <trkpt lat="44.1938" lon="5.36537">
        <ele>774</ele>
        <time>2021-05-24T01:12:27.231Z</time>
      </trkpt>
      <trkpt lat="44.194" lon="5.36452">
        <ele>783.6</ele>
        <time>2021-05-24T01:12:47.231Z</time>
      </trkpt>
      <trkpt lat="44.194" lon="5.36427">
        <ele>786.1</ele>
        <time>2021-05-24T01:13:07.231Z</time>
      </trkpt>
      <trkpt lat="44.19426" lon="5.36341">
        <ele>793.5</ele>
        <time>2021-05-24T01:13:27.231Z</time>
      </trkpt>
      <trkpt lat="44.19444" lon="5.36266">
        <ele>802.2</ele>
        <time>2021-05-24T01:13:47.231Z</time>
      </trkpt>
      <trkpt lat="44.19433" lon="5.36242">
        <ele>800</ele>
        <time>2021-05-24T01:14:07.231Z</time>
      </trkpt>
      <trkpt lat="44.19456" lon="5.36178">
        <ele>807.7</ele>
        <time>2021-05-24T01:14:27.231Z</time>
      </trkpt>
      <trkpt lat="44.1946" lon="5.36136">
        <ele>808.7</ele>
        <time>2021-05-24T01:14:47.231Z</time>
      </trkpt>
      <trkpt lat="44.19479" lon="5.36046">
        <ele>811.4</ele>
        <time>2021-05-24T01:15:07.231Z</time>
      </trkpt>
      <trkpt lat="44.19483" lon="5.35969">
        <ele>812.2</ele>
        <time>2021-05-24T01:15:27.231Z</time>
      </trkpt>
      <trkpt lat="44.19517" lon="5.35831">
        <ele>820.7</ele>
        <time>2021-05-24T01:15:47.231Z</time>
      </trkpt>
      <trkpt lat="44.19527" lon="5.35725">
        <ele>827.5</ele>
        <time>2021-05-24T01:16:07.231Z</time>
      </trkpt>
      <trkpt lat="44.19578" lon="5.355">
        <ele>827.9</ele>
        <time>2021-05-24T01:16:27.231Z</time>
      </trkpt>
      <trkpt lat="44.19577" lon="5.35459">
        <ele>823.8</ele>
        <time>2021-05-24T01:16:47.231Z</time>
      </trkpt>
      <trkpt lat="44.19585" lon="5.35391">
        <ele>818.1</ele>
        <time>2021-05-24T01:17:07.231Z</time>
      </trkpt>
      <trkpt lat="44.19584" lon="5.35312">
        <ele>808</ele>
        <time>2021-05-24T01:17:27.231Z</time>
      </trkpt>
      <trkpt lat="44.1964" lon="5.35062">
        <ele>796.5</ele>
        <time>2021-05-24T01:17:47.231Z</time>
      </trkpt>
      <trkpt lat="44.19693" lon="5.34857">
        <ele>770.7</ele>
        <time>2021-05-24T01:18:07.231Z</time>
      </trkpt>
      <trkpt lat="44.19636" lon="5.3457">
        <ele>726.8</ele>
        <time>2021-05-24T01:18:27.231Z</time>
      </trkpt>
      <trkpt lat="44.19649" lon="5.34468">
        <ele>712.5</ele>
        <time>2021-05-24T01:18:47.231Z</time>
      </trkpt>
      <trkpt lat="44.19678" lon="5.34352">
        <ele>706</ele>
        <time>2021-05-24T01:19:07.231Z</time>
      </trkpt>
      <trkpt lat="44.19686" lon="5.34218">
        <ele>694.1</ele>
        <time>2021-05-24T01:19:27.231Z</time>
      </trkpt>
      <trkpt lat="44.19668" lon="5.34109">
        <ele>675.1</ele>
        <time>2021-05-24T01:19:47.231Z</time>
      </trkpt>
      <trkpt lat="44.19634" lon="5.34069">
        <ele>661.5</ele>
        <time>2021-05-24T01:20:07.231Z</time>
      </trkpt>
      <trkpt lat="44.19625" lon="5.34035">
        <ele>655.7</ele>
        <time>2021-05-24T01:20:27.231Z</time>
      </trkpt>
      <trkpt lat="44.19641" lon="5.3399">
        <ele>650.1</ele>
        <time>2021-05-24T01:20:47.231Z</time>
      </trkpt>
      <trkpt lat="44.19675" lon="5.33962">
        <ele>642.6</ele>
        <time>2021-05-24T01:21:07.231Z</time>
      </trkpt>
      <trkpt lat="44.19674" lon="5.33894">
        <ele>632.5</ele>
        <time>2021-05-24T01:21:27.231Z</time>
      </trkpt>
      <trkpt lat="44.19667" lon="5.33861">
        <ele>627</ele>
        <time>2021-05-24T01:21:47.231Z</time>
      </trkpt>
      <trkpt lat="44.19674" lon="5.33759">
        <ele>615.3</ele>
        <time>2021-05-24T01:22:07.231Z</time>
      </trkpt>
      <trkpt lat="44.19669" lon="5.33724">
        <ele>609.3</ele>
        <time>2021-05-24T01:22:27.231Z</time>
      </trkpt>
      <trkpt lat="44.1968" lon="5.33718">
        <ele>608.4</ele>
        <time>2021-05-24T01:22:47.231Z</time>
      </trkpt>
      <trkpt lat="44.19737" lon="5.3373">
        <ele>610.8</ele>
        <time>2021-05-24T01:23:07.231Z</time>
      </trkpt>
      <trkpt lat="44.1976" lon="5.33744">
        <ele>616.7</ele>
        <time>2021-05-24T01:23:27.231Z</time>
      </trkpt>
      <trkpt lat="44.19819" lon="5.33715">
        <ele>629.1</ele>
        <time>2021-05-24T01:23:47.231Z</time>
      </trkpt>
      <trkpt lat="44.19892" lon="5.33653">
        <ele>633.3</ele>
        <time>2021-05-24T01:24:07.231Z</time>
      </trkpt>
      <trkpt lat="44.19933" lon="5.33644">
        <ele>640.8</ele>
        <time>2021-05-24T01:24:27.231Z</time>
      </trkpt>
      <trkpt lat="44.19972" lon="5.33645">
        <ele>648.6</ele>
        <time>2021-05-24T01:24:47.231Z</time>
      </trkpt>
      <trkpt lat="44.20057" lon="5.33626">
        <ele>648</ele>
        <time>2021-05-24T01:25:07.231Z</time>
      </trkpt>
      <trkpt lat="44.20095" lon="5.3361">
        <ele>647.1</ele>
        <time>2021-05-24T01:25:27.231Z</time>
      </trkpt>
      <trkpt lat="44.20117" lon="5.3361">
        <ele>648.2</ele>
        <time>2021-05-24T01:25:47.231Z</time>
      </trkpt>
      <trkpt lat="44.20135" lon="5.33606">
        <ele>647.9</ele>
        <time>2021-05-24T01:26:07.231Z</time>
      </trkpt>
      <trkpt lat="44.20219" lon="5.33604">
        <ele>657.3</ele>
        <time>2021-05-24T01:26:27.231Z</time>
      </trkpt>
      <trkpt lat="44.203" lon="5.33644">
        <ele>671.3</ele>
        <time>2021-05-24T01:26:47.231Z</time>
      </trkpt>
      <trkpt lat="44.20338" lon="5.33669">
        <ele>670.9</ele>
        <time>2021-05-24T01:27:07.231Z</time>
      </trkpt>
      <trkpt lat="44.20379" lon="5.3367">
        <ele>676.3</ele>
        <time>2021-05-24T01:27:27.231Z</time>
      </trkpt>
      <trkpt lat="44.20405" lon="5.33701">
        <ele>678</ele>
        <time>2021-05-24T01:27:47.231Z</time>
      </trkpt>
      <trkpt lat="44.20425" lon="5.33696">
        <ele>679.4</ele>
        <time>2021-05-24T01:28:07.231Z</time>
      </trkpt>
      <trkpt lat="44.2045" lon="5.33696">
        <ele>679.8</ele>
        <time>2021-05-24T01:28:27.231Z</time>
      </trkpt>
      <trkpt lat="44.20473" lon="5.33681">
        <ele>679.5</ele>
        <time>2021-05-24T01:28:47.231Z</time>
      </trkpt>
      <trkpt lat="44.20504" lon="5.33638">
        <ele>677.9</ele>
        <time>2021-05-24T01:29:07.231Z</time>
      </trkpt>
      <trkpt lat="44.20549" lon="5.33547">
        <ele>673.5</ele>
        <time>2021-05-24T01:29:27.231Z</time>
      </trkpt>
      <trkpt lat="44.20663" lon="5.33345">
        <ele>654.3</ele>
        <time>2021-05-24T01:29:47.231Z</time>
      </trkpt>
      <trkpt lat="44.20641" lon="5.33472">
        <ele>643.1</ele>
        <time>2021-05-24T01:30:07.231Z</time>
      </trkpt>
      <trkpt lat="44.20609" lon="5.33588">
        <ele>638.5</ele>
        <time>2021-05-24T01:30:27.231Z</time>
      </trkpt>
      <trkpt lat="44.20618" lon="5.33603">
        <ele>633.6</ele>
        <time>2021-05-24T01:30:47.231Z</time>
      </trkpt>
      <trkpt lat="44.20653" lon="5.33588">
        <ele>628.6</ele>
        <time>2021-05-24T01:31:07.231Z</time>
      </trkpt>
      <trkpt lat="44.20685" lon="5.33602">
        <ele>626.4</ele>
        <time>2021-05-24T01:31:27.231Z</time>
      </trkpt>
      <trkpt lat="44.20701" lon="5.33619">
        <ele>626.7</ele>
        <time>2021-05-24T01:31:47.231Z</time>
      </trkpt>
      <trkpt lat="44.20756" lon="5.33619">
        <ele>629</ele>
        <time>2021-05-24T01:32:07.231Z</time>
      </trkpt>
      <trkpt lat="44.20801" lon="5.33619">
        <ele>629.6</ele>
        <time>2021-05-24T01:32:27.231Z</time>
      </trkpt>
      <trkpt lat="44.20881" lon="5.33687">
        <ele>629.9</ele>
        <time>2021-05-24T01:32:47.231Z</time>
      </trkpt>
      <trkpt lat="44.20969" lon="5.3367">
        <ele>635.9</ele>
        <time>2021-05-24T01:33:07.231Z</time>
      </trkpt>
      <trkpt lat="44.20997" lon="5.33671">
        <ele>637.2</ele>
        <time>2021-05-24T01:33:27.231Z</time>
      </trkpt>
      <trkpt lat="44.21028" lon="5.33693">
        <ele>640.9</ele>
        <time>2021-05-24T01:33:47.231Z</time>
      </trkpt>
      <trkpt lat="44.21113" lon="5.33819">
        <ele>649.6</ele>
        <time>2021-05-24T01:34:07.231Z</time>
      </trkpt>
      <trkpt lat="44.21149" lon="5.33818">
        <ele>652.9</ele>
        <time>2021-05-24T01:34:27.231Z</time>
      </trkpt>
      <trkpt lat="44.21161" lon="5.33806">
        <ele>656</ele>
        <time>2021-05-24T01:34:47.231Z</time>
      </trkpt>
      <trkpt lat="44.21183" lon="5.33796">
        <ele>658.9</ele>
        <time>2021-05-24T01:35:07.231Z</time>
      </trkpt>
      <trkpt lat="44.21206" lon="5.33794">
        <ele>660.4</ele>
        <time>2021-05-24T01:35:27.231Z</time>
      </trkpt>
      <trkpt lat="44.21225" lon="5.33832">
        <ele>664.8</ele>
        <time>2021-05-24T01:35:47.231Z</time>
      </trkpt>
      <trkpt lat="44.21242" lon="5.33833">
        <ele>664.9</ele>
        <time>2021-05-24T01:36:07.231Z</time>
      </trkpt>
      <trkpt lat="44.21252" lon="5.33802">
        <ele>661.8</ele>
        <time>2021-05-24T01:36:27.231Z</time>
      </trkpt>
      <trkpt lat="44.21273" lon="5.33786">
        <ele>663.2</ele>
        <time>2021-05-24T01:36:47.231Z</time>
      </trkpt>
      <trkpt lat="44.2131" lon="5.338">
        <ele>665.9</ele>
        <time>2021-05-24T01:37:07.231Z</time>
      </trkpt>
      <trkpt lat="44.21325" lon="5.33833">
        <ele>670.2</ele>
        <time>2021-05-24T01:37:27.231Z</time>
      </trkpt>
      <trkpt lat="44.21342" lon="5.33846">
        <ele>673.2</ele>
        <time>2021-05-24T01:37:47.231Z</time>
      </trkpt>
      <trkpt lat="44.21351" lon="5.33842">
        <ele>674.1</ele>
        <time>2021-05-24T01:38:07.231Z</time>
      </trkpt>
      <trkpt lat="44.21355" lon="5.33808">
        <ele>670.9</ele>
        <time>2021-05-24T01:38:27.231Z</time>
      </trkpt>
      <trkpt lat="44.21409" lon="5.33789">
        <ele>677.7</ele>
        <time>2021-05-24T01:38:47.231Z</time>
      </trkpt>
      <trkpt lat="44.21444" lon="5.33793">
        <ele>681.3</ele>
        <time>2021-05-24T01:39:07.231Z</time>
      </trkpt>
      <trkpt lat="44.21462" lon="5.33787">
        <ele>681.2</ele>
        <time>2021-05-24T01:39:27.231Z</time>
      </trkpt>
      <trkpt lat="44.215" lon="5.33796">
        <ele>685.1</ele>
        <time>2021-05-24T01:39:47.231Z</time>
      </trkpt>
      <trkpt lat="44.21522" lon="5.33794">
        <ele>685.7</ele>
        <time>2021-05-24T01:40:07.231Z</time>
      </trkpt>
      <trkpt lat="44.2155" lon="5.33795">
        <ele>686.6</ele>
        <time>2021-05-24T01:40:27.231Z</time>
      </trkpt>
      <trkpt lat="44.216" lon="5.33802">
        <ele>687.6</ele>
        <time>2021-05-24T01:40:47.231Z</time>
      </trkpt>
      <trkpt lat="44.2162" lon="5.33814">
        <ele>690.5</ele>
        <time>2021-05-24T01:41:07.231Z</time>
      </trkpt>
      <trkpt lat="44.21634" lon="5.33805">
        <ele>689.6</ele>
        <time>2021-05-24T01:41:27.231Z</time>
      </trkpt>
      <trkpt lat="44.21711" lon="5.33782">
        <ele>693.9</ele>
        <time>2021-05-24T01:41:47.231Z</time>
      </trkpt>
      <trkpt lat="44.21754" lon="5.33774">
        <ele>692.4</ele>
        <time>2021-05-24T01:42:07.231Z</time>
      </trkpt>
      <trkpt lat="44.21778" lon="5.33766">
        <ele>689.9</ele>
        <time>2021-05-24T01:42:27.231Z</time>
      </trkpt>
      <trkpt lat="44.21789" lon="5.33703">
        <ele>686.4</ele>
        <time>2021-05-24T01:42:47.231Z</time>
      </trkpt>
      <trkpt lat="44.21809" lon="5.33638">
        <ele>687.4</ele>
        <time>2021-05-24T01:43:07.231Z</time>
      </trkpt>
      <trkpt lat="44.21829" lon="5.33581">
        <ele>690.8</ele>
        <time>2021-05-24T01:43:27.231Z</time>
      </trkpt>
      <trkpt lat="44.21885" lon="5.33513">
        <ele>691.6</ele>
        <time>2021-05-24T01:43:47.231Z</time>
      </trkpt>
      <trkpt lat="44.21916" lon="5.33501">
        <ele>691.2</ele>
        <time>2021-05-24T01:44:07.231Z</time>
      </trkpt>
      <trkpt lat="44.21976" lon="5.33497">
        <ele>697</ele>
        <time>2021-05-24T01:44:27.231Z</time>
      </trkpt>
      <trkpt lat="44.22023" lon="5.33467">
        <ele>702.3</ele>
        <time>2021-05-24T01:44:47.231Z</time>
      </trkpt>
      <trkpt lat="44.22022" lon="5.33418">
        <ele>700.2</ele>
        <time>2021-05-24T01:45:07.231Z</time>
      </trkpt>
      <trkpt lat="44.22034" lon="5.3339">
        <ele>704.1</ele>
        <time>2021-05-24T01:45:27.231Z</time>
      </trkpt>
      <trkpt lat="44.22064" lon="5.33355">
        <ele>703.8</ele>
        <time>2021-05-24T01:45:47.231Z</time>
      </trkpt>
      <trkpt lat="44.22104" lon="5.33343">
        <ele>705</ele>
        <time>2021-05-24T01:46:07.231Z</time>
      </trkpt>
      <trkpt lat="44.22175" lon="5.33261">
        <ele>705.6</ele>
        <time>2021-05-24T01:46:27.231Z</time>
      </trkpt>
      <trkpt lat="44.22209" lon="5.33231">
        <ele>710.2</ele>
        <time>2021-05-24T01:46:47.231Z</time>
      </trkpt>
      <trkpt lat="44.22208" lon="5.33161">
        <ele>705.9</ele>
        <time>2021-05-24T01:47:07.231Z</time>
      </trkpt>
      <trkpt lat="44.22249" lon="5.33031">
        <ele>712</ele>
        <time>2021-05-24T01:47:27.231Z</time>
      </trkpt>
      <trkpt lat="44.22247" lon="5.33004">
        <ele>715</ele>
        <time>2021-05-24T01:47:47.231Z</time>
      </trkpt>
      <trkpt lat="44.22234" lon="5.32974">
        <ele>717.9</ele>
        <time>2021-05-24T01:48:07.231Z</time>
      </trkpt>
      <trkpt lat="44.22193" lon="5.32945">
        <ele>723.2</ele>
        <time>2021-05-24T01:48:27.231Z</time>
      </trkpt>
      <trkpt lat="44.22187" lon="5.32934">
        <ele>727.1</ele>
        <time>2021-05-24T01:48:47.231Z</time>
      </trkpt>
      <trkpt lat="44.22217" lon="5.32942">
        <ele>723.6</ele>
        <time>2021-05-24T01:49:07.231Z</time>
      </trkpt>
      <trkpt lat="44.22241" lon="5.32917">
        <ele>729.9</ele>
        <time>2021-05-24T01:49:27.231Z</time>
      </trkpt>
      <trkpt lat="44.22259" lon="5.32939">
        <ele>728.2</ele>
        <time>2021-05-24T01:49:47.231Z</time>
      </trkpt>
      <trkpt lat="44.22287" lon="5.32892">
        <ele>734.5</ele>
        <time>2021-05-24T01:50:07.231Z</time>
      </trkpt>
      <trkpt lat="44.223" lon="5.32879">
        <ele>734.6</ele>
        <time>2021-05-24T01:50:27.231Z</time>
      </trkpt>
      <trkpt lat="44.22456" lon="5.32843">
        <ele>726</ele>
        <time>2021-05-24T01:50:47.231Z</time>
      </trkpt>
      <trkpt lat="44.22498" lon="5.32793">
        <ele>723.1</ele>
        <time>2021-05-24T01:51:07.231Z</time>
      </trkpt>
      <trkpt lat="44.22544" lon="5.32749">
        <ele>718.7</ele>
        <time>2021-05-24T01:51:27.231Z</time>
      </trkpt>
      <trkpt lat="44.2259" lon="5.32729">
        <ele>721.2</ele>
        <time>2021-05-24T01:51:47.231Z</time>
      </trkpt>
      <trkpt lat="44.22625" lon="5.32692">
        <ele>716.4</ele>
        <time>2021-05-24T01:52:07.231Z</time>
      </trkpt>
      <trkpt lat="44.22642" lon="5.32686">
        <ele>714.2</ele>
        <time>2021-05-24T01:52:27.231Z</time>
      </trkpt>
      <trkpt lat="44.22658" lon="5.32713">
        <ele>715.6</ele>
        <time>2021-05-24T01:52:47.231Z</time>
      </trkpt>
      <trkpt lat="44.22674" lon="5.3272">
        <ele>713.9</ele>
        <time>2021-05-24T01:53:07.231Z</time>
      </trkpt>
      <trkpt lat="44.22721" lon="5.3272">
        <ele>710.6</ele>
        <time>2021-05-24T01:53:27.231Z</time>
      </trkpt>
      <trkpt lat="44.22773" lon="5.32735">
        <ele>708.5</ele>
        <time>2021-05-24T01:53:47.231Z</time>
      </trkpt>
      <trkpt lat="44.22802" lon="5.32761">
        <ele>706.1</ele>
        <time>2021-05-24T01:54:07.231Z</time>
      </trkpt>
      <trkpt lat="44.22829" lon="5.32818">
        <ele>705.4</ele>
        <time>2021-05-24T01:54:27.231Z</time>
      </trkpt>
      <trkpt lat="44.22863" lon="5.32873">
        <ele>702.5</ele>
        <time>2021-05-24T01:54:47.231Z</time>
      </trkpt>
      <trkpt lat="44.22881" lon="5.32887">
        <ele>702.2</ele>
        <time>2021-05-24T01:55:07.231Z</time>
      </trkpt>
      <trkpt lat="44.22924" lon="5.32886">
        <ele>698.9</ele>
        <time>2021-05-24T01:55:27.231Z</time>
      </trkpt>
      <trkpt lat="44.22942" lon="5.32872">
        <ele>697.8</ele>
        <time>2021-05-24T01:55:47.231Z</time>
      </trkpt>
      <trkpt lat="44.2296" lon="5.32799">
        <ele>689.6</ele>
        <time>2021-05-24T01:56:07.231Z</time>
      </trkpt>
      <trkpt lat="44.22974" lon="5.32776">
        <ele>689</ele>
        <time>2021-05-24T01:56:27.231Z</time>
      </trkpt>
      <trkpt lat="44.22997" lon="5.32771">
        <ele>694.6</ele>
        <time>2021-05-24T01:56:47.231Z</time>
      </trkpt>
      <trkpt lat="44.23052" lon="5.32729">
        <ele>699.3</ele>
        <time>2021-05-24T01:57:07.231Z</time>
      </trkpt>
      <trkpt lat="44.23086" lon="5.32696">
        <ele>700.9</ele>
        <time>2021-05-24T01:57:27.231Z</time>
      </trkpt>
      <trkpt lat="44.23118" lon="5.3264">
        <ele>699.6</ele>
        <time>2021-05-24T01:57:47.231Z</time>
      </trkpt>
      <trkpt lat="44.23144" lon="5.32609">
        <ele>700.9</ele>
        <time>2021-05-24T01:58:07.231Z</time>
      </trkpt>
      <trkpt lat="44.23178" lon="5.32589">
        <ele>705.4</ele>
        <time>2021-05-24T01:58:27.231Z</time>
      </trkpt>
      <trkpt lat="44.23192" lon="5.32594">
        <ele>710.4</ele>
        <time>2021-05-24T01:58:47.231Z</time>
      </trkpt>
      <trkpt lat="44.2323" lon="5.32539">
        <ele>705</ele>
        <time>2021-05-24T01:59:07.231Z</time>
      </trkpt>
      <trkpt lat="44.23267" lon="5.32514">
        <ele>708.6</ele>
        <time>2021-05-24T01:59:27.231Z</time>
      </trkpt>
      <trkpt lat="44.23295" lon="5.32459">
        <ele>703.7</ele>
        <time>2021-05-24T01:59:47.231Z</time>
      </trkpt>
      <trkpt lat="44.23326" lon="5.32422">
        <ele>705.3</ele>
        <time>2021-05-24T02:00:07.231Z</time>
      </trkpt>
      <trkpt lat="44.23364" lon="5.3239">
        <ele>706.8</ele>
        <time>2021-05-24T02:00:27.231Z</time>
      </trkpt>
      <trkpt lat="44.23389" lon="5.32353">
        <ele>700.9</ele>
        <time>2021-05-24T02:00:47.231Z</time>
      </trkpt>
      <trkpt lat="44.23416" lon="5.32318">
        <ele>700.3</ele>
        <time>2021-05-24T02:01:07.231Z</time>
      </trkpt>
      <trkpt lat="44.23441" lon="5.32311">
        <ele>709.1</ele>
        <time>2021-05-24T02:01:27.231Z</time>
      </trkpt>
      <trkpt lat="44.23467" lon="5.32244">
        <ele>710.4</ele>
        <time>2021-05-24T02:01:47.231Z</time>
      </trkpt>
      <trkpt lat="44.23477" lon="5.32243">
        <ele>712.7</ele>
        <time>2021-05-24T02:02:07.231Z</time>
      </trkpt>
      <trkpt lat="44.23484" lon="5.323">
        <ele>717.8</ele>
        <time>2021-05-24T02:02:27.231Z</time>
      </trkpt>
      <trkpt lat="44.23496" lon="5.32338">
        <ele>723.9</ele>
        <time>2021-05-24T02:02:47.231Z</time>
      </trkpt>
      <trkpt lat="44.23542" lon="5.32252">
        <ele>734.3</ele>
        <time>2021-05-24T02:03:07.231Z</time>
      </trkpt>
      <trkpt lat="44.23558" lon="5.32199">
        <ele>738.3</ele>
        <time>2021-05-24T02:03:27.231Z</time>
      </trkpt>
      <trkpt lat="44.23576" lon="5.32175">
        <ele>741.8</ele>
        <time>2021-05-24T02:03:47.231Z</time>
      </trkpt>
      <trkpt lat="44.23601" lon="5.32171">
        <ele>746.5</ele>
        <time>2021-05-24T02:04:07.231Z</time>
      </trkpt>
      <trkpt lat="44.23628" lon="5.32196">
        <ele>750.6</ele>
        <time>2021-05-24T02:04:27.231Z</time>
      </trkpt>
      <trkpt lat="44.23641" lon="5.32202">
        <ele>751.4</ele>
        <time>2021-05-24T02:04:47.231Z</time>
      </trkpt>
      <trkpt lat="44.23658" lon="5.3224">
        <ele>755.7</ele>
        <time>2021-05-24T02:05:07.231Z</time>
      </trkpt>
      <trkpt lat="44.23654" lon="5.32284">
        <ele>760.1</ele>
        <time>2021-05-24T02:05:27.231Z</time>
      </trkpt>
      <trkpt lat="44.23658" lon="5.32347">
        <ele>766.2</ele>
        <time>2021-05-24T02:05:47.231Z</time>
      </trkpt>
      <trkpt lat="44.2364" lon="5.32367">
        <ele>769.9</ele>
        <time>2021-05-24T02:06:07.231Z</time>
      </trkpt>
      <trkpt lat="44.23612" lon="5.3241">
        <ele>772.9</ele>
        <time>2021-05-24T02:06:27.231Z</time>
      </trkpt>
      <trkpt lat="44.23596" lon="5.32425">
        <ele>774.1</ele>
        <time>2021-05-24T02:06:47.231Z</time>
      </trkpt>
      <trkpt lat="44.23574" lon="5.3246">
        <ele>777.3</ele>
        <time>2021-05-24T02:07:07.231Z</time>
      </trkpt>
      <trkpt lat="44.23576" lon="5.32491">
        <ele>783.2</ele>
        <time>2021-05-24T02:07:27.231Z</time>
      </trkpt>
      <trkpt lat="44.23556" lon="5.32533">
        <ele>785.9</ele>
        <time>2021-05-24T02:07:47.231Z</time>
      </trkpt>
      <trkpt lat="44.23541" lon="5.32545">
        <ele>785.5</ele>
        <time>2021-05-24T02:08:07.231Z</time>
      </trkpt>
      <trkpt lat="44.23543" lon="5.32564">
        <ele>788.3</ele>
        <time>2021-05-24T02:08:27.231Z</time>
      </trkpt>
      <trkpt lat="44.2358" lon="5.32573">
        <ele>796</ele>
        <time>2021-05-24T02:08:47.231Z</time>
      </trkpt>
      <trkpt lat="44.2359" lon="5.32604">
        <ele>803</ele>
        <time>2021-05-24T02:09:07.231Z</time>
      </trkpt>
      <trkpt lat="44.23583" lon="5.32671">
        <ele>808.5</ele>
        <time>2021-05-24T02:09:27.231Z</time>
      </trkpt>
      <trkpt lat="44.23547" lon="5.32708">
        <ele>811.6</ele>
        <time>2021-05-24T02:09:47.231Z</time>
      </trkpt>
      <trkpt lat="44.2356" lon="5.32723">
        <ele>815.3</ele>
        <time>2021-05-24T02:10:07.231Z</time>
      </trkpt>
      <trkpt lat="44.23599" lon="5.32736">
        <ele>820.7</ele>
        <time>2021-05-24T02:10:27.231Z</time>
      </trkpt>
      <trkpt lat="44.2363" lon="5.32733">
        <ele>825.3</ele>
        <time>2021-05-24T02:10:47.231Z</time>
      </trkpt>
      <trkpt lat="44.23641" lon="5.32743">
        <ele>830.7</ele>
        <time>2021-05-24T02:11:07.231Z</time>
      </trkpt>
      <trkpt lat="44.23683" lon="5.32693">
        <ele>838.1</ele>
        <time>2021-05-24T02:11:27.231Z</time>
      </trkpt>
      <trkpt lat="44.23709" lon="5.32708">
        <ele>847.4</ele>
        <time>2021-05-24T02:11:47.231Z</time>
      </trkpt>
      <trkpt lat="44.23739" lon="5.32707">
        <ele>849.5</ele>
        <time>2021-05-24T02:12:07.231Z</time>
      </trkpt>
      <trkpt lat="44.23754" lon="5.32721">
        <ele>854.6</ele>
        <time>2021-05-24T02:12:27.231Z</time>
      </trkpt>
      <trkpt lat="44.23732" lon="5.32727">
        <ele>853.6</ele>
        <time>2021-05-24T02:12:47.231Z</time>
      </trkpt>
      <trkpt lat="44.23703" lon="5.32798">
        <ele>860.9</ele>
        <time>2021-05-24T02:13:07.231Z</time>
      </trkpt>
      <trkpt lat="44.23741" lon="5.32778">
        <ele>865.8</ele>
        <time>2021-05-24T02:13:27.231Z</time>
      </trkpt>
      <trkpt lat="44.23714" lon="5.32831">
        <ele>869.6</ele>
        <time>2021-05-24T02:13:47.231Z</time>
      </trkpt>
      <trkpt lat="44.23735" lon="5.32899">
        <ele>885</ele>
        <time>2021-05-24T02:14:07.231Z</time>
      </trkpt>
      <trkpt lat="44.23755" lon="5.32889">
        <ele>887.3</ele>
        <time>2021-05-24T02:14:27.231Z</time>
      </trkpt>
      <trkpt lat="44.23824" lon="5.32881">
        <ele>902.5</ele>
        <time>2021-05-24T02:14:47.231Z</time>
      </trkpt>
      <trkpt lat="44.23867" lon="5.32897">
        <ele>913.5</ele>
        <time>2021-05-24T02:15:07.231Z</time>
      </trkpt>
      <trkpt lat="44.23892" lon="5.3287">
        <ele>917.5</ele>
        <time>2021-05-24T02:15:27.231Z</time>
      </trkpt>
      <trkpt lat="44.23904" lon="5.32865">
        <ele>920.5</ele>
        <time>2021-05-24T02:15:47.231Z</time>
      </trkpt>
      <trkpt lat="44.23893" lon="5.32922">
        <ele>927.8</ele>
        <time>2021-05-24T02:16:07.231Z</time>
      </trkpt>
      <trkpt lat="44.23849" lon="5.32969">
        <ele>935.4</ele>
        <time>2021-05-24T02:16:27.231Z</time>
      </trkpt>
      <trkpt lat="44.23826" lon="5.33031">
        <ele>952.8</ele>
        <time>2021-05-24T02:16:47.231Z</time>
      </trkpt>
      <trkpt lat="44.23813" lon="5.3305">
        <ele>955.8</ele>
        <time>2021-05-24T02:17:07.231Z</time>
      </trkpt>
      <trkpt lat="44.23797" lon="5.33095">
        <ele>968.2</ele>
        <time>2021-05-24T02:17:27.231Z</time>
      </trkpt>
      <trkpt lat="44.23779" lon="5.33101">
        <ele>966.1</ele>
        <time>2021-05-24T02:17:47.231Z</time>
      </trkpt>
      <trkpt lat="44.23774" lon="5.33138">
        <ele>973</ele>
        <time>2021-05-24T02:18:07.231Z</time>
      </trkpt>
      <trkpt lat="44.23773" lon="5.33247">
        <ele>996.2</ele>
        <time>2021-05-24T02:18:27.231Z</time>
      </trkpt>
      <trkpt lat="44.23791" lon="5.33283">
        <ele>1001</ele>
        <time>2021-05-24T02:18:47.231Z</time>
      </trkpt>
      <trkpt lat="44.23802" lon="5.33326">
        <ele>1006.5</ele>
        <time>2021-05-24T02:19:07.231Z</time>
      </trkpt>
      <trkpt lat="44.23817" lon="5.33354">
        <ele>1013.4</ele>
        <time>2021-05-24T02:19:27.231Z</time>
      </trkpt>
      <trkpt lat="44.23809" lon="5.33406">
        <ele>1020.1</ele>
        <time>2021-05-24T02:19:47.231Z</time>
      </trkpt>
      <trkpt lat="44.23803" lon="5.33497">
        <ele>1029.7</ele>
        <time>2021-05-24T02:20:07.231Z</time>
      </trkpt>
      <trkpt lat="44.23846" lon="5.33448">
        <ele>1030.9</ele>
        <time>2021-05-24T02:20:27.231Z</time>
      </trkpt>
      <trkpt lat="44.23853" lon="5.33456">
        <ele>1031.1</ele>
        <time>2021-05-24T02:20:47.231Z</time>
      </trkpt>
      <trkpt lat="44.23876" lon="5.33447">
        <ele>1033.4</ele>
        <time>2021-05-24T02:21:07.231Z</time>
      </trkpt>
      <trkpt lat="44.23895" lon="5.33454">
        <ele>1034.3</ele>
        <time>2021-05-24T02:21:27.231Z</time>
      </trkpt>
      <trkpt lat="44.2397" lon="5.33405">
        <ele>1047</ele>
        <time>2021-05-24T02:21:47.231Z</time>
      </trkpt>
      <trkpt lat="44.24072" lon="5.33359">
        <ele>1060.2</ele>
        <time>2021-05-24T02:22:07.231Z</time>
      </trkpt>
      <trkpt lat="44.24148" lon="5.33225">
        <ele>1075.2</ele>
        <time>2021-05-24T02:22:27.231Z</time>
      </trkpt>
      <trkpt lat="44.24189" lon="5.33192">
        <ele>1082.2</ele>
        <time>2021-05-24T02:22:47.231Z</time>
      </trkpt>
      <trkpt lat="44.24249" lon="5.33166">
        <ele>1091</ele>
        <time>2021-05-24T02:23:07.231Z</time>
      </trkpt>
      <trkpt lat="44.24265" lon="5.33145">
        <ele>1092.6</ele>
        <time>2021-05-24T02:23:27.231Z</time>
      </trkpt>
      <trkpt lat="44.24303" lon="5.33116">
        <ele>1100.3</ele>
        <time>2021-05-24T02:23:47.231Z</time>
      </trkpt>
      <trkpt lat="44.24312" lon="5.331">
        <ele>1102.1</ele>
        <time>2021-05-24T02:24:07.231Z</time>
      </trkpt>
      <trkpt lat="44.24364" lon="5.3307">
        <ele>1110.7</ele>
        <time>2021-05-24T02:24:27.231Z</time>
      </trkpt>
      <trkpt lat="44.24402" lon="5.33052">
        <ele>1116</ele>
        <time>2021-05-24T02:24:47.231Z</time>
      </trkpt>
      <trkpt lat="44.24472" lon="5.33013">
        <ele>1128.1</ele>
        <time>2021-05-24T02:25:07.231Z</time>
      </trkpt>
      <trkpt lat="44.24493" lon="5.32987">
        <ele>1133.3</ele>
        <time>2021-05-24T02:25:27.231Z</time>
      </trkpt>
      <trkpt lat="44.24524" lon="5.32965">
        <ele>1137.9</ele>
        <time>2021-05-24T02:25:47.231Z</time>
      </trkpt>
      <trkpt lat="44.24529" lon="5.3294">
        <ele>1141.7</ele>
        <time>2021-05-24T02:26:07.231Z</time>
      </trkpt>
      <trkpt lat="44.2455" lon="5.329">
        <ele>1148.6</ele>
        <time>2021-05-24T02:26:27.231Z</time>
      </trkpt>
      <trkpt lat="44.24604" lon="5.32846">
        <ele>1154.7</ele>
        <time>2021-05-24T02:26:47.231Z</time>
      </trkpt>
      <trkpt lat="44.24631" lon="5.32832">
        <ele>1155.4</ele>
        <time>2021-05-24T02:27:07.231Z</time>
      </trkpt>
      <trkpt lat="44.24651" lon="5.32803">
        <ele>1158.9</ele>
        <time>2021-05-24T02:27:22.390Z</time>
      </trkpt>
      <trkpt lat="44.247" lon="5.32696">
        <ele>1165.9</ele>
        <time>2021-05-24T02:28:10.232Z</time>
      </trkpt>
      <trkpt lat="44.24748" lon="5.32588">
        <ele>1179.8</ele>
        <time>2021-05-24T02:28:58.073Z</time>
      </trkpt>
      <trkpt lat="44.24797" lon="5.32481">
        <ele>1194.8</ele>
        <time>2021-05-24T02:29:45.914Z</time>
      </trkpt>
      <trkpt lat="44.24824" lon="5.32421">
        <ele>1199.6</ele>
        <time>2021-05-24T02:30:11.291Z</time>
      </trkpt>
      <trkpt lat="44.2488" lon="5.3232">
        <ele>1195</ele>
        <time>2021-05-24T02:30:56.500Z</time>
      </trkpt>
      <trkpt lat="44.24935" lon="5.32219">
        <ele>1186.4</ele>
        <time>2021-05-24T02:31:41.709Z</time>
      </trkpt>
      <trkpt lat="44.24991" lon="5.32119">
        <ele>1183.8</ele>
        <time>2021-05-24T02:32:26.918Z</time>
      </trkpt>
      <trkpt lat="44.25047" lon="5.32018">
        <ele>1179.3</ele>
        <time>2021-05-24T02:33:12.126Z</time>
      </trkpt>
      <trkpt lat="44.25102" lon="5.31918">
        <ele>1176.9</ele>
        <time>2021-05-24T02:33:57.334Z</time>
      </trkpt>
      <trkpt lat="44.25158" lon="5.31817">
        <ele>1172</ele>
        <time>2021-05-24T02:34:42.541Z</time>
      </trkpt>
      <trkpt lat="44.25213" lon="5.31716">
        <ele>1166.3</ele>
        <time>2021-05-24T02:35:27.748Z</time>
      </trkpt>
      <trkpt lat="44.25269" lon="5.31616">
        <ele>1163</ele>
        <time>2021-05-24T02:36:12.954Z</time>
      </trkpt>
      <trkpt lat="44.2527" lon="5.31614">
        <ele>1163</ele>
        <time>2021-05-24T02:36:13.643Z</time>
      </trkpt>
      <trkpt lat="44.25342" lon="5.31537">
        <ele>1155.8</ele>
        <time>2021-05-24T02:36:47.652Z</time>
      </trkpt>
      <trkpt lat="44.25414" lon="5.31459">
        <ele>1152.4</ele>
        <time>2021-05-24T02:37:21.661Z</time>
      </trkpt>
      <trkpt lat="44.25481" lon="5.31389">
        <ele>1152.5</ele>
        <time>2021-05-24T02:37:52.793Z</time>
      </trkpt>
      <trkpt lat="44.2554" lon="5.31398">
        <ele>1141.1</ele>
        <time>2021-05-24T02:38:15.058Z</time>
      </trkpt>
      <trkpt lat="44.25599" lon="5.31408">
        <ele>1122</ele>
        <time>2021-05-24T02:38:37.323Z</time>
      </trkpt>
      <trkpt lat="44.25596" lon="5.31377">
        <ele>1124.3</ele>
        <time>2021-05-24T02:38:45.730Z</time>
      </trkpt>
      <trkpt lat="44.25593" lon="5.31346">
        <ele>1125.4</ele>
        <time>2021-05-24T02:38:52.925Z</time>
      </trkpt>
      <trkpt lat="44.25617" lon="5.31273">
        <ele>1110.7</ele>
        <time>2021-05-24T02:39:11.294Z</time>
      </trkpt>
      <trkpt lat="44.2564" lon="5.312">
        <ele>1094.3</ele>
        <time>2021-05-24T02:39:29.663Z</time>
      </trkpt>
      <trkpt lat="44.25633" lon="5.31189">
        <ele>1094.1</ele>
        <time>2021-05-24T02:39:32.969Z</time>
      </trkpt>
      <trkpt lat="44.25627" lon="5.31178">
        <ele>1093.5</ele>
        <time>2021-05-24T02:39:36.719Z</time>
      </trkpt>
      <trkpt lat="44.25653" lon="5.31142">
        <ele>1082.6</ele>
        <time>2021-05-24T02:39:50.305Z</time>
      </trkpt>
      <trkpt lat="44.2568" lon="5.31105">
        <ele>1074.7</ele>
        <time>2021-05-24T02:40:06.110Z</time>
      </trkpt>
      <trkpt lat="44.25654" lon="5.31102">
        <ele>1058.2</ele>
        <time>2021-05-24T02:40:17.121Z</time>
      </trkpt>
      <trkpt lat="44.25616" lon="5.31077">
        <ele>1037</ele>
        <time>2021-05-24T02:40:37.121Z</time>
      </trkpt>
      <trkpt lat="44.25558" lon="5.31086">
        <ele>1043.6</ele>
        <time>2021-05-24T02:40:57.121Z</time>
      </trkpt>
      <trkpt lat="44.25491" lon="5.31064">
        <ele>1031.4</ele>
        <time>2021-05-24T02:41:17.121Z</time>
      </trkpt>
      <trkpt lat="44.25443" lon="5.31033">
        <ele>1017.6</ele>
        <time>2021-05-24T02:41:37.121Z</time>
      </trkpt>
      <trkpt lat="44.25499" lon="5.31036">
        <ele>1019.1</ele>
        <time>2021-05-24T02:41:57.121Z</time>
      </trkpt>
      <trkpt lat="44.25536" lon="5.31024">
        <ele>1012.2</ele>
        <time>2021-05-24T02:42:17.121Z</time>
      </trkpt>
      <trkpt lat="44.25586" lon="5.31024">
        <ele>1008.5</ele>
        <time>2021-05-24T02:42:37.121Z</time>
      </trkpt>
      <trkpt lat="44.25596" lon="5.31011">
        <ele>1002</ele>
        <time>2021-05-24T02:42:57.121Z</time>
      </trkpt>
      <trkpt lat="44.25621" lon="5.30998">
        <ele>996.3</ele>
        <time>2021-05-24T02:43:17.121Z</time>
      </trkpt>
      <trkpt lat="44.25689" lon="5.30932">
        <ele>984.7</ele>
        <time>2021-05-24T02:43:37.121Z</time>
      </trkpt>
      <trkpt lat="44.25703" lon="5.30901">
        <ele>977.9</ele>
        <time>2021-05-24T02:43:57.121Z</time>
      </trkpt>
      <trkpt lat="44.25717" lon="5.30888">
        <ele>977.3</ele>
        <time>2021-05-24T02:44:17.121Z</time>
      </trkpt>
      <trkpt lat="44.25773" lon="5.30794">
        <ele>957</ele>
        <time>2021-05-24T02:44:37.121Z</time>
      </trkpt>
      <trkpt lat="44.25867" lon="5.30683">
        <ele>928.6</ele>
        <time>2021-05-24T02:44:57.121Z</time>
      </trkpt>
      <trkpt lat="44.25932" lon="5.3065">
        <ele>920.8</ele>
        <time>2021-05-24T02:45:17.121Z</time>
      </trkpt>
      <trkpt lat="44.25978" lon="5.30608">
        <ele>910.3</ele>
        <time>2021-05-24T02:45:37.121Z</time>
      </trkpt>
      <trkpt lat="44.26024" lon="5.30555">
        <ele>894.9</ele>
        <time>2021-05-24T02:45:57.121Z</time>
      </trkpt>
      <trkpt lat="44.26067" lon="5.3053">
        <ele>887.8</ele>
        <time>2021-05-24T02:46:17.121Z</time>
      </trkpt>
      <trkpt lat="44.2611" lon="5.30479">
        <ele>873.3</ele>
        <time>2021-05-24T02:46:37.121Z</time>
      </trkpt>
      <trkpt lat="44.26167" lon="5.30424">
        <ele>860.5</ele>
        <time>2021-05-24T02:46:57.121Z</time>
      </trkpt>
      <trkpt lat="44.26171" lon="5.30409">
        <ele>856.2</ele>
        <time>2021-05-24T02:47:17.121Z</time>
      </trkpt>
      <trkpt lat="44.2619" lon="5.30395">
        <ele>854.1</ele>
        <time>2021-05-24T02:47:37.121Z</time>
      </trkpt>
      <trkpt lat="44.26198" lon="5.30372">
        <ele>849.7</ele>
        <time>2021-05-24T02:47:57.121Z</time>
      </trkpt>
      <trkpt lat="44.26213" lon="5.30354">
        <ele>847.8</ele>
        <time>2021-05-24T02:48:17.121Z</time>
      </trkpt>
      <trkpt lat="44.26223" lon="5.30322">
        <ele>846</ele>
        <time>2021-05-24T02:48:37.121Z</time>
      </trkpt>
      <trkpt lat="44.26237" lon="5.30306">
        <ele>841.9</ele>
        <time>2021-05-24T02:48:57.121Z</time>
      </trkpt>
      <trkpt lat="44.26267" lon="5.30297">
        <ele>831.5</ele>
        <time>2021-05-24T02:49:17.121Z</time>
      </trkpt>
      <trkpt lat="44.26271" lon="5.30317">
        <ele>833.2</ele>
        <time>2021-05-24T02:49:37.121Z</time>
      </trkpt>
      <trkpt lat="44.263" lon="5.30323">
        <ele>824.5</ele>
        <time>2021-05-24T02:49:57.121Z</time>
      </trkpt>
      <trkpt lat="44.26314" lon="5.30313">
        <ele>818.3</ele>
        <time>2021-05-24T02:50:17.121Z</time>
      </trkpt>
      <trkpt lat="44.26337" lon="5.30324">
        <ele>818.8</ele>
        <time>2021-05-24T02:50:37.121Z</time>
      </trkpt>
      <trkpt lat="44.26362" lon="5.30312">
        <ele>813.5</ele>
        <time>2021-05-24T02:50:57.121Z</time>
      </trkpt>
      <trkpt lat="44.26459" lon="5.30307">
        <ele>796.7</ele>
        <time>2021-05-24T02:51:17.121Z</time>
      </trkpt>
      <trkpt lat="44.26492" lon="5.30302">
        <ele>788</ele>
        <time>2021-05-24T02:51:37.121Z</time>
      </trkpt>
      <trkpt lat="44.26544" lon="5.30294">
        <ele>783.6</ele>
        <time>2021-05-24T02:51:57.121Z</time>
      </trkpt>
      <trkpt lat="44.26594" lon="5.30264">
        <ele>773</ele>
        <time>2021-05-24T02:52:17.121Z</time>
      </trkpt>
      <trkpt lat="44.26639" lon="5.30194">
        <ele>765.9</ele>
        <time>2021-05-24T02:52:37.121Z</time>
      </trkpt>
      <trkpt lat="44.26688" lon="5.30063">
        <ele>749.5</ele>
        <time>2021-05-24T02:52:57.121Z</time>
      </trkpt>
      <trkpt lat="44.26707" lon="5.29982">
        <ele>745.2</ele>
        <time>2021-05-24T02:53:17.121Z</time>
      </trkpt>
      <trkpt lat="44.26705" lon="5.29936">
        <ele>746.9</ele>
        <time>2021-05-24T02:53:37.121Z</time>
      </trkpt>
      <trkpt lat="44.26707" lon="5.2989">
        <ele>746.6</ele>
        <time>2021-05-24T02:53:57.121Z</time>
      </trkpt>
      <trkpt lat="44.26693" lon="5.29863">
        <ele>742.3</ele>
        <time>2021-05-24T02:54:17.121Z</time>
      </trkpt>
      <trkpt lat="44.26701" lon="5.29751">
        <ele>736.7</ele>
        <time>2021-05-24T02:54:37.121Z</time>
      </trkpt>
      <trkpt lat="44.26697" lon="5.29705">
        <ele>730.9</ele>
        <time>2021-05-24T02:54:57.121Z</time>
      </trkpt>
      <trkpt lat="44.26701" lon="5.29616">
        <ele>721</ele>
        <time>2021-05-24T02:55:17.121Z</time>
      </trkpt>
      <trkpt lat="44.26693" lon="5.29523">
        <ele>704.7</ele>
        <time>2021-05-24T02:55:37.121Z</time>
      </trkpt>
      <trkpt lat="44.26699" lon="5.29492">
        <ele>703.5</ele>
        <time>2021-05-24T02:55:57.121Z</time>
      </trkpt>
      <trkpt lat="44.26695" lon="5.29441">
        <ele>692.3</ele>
        <time>2021-05-24T02:56:17.121Z</time>
      </trkpt>
      <trkpt lat="44.26705" lon="5.29393">
        <ele>689.1</ele>
        <time>2021-05-24T02:56:37.121Z</time>
      </trkpt>
      <trkpt lat="44.26708" lon="5.29354">
        <ele>684.2</ele>
        <time>2021-05-24T02:56:57.121Z</time>
      </trkpt>
      <trkpt lat="44.26727" lon="5.2931">
        <ele>687.8</ele>
        <time>2021-05-24T02:57:17.121Z</time>
      </trkpt>
      <trkpt lat="44.26733" lon="5.29286">
        <ele>688.4</ele>
        <time>2021-05-24T02:57:37.121Z</time>
      </trkpt>
      <trkpt lat="44.26725" lon="5.29221">
        <ele>685.4</ele>
        <time>2021-05-24T02:57:57.121Z</time>
      </trkpt>
      <trkpt lat="44.26732" lon="5.29168">
        <ele>685.8</ele>
        <time>2021-05-24T02:58:17.121Z</time>
      </trkpt>
      <trkpt lat="44.26751" lon="5.29111">
        <ele>687.9</ele>
        <time>2021-05-24T02:58:37.121Z</time>
      </trkpt>
      <trkpt lat="44.26762" lon="5.29072">
        <ele>690.3</ele>
        <time>2021-05-24T02:58:57.121Z</time>
      </trkpt>
      <trkpt lat="44.26765" lon="5.29078">
        <ele>689.1</ele>
        <time>2021-05-24T02:59:17.121Z</time>
      </trkpt>
      <trkpt lat="44.2678" lon="5.29068">
        <ele>686.4</ele>
        <time>2021-05-24T02:59:37.121Z</time>
      </trkpt>
      <trkpt lat="44.26799" lon="5.29021">
        <ele>679.5</ele>
        <time>2021-05-24T02:59:57.121Z</time>
      </trkpt>
      <trkpt lat="44.26806" lon="5.29068">
        <ele>674.2</ele>
        <time>2021-05-24T03:00:17.121Z</time>
      </trkpt>
      <trkpt lat="44.26805" lon="5.29099">
        <ele>673.8</ele>
        <time>2021-05-24T03:00:37.121Z</time>
      </trkpt>
      <trkpt lat="44.26812" lon="5.29148">
        <ele>667.1</ele>
        <time>2021-05-24T03:00:57.121Z</time>
      </trkpt>
      <trkpt lat="44.26817" lon="5.29149">
        <ele>663.4</ele>
        <time>2021-05-24T03:01:17.121Z</time>
      </trkpt>
      <trkpt lat="44.26833" lon="5.2908">
        <ele>656.8</ele>
        <time>2021-05-24T03:01:37.121Z</time>
      </trkpt>
      <trkpt lat="44.26851" lon="5.29038">
        <ele>645.4</ele>
        <time>2021-05-24T03:01:57.121Z</time>
      </trkpt>
      <trkpt lat="44.26867" lon="5.28989">
        <ele>640.9</ele>
        <time>2021-05-24T03:02:17.121Z</time>
      </trkpt>
      <trkpt lat="44.26888" lon="5.28945">
        <ele>631.5</ele>
        <time>2021-05-24T03:02:37.121Z</time>
      </trkpt>
      <trkpt lat="44.26887" lon="5.29073">
        <ele>620.1</ele>
        <time>2021-05-24T03:02:57.121Z</time>
      </trkpt>
      <trkpt lat="44.26906" lon="5.29034">
        <ele>613.2</ele>
        <time>2021-05-24T03:03:17.121Z</time>
      </trkpt>
      <trkpt lat="44.26941" lon="5.28973">
        <ele>599</ele>
        <time>2021-05-24T03:03:37.121Z</time>
      </trkpt>
      <trkpt lat="44.26963" lon="5.28898">
        <ele>587.7</ele>
        <time>2021-05-24T03:03:57.121Z</time>
      </trkpt>
      <trkpt lat="44.26965" lon="5.28853">
        <ele>581</ele>
        <time>2021-05-24T03:04:17.121Z</time>
      </trkpt>
      <trkpt lat="44.26957" lon="5.28801">
        <ele>577.2</ele>
        <time>2021-05-24T03:04:37.121Z</time>
      </trkpt>
      <trkpt lat="44.26972" lon="5.28707">
        <ele>568.8</ele>
        <time>2021-05-24T03:04:57.121Z</time>
      </trkpt>
      <trkpt lat="44.26992" lon="5.28709">
        <ele>564.9</ele>
        <time>2021-05-24T03:05:17.121Z</time>
      </trkpt>
      <trkpt lat="44.27002" lon="5.28741">
        <ele>562.7</ele>
        <time>2021-05-24T03:05:37.121Z</time>
      </trkpt>
      <trkpt lat="44.27019" lon="5.28759">
        <ele>559.3</ele>
        <time>2021-05-24T03:05:57.121Z</time>
      </trkpt>
      <trkpt lat="44.27041" lon="5.28752">
        <ele>554.1</ele>
        <time>2021-05-24T03:06:17.121Z</time>
      </trkpt>
      <trkpt lat="44.27094" lon="5.28693">
        <ele>543.4</ele>
        <time>2021-05-24T03:06:37.121Z</time>
      </trkpt>
      <trkpt lat="44.27134" lon="5.28692">
        <ele>535</ele>
        <time>2021-05-24T03:06:57.121Z</time>
      </trkpt>
      <trkpt lat="44.27145" lon="5.28663">
        <ele>529.2</ele>
        <time>2021-05-24T03:07:17.121Z</time>
      </trkpt>
      <trkpt lat="44.27139" lon="5.28639">
        <ele>526</ele>
        <time>2021-05-24T03:07:37.121Z</time>
      </trkpt>
      <trkpt lat="44.27142" lon="5.28627">
        <ele>523.9</ele>
        <time>2021-05-24T03:07:57.121Z</time>
      </trkpt>
      <trkpt lat="44.27174" lon="5.28615">
        <ele>514.9</ele>
        <time>2021-05-24T03:08:17.121Z</time>
      </trkpt>
      <trkpt lat="44.27196" lon="5.28572">
        <ele>507.3</ele>
        <time>2021-05-24T03:08:37.121Z</time>
      </trkpt>
      <trkpt lat="44.27194" lon="5.28537">
        <ele>504.1</ele>
        <time>2021-05-24T03:08:57.121Z</time>
      </trkpt>
      <trkpt lat="44.27206" lon="5.2853">
        <ele>499.7</ele>
        <time>2021-05-24T03:09:17.121Z</time>
      </trkpt>
      <trkpt lat="44.27227" lon="5.28549">
        <ele>496.4</ele>
        <time>2021-05-24T03:09:37.121Z</time>
      </trkpt>
      <trkpt lat="44.27236" lon="5.28537">
        <ele>491.9</ele>
        <time>2021-05-24T03:09:57.121Z</time>
      </trkpt>
      <trkpt lat="44.27255" lon="5.28523">
        <ele>485.5</ele>
        <time>2021-05-24T03:10:17.121Z</time>
      </trkpt>
      <trkpt lat="44.27278" lon="5.28519">
        <ele>480.7</ele>
        <time>2021-05-24T03:10:37.121Z</time>
      </trkpt>
      <trkpt lat="44.27307" lon="5.28491">
        <ele>473.3</ele>
        <time>2021-05-24T03:10:57.121Z</time>
      </trkpt>
      <trkpt lat="44.27313" lon="5.28472">
        <ele>471.5</ele>
        <time>2021-05-24T03:11:17.121Z</time>
      </trkpt>
      <trkpt lat="44.27268" lon="5.28417">
        <ele>470.7</ele>
        <time>2021-05-24T03:11:37.121Z</time>
      </trkpt>
      <trkpt lat="44.27259" lon="5.28351">
        <ele>464</ele>
        <time>2021-05-24T03:11:57.121Z</time>
      </trkpt>
      <trkpt lat="44.27274" lon="5.2832">
        <ele>461.2</ele>
        <time>2021-05-24T03:12:17.121Z</time>
      </trkpt>
      <trkpt lat="44.27282" lon="5.28261">
        <ele>458.3</ele>
        <time>2021-05-24T03:12:37.121Z</time>
      </trkpt>
      <trkpt lat="44.27282" lon="5.28197">
        <ele>454.3</ele>
        <time>2021-05-24T03:12:57.121Z</time>
      </trkpt>
      <trkpt lat="44.27289" lon="5.28198">
        <ele>452.9</ele>
        <time>2021-05-24T03:13:17.121Z</time>
      </trkpt>
      <trkpt lat="44.27295" lon="5.2823">
        <ele>453</ele>
        <time>2021-05-24T03:13:37.121Z</time>
      </trkpt>
      <trkpt lat="44.27307" lon="5.2826">
        <ele>450.1</ele>
        <time>2021-05-24T03:13:57.121Z</time>
      </trkpt>
      <trkpt lat="44.27345" lon="5.28283">
        <ele>444</ele>
        <time>2021-05-24T03:14:17.121Z</time>
      </trkpt>
      <trkpt lat="44.27365" lon="5.28314">
        <ele>443.6</ele>
        <time>2021-05-24T03:14:37.121Z</time>
      </trkpt>
      <trkpt lat="44.27382" lon="5.28323">
        <ele>443.2</ele>
        <time>2021-05-24T03:14:57.121Z</time>
      </trkpt>
      <trkpt lat="44.27419" lon="5.28317">
        <ele>438.3</ele>
        <time>2021-05-24T03:15:17.121Z</time>
      </trkpt>
      <trkpt lat="44.27436" lon="5.2833">
        <ele>437</ele>
        <time>2021-05-24T03:15:37.121Z</time>
      </trkpt>
      <trkpt lat="44.27447" lon="5.2833">
        <ele>434.9</ele>
        <time>2021-05-24T03:15:57.121Z</time>
      </trkpt>
      <trkpt lat="44.27467" lon="5.28347">
        <ele>434.4</ele>
        <time>2021-05-24T03:16:17.121Z</time>
      </trkpt>
      <trkpt lat="44.27486" lon="5.28353">
        <ele>429.4</ele>
        <time>2021-05-24T03:16:37.121Z</time>
      </trkpt>
      <trkpt lat="44.27482" lon="5.28334">
        <ele>426.4</ele>
        <time>2021-05-24T03:16:57.121Z</time>
      </trkpt>
      <trkpt lat="44.2747" lon="5.28322">
        <ele>428.6</ele>
        <time>2021-05-24T03:17:17.121Z</time>
      </trkpt>
      <trkpt lat="44.27479" lon="5.28212">
        <ele>418</ele>
        <time>2021-05-24T03:17:37.121Z</time>
      </trkpt>
      <trkpt lat="44.27489" lon="5.28183">
        <ele>414</ele>
        <time>2021-05-24T03:17:57.121Z</time>
      </trkpt>
      <trkpt lat="44.27491" lon="5.28137">
        <ele>411.9</ele>
        <time>2021-05-24T03:18:17.121Z</time>
      </trkpt>
      <trkpt lat="44.27481" lon="5.28099">
        <ele>410.2</ele>
        <time>2021-05-24T03:18:37.121Z</time>
      </trkpt>
      <trkpt lat="44.27492" lon="5.28079">
        <ele>406.8</ele>
        <time>2021-05-24T03:18:57.121Z</time>
      </trkpt>
      <trkpt lat="44.27502" lon="5.28054">
        <ele>401.8</ele>
        <time>2021-05-24T03:19:17.121Z</time>
      </trkpt>
      <trkpt lat="44.27521" lon="5.27987">
        <ele>392.9</ele>
        <time>2021-05-24T03:19:37.121Z</time>
      </trkpt>
      <trkpt lat="44.27524" lon="5.27942">
        <ele>386.6</ele>
        <time>2021-05-24T03:19:57.121Z</time>
      </trkpt>
      <trkpt lat="44.2755" lon="5.27915">
        <ele>380</ele>
        <time>2021-05-24T03:20:17.121Z</time>
      </trkpt>
      <trkpt lat="44.27576" lon="5.27868">
        <ele>375.6</ele>
        <time>2021-05-24T03:20:37.121Z</time>
      </trkpt>
      <trkpt lat="44.27591" lon="5.27801">
        <ele>369.9</ele>
        <time>2021-05-24T03:20:57.121Z</time>
      </trkpt>
      <trkpt lat="44.27605" lon="5.27788">
        <ele>369.5</ele>
        <time>2021-05-24T03:21:17.121Z</time>
      </trkpt>
      <trkpt lat="44.27627" lon="5.27727">
        <ele>369.6</ele>
        <time>2021-05-24T03:21:37.121Z</time>
      </trkpt>
      <trkpt lat="44.27572" lon="5.27684">
        <ele>369</ele>
        <time>2021-05-24T03:21:57.121Z</time>
      </trkpt>
      <trkpt lat="44.27597" lon="5.27609">
        <ele>369</ele>
        <time>2021-05-24T03:22:17.121Z</time>
      </trkpt>
      <trkpt lat="44.27608" lon="5.276">
        <ele>369.1</ele>
        <time>2021-05-24T03:22:37.121Z</time>
      </trkpt>
      <trkpt lat="44.276" lon="5.27565">
        <ele>369</ele>
        <time>2021-05-24T03:22:57.121Z</time>
      </trkpt>
    </trkseg>
  </trk>
</gpx>